[[{"header":{"parameterUnit":"m.s-1","parameterCategory":1,"la1":30.6,"la2":28.766,"lo1":-90.7593,"lo2":-88.6598,"dy":0.0162,"dx":0.0183,"nx":116,"ny":114,"refTime":"2023-09-08T06:00:00:Z","depth":0,"parameterNumber":2,"parameterNumberName":"U-component_of_WINDS"},"data":[0.0,0.0,0.0,0.0,0.0,0.0,0.0,0.0,0.0,0.0,0.0,0.0,0.0,0.0,0.0,0.0,0.0,0.0,0.0,0.0,0.0,0.0,0.0,0.0,0.0,0.0,0.0,0.0,0.0,0.0,0.0,0.0,0.0,0.0,0.0,0.0,0.0,0.0,0.0,0.0,0.0,0.0,0.0,0.0,0.0,0.0,0.0,0.0,0.0,0.0,0.0,0.0,0.0,0.0,0.0,0.0,0.0,0.0,0.0,0.0,0.0,0.0,0.0,0.0,0.0,0.0,0.0,0.0,0.0,0.0,0.0,0.0,0.0,0.0,0.0,0.0,0.0,0.0,0.0,0.0,0.0,0.0,0.0,0.0,0.0,0.0,0.0,0.0,0.0,0.0,0.0,0.0,0.0,0.0,0.0,0.0,0.0,0.0,0.0,0.0,0.0,0.0,0.0,0.0,0.0,0.0,0.0,0.0,0.0,0.0,0.0,0.0,0.0,0.0,0.0,0.0,0.0,0.0,0.0,0.0,0.0,0.0,0.0,0.0,0.0,0.0,0.0,0.0,0.0,0.0,0.0,0.0,0.0,0.0,0.0,0.0,0.0,0.0,0.0,0.0,0.0,0.0,0.0,0.0,0.0,0.0,0.0,0.0,0.0,0.0,0.0,0.0,0.0,0.0,0.0,0.0,0.0,0.0,0.0,0.0,0.0,0.0,0.0,0.0,0.0,0.0,0.0,0.0,0.0,0.0,0.0,0.0,0.0,0.0,0.0,0.0,0.0,0.0,0.0,0.0,0.0,0.0,0.0,0.0,0.0,0.0,0.0,0.0,0.0,0.0,0.0,0.0,0.0,0.0,0.0,0.0,0.0,0.0,0.0,0.0,0.0,0.0,0.0,0.0,0.0,0.0,0.0,0.0,0.0,0.0,0.0,0.0,0.0,0.0,0.0,0.0,0.0,0.0,0.0,0.0,0.0,0.0,0.0,0.0,0.0,0.0,0.0,0.0,0.0,0.0,0.0,0.0,0.0,0.0,0.0,0.0,0.0,0.0,0.0,0.0,0.0,0.0,0.0,0.0,0.0,0.0,0.0,0.0,0.0,0.0,0.0,0.0,0.0,0.0,0.0,0.0,0.0,0.0,0.0,0.0,0.0,0.0,0.0,0.0,0.0,0.0,0.0,0.0,0.0,0.0,0.0,0.0,0.0,0.0,0.0,0.0,0.0,0.0,0.0,0.0,0.0,0.0,0.0,0.0,0.0,0.0,0.0,0.0,0.0,0.0,0.0,0.0,0.0,0.0,0.0,0.0,0.0,0.0,0.0,0.0,0.0,0.0,0.0,0.0,0.0,0.0,0.0,0.0,0.0,0.0,0.0,0.0,0.0,0.0,0.0,0.0,0.0,0.0,0.0,0.0,0.0,0.0,0.0,0.0,0.0,0.0,0.0,0.0,0.0,0.0,0.0,0.0,0.0,0.0,0.0,0.0,0.0,0.0,0.0,0.0,0.0,0.0,0.0,0.0,0.0,0.0,0.0,0.0,0.0,0.0,0.0,0.0,0.0,0.0,0.0,0.0,0.0,0.0,0.0,0.0,0.0,0.0,0.0,0.0,0.0,0.0,0.0,0.0,0.0,0.0,0.0,0.0,0.0,0.0,0.0,0.0,0.0,0.0,0.0,0.0,0.0,0.0,0.0,0.0,0.0,0.0,0.0,0.0,0.0,0.0,0.0,0.0,0.0,0.0,0.0,0.0,0.0,0.0,0.0,0.0,0.0,0.0,0.0,0.0,0.0,0.0,0.0,0.0,0.0,0.0,0.0,0.0,0.0,0.0,0.0,0.0,0.0,0.0,0.0,0.0,0.0,0.0,0.0,0.0,0.0,0.0,0.0,0.0,0.0,0.0,0.0,0.0,0.0,0.0,0.0,0.0,0.0,0.0,0.0,0.0,0.0,0.0,0.0,0.0,0.0,0.0,0.0,0.0,0.0,0.0,0.0,0.0,0.0,0.0,0.0,0.0,0.0,0.0,0.0,0.0,0.0,0.0,0.0,0.0,0.0,0.0,0.0,0.0,0.0,0.0,0.0,0.0,0.0,0.0,0.0,0.0,0.0,0.0,0.0,0.0,0.0,0.0,0.0,0.0,0.0,0.0,0.0,0.0,0.0,0.0,0.0,0.0,0.0,0.0,0.0,0.0,0.0,0.0,0.0,0.0,0.0,0.0,0.0,0.0,0.0,0.0,0.0,0.0,0.0,0.0,0.0,0.0,0.0,0.0,0.0,0.0,0.0,0.0,0.0,0.0,0.0,0.0,0.0,0.0,0.0,0.0,0.0,0.0,0.0,0.0,0.0,0.0,0.0,0.0,0.0,0.0,0.0,0.0,0.0,0.0,0.0,0.0,0.0,0.0,0.0,0.0,0.0,0.0,0.0,0.0,0.0,0.0,0.0,0.0,0.0,0.0,0.0,0.0,0.0,0.0,0.0,0.0,0.0,0.0,0.0,0.0,0.0,0.0,0.0,0.0,0.0,0.0,0.0,0.0,0.0,0.0,0.0,0.0,0.0,0.0,0.0,0.0,0.0,0.0,0.0,0.0,0.0,0.0,0.0,0.0,0.0,0.0,0.0,0.0,0.0,0.0,0.0,0.0,0.0,0.0,0.0,0.0,0.0,0.0,0.0,0.0,0.0,0.0,0.0,0.0,0.0,0.0,0.0,0.0,0.0,0.0,0.0,0.0,0.0,0.0,0.0,0.0,0.0,0.0,0.0,0.0,0.0,0.0,0.0,0.0,0.0,0.0,0.0,0.0,0.0,0.0,0.0,0.0,0.0,0.0,0.0,0.0,0.0,0.0,0.0,0.0,0.0,0.0,0.0,0.0,0.0,0.0,0.0,0.0,0.0,0.0,0.0,0.0,0.0,0.0,0.0,0.0,0.0,0.0,0.0,0.0,0.0,0.0,0.0,0.0,0.0,0.0,0.0,0.0,0.0,0.0,0.0,0.0,0.0,0.0,0.0,0.0,0.0,0.0,0.0,0.0,0.0,0.0,0.0,0.0,0.0,0.0,0.0,0.0,0.0,0.0,0.0,0.0,0.0,0.0,0.0,0.0,0.0,0.0,0.0,0.0,0.0,0.0,0.0,0.0,0.0,0.0,0.0,0.0,0.0,0.0,0.0,0.0,0.0,0.0,0.0,0.0,0.0,0.0,0.0,0.0,0.0,0.0,0.0,0.0,0.0,0.0,0.0,0.0,0.0,0.0,0.0,0.0,0.0,0.0,0.0,0.0,0.0,0.0,0.0,0.0,0.0,0.0,0.0,0.0,0.0,0.0,0.0,0.0,0.0,0.0,0.0,0.0,0.0,0.0,0.0,0.0,0.0,0.0,0.0,0.0,0.0,0.0,0.0,0.0,0.0,0.0,0.0,0.0,0.0,0.0,0.0,0.0,0.0,0.0,0.0,0.0,0.0,0.0,0.0,0.0,0.0,0.0,0.0,0.0,0.0,0.0,0.0,0.0,0.0,0.0,0.0,0.0,0.0,0.0,0.0,0.0,0.0,0.0,0.0,0.0,0.0,0.0,0.0,0.0,0.0,0.0,0.0,0.0,0.0,0.0,0.0,0.0,0.0,0.0,0.0,0.0,0.0,0.0,0.0,0.0,0.0,0.0,0.0,0.0,0.0,0.0,0.0,0.0,0.0,0.0,0.0,0.0,0.0,0.0,0.0,0.0,0.0,0.0,0.0,0.0,0.0,0.0,0.0,0.0,0.0,0.0,0.0,0.0,0.0,0.0,0.0,0.0,0.0,0.0,0.0,0.0,0.0,0.0,0.0,0.0,0.0,0.0,0.0,0.0,0.0,0.0,0.0,0.0,0.0,0.0,0.0,0.0,0.0,0.0,0.0,0.0,0.0,0.0,0.0,0.0,0.0,0.0,0.0,0.0,0.0,0.0,0.0,0.0,0.0,0.0,0.0,0.0,0.0,0.0,0.0,0.0,0.0,0.0,0.0,0.0,0.0,0.0,0.0,0.0,0.0,0.0,0.0,0.0,0.0,0.0,0.0,0.0,0.0,0.0,0.0,0.0,0.0,0.0,0.0,0.0,0.0,0.0,0.0,0.0,0.0,0.0,0.0,0.0,0.0,0.0,0.0,0.0,0.0,0.0,0.0,0.0,0.0,0.0,0.0,0.0,0.0,0.0,0.0,0.0,0.0,0.0,0.0,0.0,0.0,0.0,0.0,0.0,0.0,0.0,0.0,0.0,0.0,0.0,0.0,0.0,0.0,0.0,0.0,0.0,0.0,0.0,0.0,0.0,0.0,0.0,0.0,0.0,0.0,0.0,0.0,0.0,0.0,0.0,0.0,0.0,0.0,0.0,0.0,0.0,0.0,0.0,0.0,0.0,0.0,0.0,0.0,0.0,0.0,0.0,0.0,0.0,0.0,0.0,0.0,0.0,0.0,0.0,0.0,0.0,0.0,0.0,0.0,0.0,0.0,0.0,0.0,0.0,0.0,0.0,0.0,0.0,0.0,0.0,0.0,0.0,0.0,0.0,0.0,0.0,0.0,0.0,0.0,0.0,0.0,0.0,0.0,0.0,0.0,0.0,0.0,0.0,0.0,0.0,0.0,0.0,0.0,0.0,0.0,0.0,0.0,0.0,0.0,0.0,0.0,0.0,0.0,0.0,0.0,0.0,0.0,0.0,0.0,0.0,0.0,0.0,0.0,0.0,0.0,0.0,0.0,0.0,0.0,0.0,0.0,0.0,0.0,0.0,0.0,0.0,0.0,0.0,0.0,0.0,0.0,0.0,0.0,0.0,0.0,0.0,0.0,0.0,0.0,0.0,0.0,0.0,0.0,0.0,0.0,0.0,0.0,0.0,0.0,0.0,0.0,0.0,0.0,0.0,0.0,0.0,0.0,0.0,0.0,0.0,0.0,0.0,0.0,0.0,0.0,0.0,0.0,0.0,0.0,0.0,0.0,0.0,0.0,0.0,0.0,0.0,0.0,0.0,0.0,0.0,0.0,0.0,0.0,0.0,0.0,0.0,0.0,0.0,0.0,0.0,0.0,0.0,0.0,0.0,0.0,0.0,0.0,0.0,0.0,0.0,0.0,0.0,0.0,0.0,0.0,0.0,0.0,0.0,0.0,0.0,0.0,0.0,0.0,0.0,0.0,0.0,0.0,0.0,0.0,0.0,0.0,0.0,0.0,0.0,0.0,0.0,0.0,0.0,0.0,0.0,0.0,0.0,0.0,0.0,0.0,0.0,0.0,0.0,0.0,0.0,0.0,0.0,0.0,0.0,0.0,0.0,0.0,0.0,0.0,0.0,0.0,0.0,0.0,0.0,0.0,0.0,0.0,0.0,0.0,0.0,0.0,0.0,0.0,0.0,0.0,0.0,0.0,0.0,0.0,0.0,0.0,0.0,0.0,0.0,0.0,0.0,0.0,0.0,0.0,0.0,0.0,0.0,0.0,0.0,0.0,0.0,0.0,0.0,0.0,0.0,0.0,0.0,0.0,0.0,0.0,0.0,0.0,0.0,0.0,0.0,0.0,0.0,0.0,0.0,0.0,0.0,0.0,0.0,0.0,0.0,0.0,0.0,0.0,0.0,0.0,0.0,0.0,0.0,0.0,0.0,0.0,0.0,0.0,0.0,0.0,0.0,0.0,0.0,0.0,0.0,0.0,0.0,0.0,0.0,0.0,0.0,0.0,0.0,0.0,0.0,0.0,0.0,0.0,0.0,0.0,0.0,0.0,0.0,0.0,0.0,0.0,0.0,0.0,0.0,0.0,0.0,0.0,0.0,0.0,0.0,0.0,0.0,0.0,0.0,0.0,0.0,0.0,0.0,0.0,0.0,0.0,0.0,0.0,0.0,0.0,0.0,0.0,0.0,0.0,0.0,0.0,0.0,0.0,0.0,0.0,0.0,0.0,0.0,0.0,0.0,0.0,0.0,0.0,0.0,0.0,0.0,0.0,0.0,0.0,0.0,0.0,0.0,0.0,0.0,0.0,0.0,0.0,0.0,0.0,0.0,0.0,0.0,0.0,0.0,0.0,0.0,0.0,0.0,0.0,0.0,0.0,0.0,0.0,0.0,0.0,0.0,2.1686,2.0714,0.0,0.0,0.0,0.0,0.0,0.0,0.0,0.0,0.0,0.0,0.0,0.0,0.0,0.0,0.0,0.0,0.0,0.0,0.0,0.0,0.0,0.0,0.0,0.0,0.0,0.0,0.0,0.0,0.0,0.0,0.0,0.0,0.0,0.0,0.0,0.0,0.0,0.0,0.0,0.0,0.0,0.0,0.0,0.0,0.0,0.0,0.0,0.0,0.0,0.0,0.0,0.0,0.0,0.0,0.0,0.0,0.0,0.0,0.0,0.0,0.0,0.0,0.0,0.0,0.0,0.0,0.0,0.0,0.0,0.0,0.0,0.0,0.0,0.0,0.0,0.0,0.0,0.0,0.0,0.0,0.0,0.0,0.0,0.0,0.0,0.0,0.0,0.0,0.0,0.0,0.0,0.0,0.0,0.0,0.0,0.0,0.0,0.0,0.0,0.0,0.0,0.0,0.0,0.0,0.0,0.0,0.0,0.0,0.0,0.0,0.0,0.0,0.0,0.0,2.3766,2.2289,0.0,0.0,0.0,0.0,0.0,0.0,0.0,0.0,0.0,0.0,0.0,0.0,0.0,0.0,0.0,0.0,0.0,0.0,0.0,0.0,0.0,0.0,0.0,0.0,1.5757,1.5054,1.5781,0.0,0.0,0.0,0.0,0.0,0.0,0.0,0.0,0.0,0.0,0.0,0.0,0.0,0.0,0.0,0.0,0.0,0.0,0.0,0.0,0.0,0.0,0.0,0.0,0.0,0.0,0.0,0.0,0.0,0.0,0.0,0.0,0.0,0.0,0.0,0.0,0.0,0.0,0.0,0.0,0.0,0.0,0.0,0.0,0.0,0.0,0.0,0.0,0.0,0.0,0.0,0.0,0.0,0.0,0.0,0.0,0.0,0.0,0.0,0.0,0.0,0.0,0.0,0.0,0.0,0.0,0.0,0.0,0.0,0.0,0.0,0.0,0.0,0.0,0.0,0.0,0.0,0.0,0.0,0.0,0.0,3.0643,3.0878,3.0067,3.1376,3.1589,3.0802,2.6793,2.4915,2.4594,2.2688,0.0,0.0,0.0,0.0,0.0,0.0,0.0,0.0,0.0,0.0,0.0,0.0,0.0,0.0,0.0,0.0,0.0,0.0,0.0,0.0,0.0,1.6583,1.6601,1.6597,1.6824,1.6951,0.0,0.0,0.0,0.0,0.0,0.0,0.0,0.0,0.0,0.0,0.0,2.2454,2.5001,2.5749,2.681,2.7867,2.3738,0.0,0.0,0.0,0.0,0.0,0.0,0.0,0.0,0.0,0.0,0.0,0.0,0.0,0.0,0.0,0.0,0.0,0.0,0.0,0.0,0.0,0.0,0.0,0.0,0.0,0.0,0.0,0.0,0.0,0.0,0.0,0.0,0.0,0.0,0.0,0.0,0.0,0.0,0.0,0.0,0.0,0.0,0.0,2.3059,2.3101,0.0,0.0,0.0,0.0,0.0,0.0,0.0,0.0,0.0,0.0,0.0,0.0,0.0,3.1492,3.2317,3.3266,3.3196,3.2169,3.3578,3.3515,3.2197,3.2984,3.3556,3.3889,3.2529,0.0,2.8994,2.5571,0.0,0.0,0.0,0.0,0.0,0.0,0.0,0.0,0.0,0.0,0.0,0.0,0.0,0.0,0.0,0.0,0.0,0.0,0.0,0.0,0.0,1.8118,1.8466,1.8095,1.9847,2.0044,1.7851,0.0,0.0,0.0,0.0,0.0,0.0,0.0,0.0,0.0,2.3592,2.5774,2.7892,2.8215,2.924,3.0703,2.8219,2.5956,2.3948,2.307,0.0,0.0,0.0,0.0,0.0,0.0,0.0,0.0,0.0,0.0,0.0,0.0,0.0,0.0,0.0,0.0,0.0,0.0,0.0,0.0,0.0,0.0,0.0,0.0,0.0,0.0,0.0,0.0,0.0,0.0,0.0,0.0,0.0,0.0,0.0,0.0,0.0,0.0,0.0,2.3652,2.6345,2.5306,2.6675,2.6593,0.0,0.0,0.0,0.0,0.0,0.0,0.0,0.0,0.0,3.3214,3.3737,3.4438,3.5354,3.5972,3.6027,3.5472,3.6614,3.662,3.5605,3.6729,3.7191,3.7009,3.6641,3.5729,3.4134,2.9479,2.6877,2.5686,0.0,0.0,0.0,0.0,2.4926,2.5683,0.0,0.0,0.0,0.0,0.0,0.0,0.0,0.0,0.0,0.0,0.0,0.0,1.8548,1.9802,2.0477,2.0334,2.2525,2.2686,1.9776,2.0633,0.0,0.0,0.0,0.0,0.0,0.0,0.0,2.4102,2.6441,2.8594,3.0542,3.0769,3.1747,3.3244,3.2599,3.016,2.647,2.5456,2.3765,0.0,0.0,0.0,0.0,0.0,0.0,0.0,0.0,0.0,0.0,0.0,0.0,0.0,0.0,0.0,0.0,0.0,0.0,0.0,0.0,0.0,0.0,0.0,0.0,0.0,0.0,0.0,0.0,0.0,0.0,0.0,0.0,0.0,0.0,0.0,0.0,0.0,0.0,2.5658,2.8752,2.7236,2.9229,2.9526,0.0,0.0,0.0,0.0,0.0,0.0,3.2547,3.3546,3.4987,3.7046,3.7329,3.7934,3.8885,3.879,3.8747,3.8764,3.9122,3.8988,3.8497,3.958,3.9783,3.9276,3.9276,3.8853,3.7821,3.3035,3.0015,2.8334,2.7566,2.6991,2.6731,2.7646,2.8524,2.944,0.0,0.0,0.0,0.0,0.0,0.0,0.0,0.0,0.0,0.0,0.0,1.8666,2.0789,2.1448,2.2306,2.3802,2.3795,2.368,2.3595,2.2736,2.1512,1.9936,2.157,0.0,0.0,0.0,0.0,2.6795,2.8583,3.0711,3.314,3.3968,3.5198,3.6752,3.6697,3.4442,3.0498,2.7485,2.5803,2.4873,0.0,0.0,0.0,0.0,0.0,0.0,0.0,0.0,0.0,0.0,0.0,0.0,0.0,0.0,0.0,0.0,0.0,0.0,0.0,0.0,0.0,0.0,0.0,0.0,0.0,0.0,0.0,0.0,0.0,0.0,0.0,0.0,0.0,0.0,0.0,0.0,0.0,0.0,0.0,2.7921,3.2376,0.0,0.0,0.0,0.0,3.0667,3.2087,3.4129,3.6747,3.8332,4.0364,4.2983,4.3284,4.3772,4.4606,4.2773,4.186,4.1843,4.0658,4.0003,3.9969,4.0054,4.0054,4.002,4.002,3.9614,3.87,3.5554,3.3795,3.2848,3.0717,3.0155,3.0471,3.0162,3.0885,3.1928,0.0,0.0,0.0,0.0,0.0,0.0,0.0,0.0,0.0,1.8977,1.8794,1.9775,2.2847,2.376,2.4576,2.5642,2.6834,2.6495,2.4163,2.432,2.3643,2.1751,2.2286,2.257,0.0,0.0,2.7293,2.9448,3.1101,3.3244,3.5748,3.5456,3.6208,3.7834,3.7745,3.6909,3.5393,3.2609,2.9651,2.666,2.4865,2.2765,0.0,0.0,0.0,0.0,0.0,0.0,0.0,0.0,0.0,0.0,0.0,0.0,0.0,0.0,0.0,0.0,0.0,0.0,0.0,0.0,0.0,0.0,0.0,0.0,0.0,0.0,0.0,0.0,0.0,0.0,0.0,0.0,0.0,0.0,0.0,0.0,0.0,3.2025,3.4579,0.0,3.2882,3.3547,3.4601,3.5789,3.8331,4.0961,4.3448,4.4089,4.5077,4.6544,4.5751,4.5425,4.5755,4.4255,4.3296,4.2794,4.1904,4.1255,4.0798,4.1218,4.0912,4.0121,4.0861,4.0612,3.9647,3.8939,3.7103,3.4658,3.3168,3.2724,3.283,3.2441,3.3277,3.4547,0.0,0.0,0.0,0.0,0.0,0.0,0.0,0.0,1.9175,1.9286,1.9541,2.0813,2.3754,2.5265,2.6475,2.75,2.8561,2.8154,2.5774,2.5672,2.4993,2.3415,2.3163,2.3837,0.0,2.7449,2.9506,3.1641,3.3303,3.511,3.7068,3.6684,3.7271,3.8623,3.8546,3.8661,3.8777,3.6815,3.3772,3.008,2.7935,2.5748,2.3524,0.0,0.0,0.0,0.0,0.0,0.0,0.0,0.0,0.0,0.0,0.0,0.0,0.0,0.0,0.0,0.0,0.0,0.0,0.0,0.0,0.0,0.0,0.0,0.0,0.0,0.0,0.0,0.0,0.0,0.0,0.0,0.0,0.0,0.0,0.0,3.4544,3.5374,3.7287,3.8055,3.6774,3.7661,3.8911,4.0281,4.3612,4.6158,4.7481,4.7828,4.8123,4.8379,4.698,4.6184,4.598,4.464,4.3752,4.3237,4.26,4.2174,4.1886,4.2061,4.176,4.1099,4.1569,4.1375,4.0672,4.1059,3.9815,3.7558,3.6208,3.5641,3.5486,3.5004,3.548,3.6302,0.0,0.0,0.0,0.0,0.0,0.0,0.0,1.9851,1.9645,1.9206,2.0318,2.179,2.3482,2.5884,2.7987,2.9367,2.8747,2.8362,2.8564,2.6753,2.5469,2.4907,2.44,2.537,2.8058,2.9065,3.0827,3.3418,3.5137,3.6353,3.7094,3.7832,3.8597,3.9373,3.9411,3.9854,4.0527,3.9738,3.7988,3.5339,3.0819,2.8692,2.7791,0.0,0.0,0.0,0.0,0.0,0.0,0.0,0.0,0.0,0.0,0.0,0.0,0.0,0.0,0.0,0.0,0.0,0.0,0.0,0.0,0.0,0.0,0.0,0.0,0.0,0.0,0.0,0.0,0.0,0.0,0.0,0.0,0.0,3.0085,3.4032,3.702,3.7765,4.0543,4.2074,4.1129,4.3658,4.4986,4.4078,4.7476,4.9309,4.8596,4.9298,4.9397,4.864,4.7375,4.6308,4.5546,4.4207,4.3504,4.3453,4.2709,4.2688,4.3308,4.2531,4.2463,4.2951,4.2207,4.1871,4.181,4.181,4.181,4.1611,3.974,3.8879,3.8572,3.7776,3.733,3.7029,0.0,0.0,0.0,0.0,0.0,0.0,0.0,2.0041,1.9983,2.009,2.1171,2.2758,2.5026,2.6554,2.7959,2.9381,2.8273,2.761,2.7857,2.6514,2.6038,2.6809,2.6783,2.8005,3.0704,3.2289,3.4061,3.6055,3.7168,3.8107,3.89,3.9646,4.0392,4.1143,4.1777,4.2181,4.2374,4.2143,4.1643,4.0585,3.5638,3.2699,3.1032,0.0,0.0,0.0,0.0,0.0,0.0,0.0,0.0,0.0,0.0,0.0,0.0,0.0,0.0,0.0,0.0,0.0,0.0,0.0,0.0,0.0,0.0,0.0,0.0,0.0,0.0,0.0,0.0,0.0,0.0,0.0,0.0,3.5492,3.6086,3.854,4.1102,4.3196,4.4209,4.466,4.4402,4.5493,4.6377,4.6673,4.8675,4.9959,5.0346,5.0062,4.9728,4.9564,4.8679,4.7571,4.6325,4.6032,4.5331,4.4265,4.4045,4.3749,4.3386,4.4042,4.3629,4.2411,4.3436,4.3102,4.1835,4.2262,4.2203,4.1637,4.0134,3.9865,4.0026,3.7798,3.6608,3.6062,0.0,0.0,0.0,0.0,0.0,0.0,0.0,2.0098,1.9953,1.9927,2.1496,2.3199,2.4697,2.6382,2.7653,2.8219,2.7611,2.7175,2.7181,2.7175,2.7568,2.8511,2.9306,3.0874,3.3296,3.4764,3.6202,3.7598,3.8476,3.9306,4.0127,4.0896,4.1643,4.2374,4.2874,4.3297,4.3585,4.3275,4.3564,4.3912,4.0219,3.7466,3.5354,3.3058,3.0744,2.857,2.7601,2.6658,2.5462,2.2624,0.0,0.0,0.0,0.0,0.0,0.0,0.0,0.0,0.0,0.0,0.0,0.0,0.0,0.0,0.0,0.0,0.0,0.0,0.0,0.0,0.0,0.0,0.0,0.0,3.6078,4.0362,4.2468,4.3343,4.4508,4.6387,4.6633,4.6633,4.6633,4.7477,4.7945,4.7837,4.9415,5.047,5.0645,5.0205,4.9802,4.9486,4.8795,4.7866,4.6683,4.6765,4.6363,4.55,4.5196,4.4941,4.4759,4.504,4.4675,4.3862,4.4792,4.4362,4.3026,4.3391,4.3136,4.235,0.0,0.0,0.0,0.0,3.6485,3.6107,0.0,0.0,0.0,0.0,0.0,0.0,0.0,2.0029,1.9713,1.9173,2.1434,2.3102,2.3181,2.5479,2.6842,2.6497,2.6744,2.6832,2.6727,2.8227,2.9458,3.0144,3.1752,3.3592,3.5738,3.6708,3.7637,3.8565,3.9472,4.0255,4.0976,4.1884,4.2646,4.3258,4.3355,4.3797,4.4432,4.3792,4.4386,4.5671,4.4116,4.2197,3.9948,3.6986,3.5474,3.4656,3.2466,3.0779,2.9236,2.6989,0.0,0.0,0.0,0.0,0.0,0.0,0.0,0.0,0.0,0.0,0.0,0.0,0.0,0.0,0.0,0.0,0.0,0.0,0.0,0.0,0.0,0.0,0.0,0.0,3.9732,4.4086,4.8347,4.7925,4.743,4.7988,4.8037,4.8037,4.8037,4.9127,4.9348,4.8148,4.9781,5.0554,4.9919,4.9879,0.0,0.0,0.0,4.7682,4.6921,4.6921,4.687,4.6786,4.6143,4.6062,4.6479,4.5733,4.5605,4.6074,4.5986,4.5499,4.4837,4.4745,4.4196,4.3232,4.1647,4.0498,3.9593,3.7614,3.6857,3.6671,0.0,0.0,0.0,0.0,0.0,0.0,0.0,2.0039,1.9762,1.9173,2.1023,2.2268,2.1918,2.344,2.4798,2.5588,2.5261,2.5709,2.7305,2.8222,2.9668,3.1819,3.3159,3.5007,3.7467,3.8436,3.9359,4.0236,4.1265,4.1796,4.1884,4.3453,4.4203,4.4261,4.4951,4.5372,4.5507,4.5411,4.5563,4.5861,4.544,4.4206,4.2408,4.1039,3.9602,3.8191,3.7037,3.6695,3.6159,3.2109,3.0898,3.0482,2.6926,0.0,0.0,0.0,0.0,0.0,0.0,0.0,0.0,0.0,0.0,0.0,0.0,0.0,0.0,0.0,0.0,0.0,0.0,0.0,0.0,3.9932,4.4745,4.8652,5.0253,5.0346,4.992,4.8914,4.8798,4.8798,4.8798,4.9023,4.9101,4.8798,4.9188,4.9376,4.9212,4.9212,4.9144,4.8991,4.8843,4.8443,4.7699,4.7699,4.7394,4.6786,4.665,0.0,4.5881,4.6184,4.5982,4.5427,4.5906,4.5981,4.5626,4.4984,4.398,4.277,4.1937,4.0902,3.9645,3.821,3.7313,3.6671,0.0,0.0,0.0,0.0,0.0,0.0,0.0,1.9896,1.9794,1.9654,2.1111,2.2122,2.2056,2.3433,2.4493,2.4811,2.4811,2.5726,2.7955,2.9425,3.1224,3.3505,3.5488,3.7408,3.921,3.9711,4.0423,4.1347,4.1888,4.2573,4.3418,4.4292,4.489,4.522,4.5643,4.5854,4.5874,4.5973,4.6005,4.6003,4.5956,4.538,4.4491,4.3932,4.3181,4.2277,4.1008,4.0089,3.8957,3.5702,3.4167,3.3162,3.0636,2.761,2.4667,0.0,0.0,0.0,0.0,0.0,0.0,0.0,0.0,0.0,0.0,0.0,0.0,0.0,0.0,3.0432,0.0,0.0,4.04,4.3646,4.7551,5.0488,5.1393,5.1556,5.1228,5.0214,4.945,4.9137,4.9509,4.9221,4.9001,4.9001,4.9001,4.9001,4.9001,4.9001,4.9001,4.9001,4.9001,4.8832,4.846,4.846,4.8274,4.7902,4.753,4.7114,4.673,4.6993,4.684,4.6338,4.7032,4.7044,4.6416,4.5204,4.4071,4.305,4.2462,4.1478,4.0216,3.9233,3.8223,3.7229,0.0,0.0,0.0,0.0,0.0,0.0,0.0,1.9769,1.975,1.9925,2.0944,2.1736,2.197,2.3254,2.4143,2.4327,2.4662,2.5973,2.8616,3.054,3.2564,3.4845,3.7412,3.9318,4.0392,4.0585,4.1081,4.1959,4.2306,4.3241,4.4663,4.4841,4.5275,4.5896,4.5921,4.5944,4.5955,4.6072,4.6152,4.6138,4.6116,4.6035,4.5892,4.5526,4.5355,4.5105,4.3205,4.128,3.9319,3.7379,3.5652,3.4161,3.3421,3.1417,2.8778,2.5742,2.388,0.0,0.0,0.0,0.0,0.0,0.0,0.0,0.0,0.0,3.0442,3.2769,3.38,3.5142,3.7978,4.0724,4.365,4.6902,4.9586,5.1517,5.22,5.2159,5.1996,5.164,5.0145,4.945,5.0028,4.9463,4.9001,4.9001,4.9137,4.9154,4.9018,4.9137,4.9154,4.9001,4.9001,4.9001,4.9001,4.9001,4.9001,4.9001,4.8409,4.7979,4.773,4.7741,4.7608,4.7463,4.8186,4.7852,4.6783,4.548,4.4378,4.3444,4.2902,4.2021,4.1,4.0117,3.9129,3.8146,0.0,0.0,0.0,0.0,0.0,0.0,0.0,0.0,1.9485,1.9111,1.9687,2.0061,1.9787,2.0615,2.2066,2.4268,2.4204,2.5592,2.9251,3.0254,3.2142,3.5287,3.7317,3.8939,4.0123,4.0841,4.1418,4.1816,4.3429,4.4322,4.453,4.5377,4.5819,4.5905,4.6016,4.608,4.6091,4.6223,4.6283,4.6265,4.6156,4.6096,4.5969,4.4987,4.4545,4.4107,4.1471,3.9391,3.7585,3.5714,3.487,3.4714,3.5133,3.3466,3.1099,2.9704,0.0,2.4313,2.247,2.2758,0.0,2.5869,2.712,2.9449,0.0,0.0,3.7476,4.2132,4.3722,4.462,4.5698,4.7952,4.9786,5.0259,5.1765,5.2962,5.3066,5.249,5.2336,5.2916,5.1173,4.9896,4.9982,4.9411,4.9001,4.9001,4.961,4.9678,4.9035,4.961,4.9678,4.9018,4.9001,4.9001,4.9001,4.9001,4.9001,4.9001,4.8917,4.8555,4.787,4.7722,4.7666,4.7619,4.8115,4.7441,4.6012,4.5847,4.4874,4.3444,4.2902,4.2302,4.1533,4.0279,3.9697,3.9301,0.0,0.0,0.0,0.0,0.0,0.0,0.0,0.0,0.0,0.0,2.0024,2.0246,2.0374,2.152,2.2893,2.4432,2.4302,2.566,2.9296,3.0485,3.2612,3.6045,3.8018,3.9513,4.0495,4.0846,4.1646,4.2951,4.3722,4.4489,4.5274,4.566,4.5857,4.5904,4.5957,4.5976,4.5997,4.6036,4.6113,4.6183,4.6124,4.5802,4.518,4.3685,4.2041,4.0417,3.9231,3.7274,0.0,0.0,3.2732,3.2565,3.3111,3.2331,3.0934,2.9457,2.7852,0.0,2.6809,0.0,0.0,0.0,3.3574,3.5533,3.9294,4.0714,4.1994,4.4818,4.6049,4.715,4.8948,5.0105,5.1114,0.0,5.2766,5.3206,5.3206,5.2535,5.1853,5.1338,4.9728,4.8994,4.9894,4.9026,4.8376,4.8376,4.9035,4.9323,4.9018,4.9289,4.9323,4.9018,4.9001,4.9001,4.9001,4.9001,4.9001,4.9001,4.9001,4.86,4.7815,4.7779,4.7744,4.7599,4.7728,4.7065,4.5902,4.5902,4.4947,4.3479,4.325,4.2808,4.2167,4.0919,3.9962,3.917,0.0,0.0,0.0,0.0,0.0,0.0,0.0,0.0,0.0,0.0,2.0065,2.0259,2.0795,2.2192,2.3406,2.4189,2.4219,2.5508,2.8649,2.9801,3.1922,3.5417,3.7344,3.8952,4.0318,4.0574,4.1567,4.3331,4.3425,4.398,4.4919,4.503,4.5244,4.5517,4.5556,4.5692,4.5906,4.5906,4.583,4.5718,4.5704,4.4937,4.3554,4.1722,3.95,3.7256,3.6604,3.4571,0.0,0.0,3.0233,3.0051,3.088,3.0872,3.0297,2.8956,2.7978,2.7798,2.9711,0.0,0.0,3.662,3.8962,4.0793,4.2603,4.4004,4.5305,4.6636,4.7388,4.8343,5.0105,5.0453,5.093,5.2325,5.2546,5.2637,5.2839,5.2179,5.1151,4.9727,4.8072,4.7407,4.841,4.7762,4.7479,4.7885,4.8595,4.9001,4.9001,4.9187,4.9204,4.9018,4.9001,4.9001,4.9001,4.9001,4.9001,4.9001,4.8798,4.8345,4.7739,4.7643,4.7427,4.7262,4.7357,4.6708,4.568,4.5847,4.4947,4.3479,4.3142,4.279,4.2302,4.1105,4.0203,3.9384,0.0,0.0,0.0,0.0,0.0,0.0,0.0,0.0,0.0,0.0,0.0,0.0,0.0,2.1498,2.2636,2.3379,2.3726,2.4866,2.7121,2.7549,2.9216,3.2571,3.4286,3.6394,3.9095,3.9974,4.0985,4.2152,4.2474,4.2658,4.2697,4.3097,4.3722,4.4547,4.4682,4.518,4.589,4.589,4.5445,4.4739,4.4735,4.329,4.0918,3.9027,3.7331,3.5679,3.3522,0.0,2.8459,2.7913,2.7574,2.77,2.9418,2.9846,0.0,2.9273,2.7908,2.7129,0.0,0.0,3.5063,3.8633,4.1747,4.4375,4.5998,4.6681,4.748,4.9132,4.9499,4.9517,4.9536,4.9572,4.9903,5.0747,5.0875,5.1151,5.1922,5.1334,5.0328,4.8912,4.6749,4.5182,0.0,4.5357,4.6363,4.7817,4.8595,4.9001,4.9001,4.9678,4.9729,4.9018,4.9001,4.9001,4.9001,4.9001,4.9001,4.9001,4.8291,4.7919,4.7894,4.7017,4.655,4.6466,4.7106,4.6483,4.5062,4.568,4.4947,4.341,4.2266,4.1835,4.1682,4.0563,4.0449,4.0642,0.0,0.0,0.0,0.0,0.0,0.0,0.0,0.0,0.0,0.0,0.0,0.0,0.0,0.0,0.0,0.0,2.2082,2.3203,2.6383,2.6662,2.7989,3.0965,3.2705,3.4544,3.6552,3.7313,3.8488,4.0195,4.0453,4.0718,4.0941,4.1255,4.1873,4.2703,4.2525,4.2929,4.3656,4.3082,4.3368,4.4008,4.1434,4.0984,4.141,3.7305,3.5373,3.4514,0.0,0.0,2.9505,2.8431,2.7942,2.7729,2.7457,2.7512,2.768,2.783,2.8596,3.013,3.3332,0.0,3.9566,4.3254,4.5937,4.7822,4.8367,4.881,4.8863,4.8106,4.7192,4.6459,4.6187,4.5998,4.6361,4.7883,4.9244,5.0335,5.1106,5.0967,4.9889,4.7386,4.5605,0.0,0.0,0.0,0.0,4.5618,4.6836,4.775,4.8257,4.8968,4.9255,4.9018,4.8545,4.8528,4.9001,4.8528,4.8528,4.8984,4.7767,4.6921,4.6413,4.5648,4.5373,4.5623,4.6387,4.5989,4.4856,4.559,4.4947,4.341,4.2675,4.24,4.2262,4.1059,4.075,4.0753,0.0,0.0,0.0,0.0,0.0,0.0,0.0,0.0,0.0,0.0,0.0,0.0,0.0,0.0,0.0,0.0,0.0,2.2611,2.5231,2.528,2.6279,2.8743,3.0213,3.1881,3.3833,3.4549,3.5671,3.7227,3.7296,3.7459,3.768,3.7682,3.8143,3.8969,3.8668,3.9033,3.9814,3.9257,4.0082,4.1572,3.9065,3.9004,4.0045,3.6303,3.4674,0.0,0.0,3.1262,3.1428,2.8937,2.8217,2.818,2.704,2.6782,2.715,2.8296,3.0163,3.2751,3.6882,4.0169,4.3276,4.668,4.8542,4.9504,4.9504,4.9249,4.8476,4.6647,4.5171,4.389,4.286,4.2584,4.3173,4.5195,4.6774,4.8217,4.9728,4.9664,4.8678,4.6553,4.524,4.4068,0.0,0.0,0.0,4.4152,4.5788,4.7005,4.7479,4.846,4.9001,4.9001,4.8545,4.8528,4.9001,4.8291,4.7885,4.7817,4.6853,4.6007,4.528,4.4519,4.4314,4.4565,4.5085,4.4831,4.4136,4.4872,4.4528,4.3444,4.2902,4.2711,4.2577,4.1578,4.1223,4.1108,0.0,0.0,0.0,0.0,0.0,0.0,0.0,0.0,0.0,0.0,0.0,0.0,0.0,0.0,0.0,0.0,0.0,0.0,2.3672,2.3432,2.4096,2.5993,2.6889,2.8496,3.1064,3.1845,3.2648,3.3515,3.3332,3.3199,3.3142,3.2811,3.3123,3.3945,3.3798,3.4222,3.502,3.499,3.6103,3.7829,3.7632,3.7397,3.7035,3.5862,3.5047,3.4252,0.0,0.0,0.0,0.0,0.0,0.0,0.0,2.7924,2.8332,3.0826,3.2735,3.5169,4.0421,4.3599,4.6089,4.8798,4.9539,4.9589,4.9466,4.8211,4.6612,4.5039,4.3556,4.1956,0.0,0.0,4.049,4.2625,4.3725,4.5168,4.786,4.7664,4.6996,0.0,0.0,0.0,0.0,0.0,0.0,4.3501,4.5506,4.6794,4.6844,4.8206,4.8984,4.8951,4.8951,4.8934,4.8883,4.8206,4.7141,4.5703,4.5669,4.528,4.4553,4.3741,4.3369,4.3461,4.3371,4.3203,4.303,4.367,4.3778,4.3444,4.2902,4.2711,4.2655,4.2021,4.181,4.1682,0.0,0.0,0.0,0.0,0.0,0.0,0.0,0.0,0.0,0.0,0.0,0.0,0.0,0.0,0.0,0.0,0.0,0.0,2.2723,2.1821,2.2172,2.426,2.4752,2.6088,2.8489,2.9314,3.0129,3.0932,3.1782,3.1854,3.1258,3.2727,3.3861,3.4668,3.5325,3.6083,3.6799,3.6288,3.7093,3.8443,3.5483,3.5771,3.7616,3.4217,3.3632,0.0,0.0,0.0,0.0,0.0,0.0,0.0,0.0,3.2184,3.3147,3.574,3.8118,4.0652,4.3987,4.6644,4.8798,5.0183,5.0677,5.0461,4.8947,4.7704,4.6176,4.3653,4.1286,3.9112,0.0,0.0,0.0,4.0113,4.281,0.0,4.7145,4.8306,0.0,4.7051,0.0,4.5689,4.4952,4.4955,0.0,0.0,4.5667,4.6866,4.7434,4.8439,4.8748,4.8206,4.8189,4.7936,4.7361,4.7175,4.6616,4.5703,4.5128,4.4773,4.4536,4.3183,4.3391,4.4708,4.4126,4.4036,4.4252,4.4418,4.4107,4.3444,4.2902,4.2939,4.316,4.2185,4.2062,4.2342,0.0,0.0,0.0,0.0,0.0,0.0,0.0,0.0,0.0,0.0,0.0,0.0,0.0,0.0,0.0,0.0,0.0,0.0,0.0,2.1414,2.1604,2.2799,2.307,2.3991,2.5733,2.6281,2.6957,2.7743,2.8611,2.881,2.839,2.9737,3.0419,3.0559,3.1457,3.1903,3.1972,3.1981,3.3247,0.0,0.0,3.3958,3.5884,3.348,3.2734,0.0,0.0,0.0,0.0,0.0,0.0,3.3481,3.5344,3.6216,3.7141,4.0147,0.0,4.478,4.7049,4.9199,5.0809,5.0894,5.0581,4.982,4.8067,4.647,4.4491,4.1253,3.8871,0.0,3.4347,0.0,0.0,0.0,0.0,0.0,4.5699,4.7168,4.7884,0.0,4.7378,0.0,4.7074,4.7132,4.7017,0.0,4.7192,4.7455,4.7159,4.8592,4.8924,4.7848,4.7895,4.7394,4.6329,4.5991,4.5449,4.4705,4.4265,4.3893,4.3538,4.2675,4.2706,4.344,4.2923,4.2967,4.3478,4.4087,4.4017,4.3552,4.3962,4.3871,4.3446,4.317,4.3041,4.3014,0.0,0.0,0.0,0.0,0.0,0.0,0.0,0.0,0.0,0.0,0.0,0.0,0.0,0.0,0.0,0.0,0.0,0.0,0.0,0.0,0.0,2.1715,2.1731,2.2215,2.3252,2.3472,2.3981,2.4769,2.5266,2.557,2.5651,2.6144,2.6026,2.5449,2.6339,2.6333,2.5685,2.6486,2.8223,3.0521,3.1265,3.2166,3.3044,0.0,0.0,0.0,0.0,0.0,0.0,0.0,3.5346,3.4445,3.8565,3.9974,4.074,4.4002,4.6149,4.7793,4.94,5.0961,5.1911,5.1018,4.9851,4.845,4.6751,4.4603,4.1937,3.8327,0.0,3.4644,3.1824,3.2538,3.3962,3.522,0.0,4.0596,4.4105,4.5421,4.6544,4.8033,4.829,4.8695,4.9538,4.9481,4.9462,4.9572,4.9181,4.8265,4.6755,4.868,4.917,4.7761,4.7527,4.6853,4.5568,4.4807,4.4028,4.3267,4.3166,4.2828,4.2286,4.2172,4.1937,4.1563,4.1254,4.1596,4.24,4.3408,4.3779,4.3773,4.5076,4.4782,4.3736,4.4452,4.4268,4.3663,0.0,0.0,0.0,0.0,0.0,0.0,0.0,0.0,0.0,0.0,1.9295,1.9152,0.0,0.0,0.0,0.0,0.0,0.0,0.0,0.0,0.0,0.0,2.0682,2.1041,2.2532,2.2823,2.3343,2.4151,2.5093,2.5688,2.597,2.7182,2.7865,2.8097,2.912,2.9566,2.9557,2.9868,3.0271,3.0741,3.0839,3.1034,3.1171,0.0,0.0,0.0,0.0,0.0,0.0,0.0,3.5545,3.7605,4.1108,4.3193,4.4732,4.6735,4.8274,4.9412,4.9844,5.0619,5.1125,5.0351,4.9282,4.7665,4.4741,4.1687,0.0,0.0,3.4514,3.3142,3.1645,3.3347,3.5173,3.5847,0.0,0.0,0.0,0.0,4.675,0.0,0.0,0.0,0.0,0.0,0.0,0.0,4.9504,4.9065,4.8183,4.8635,4.854,4.7726,4.6067,4.5026,4.4773,4.3995,4.3234,4.2472,4.188,4.183,4.2289,4.1488,4.2067,4.3575,4.2745,4.3454,4.5113,4.4016,4.3923,4.4452,4.4066,4.414,4.4525,4.4654,4.4617,4.4599,0.0,0.0,0.0,0.0,0.0,0.0,0.0,1.8198,1.8528,1.9522,1.9737,1.9579,1.9077,1.89,1.8841,0.0,0.0,0.0,0.0,0.0,0.0,0.0,0.0,0.0,0.0,2.1605,2.1935,2.2758,0.0,2.4027,2.4657,2.5522,2.6285,2.6966,2.7602,2.7945,2.8041,2.8589,2.8795,2.8816,2.9231,2.9156,0.0,0.0,0.0,0.0,0.0,0.0,0.0,0.0,3.516,3.7186,4.1669,4.435,4.6032,4.6931,4.8701,5.0303,4.9978,5.0786,5.1523,5.072,4.8752,4.6273,4.3503,0.0,0.0,0.0,3.4357,3.3421,3.1549,0.0,0.0,0.0,0.0,0.0,0.0,0.0,0.0,0.0,0.0,0.0,0.0,0.0,4.9697,5.0126,5.0589,5.012,4.8498,4.7821,4.7219,4.6585,4.4889,4.3792,4.3403,4.2642,4.2083,4.1728,4.1699,4.185,4.2276,4.2492,4.3135,4.4121,4.4007,4.4551,4.5455,4.4931,4.4727,4.4709,4.4745,4.447,4.4121,4.4562,4.4452,4.4121,0.0,0.0,0.0,0.0,0.0,0.0,0.0,1.8442,1.8893,2.0077,2.0314,2.0216,1.9799,1.9257,1.8906,0.0,0.0,0.0,0.0,0.0,0.0,0.0,0.0,0.0,0.0,0.0,0.0,0.0,2.1633,0.0,0.0,0.0,0.0,0.0,0.0,0.0,2.543,2.6128,2.65,0.0,0.0,0.0,0.0,0.0,0.0,0.0,0.0,0.0,0.0,0.0,3.399,3.5174,4.0336,4.3485,4.5399,4.6026,4.7976,4.9894,4.9695,5.0731,5.1617,5.0595,4.7791,4.466,4.2302,3.9444,0.0,0.0,3.4103,3.3543,3.1361,0.0,0.0,0.0,0.0,0.0,0.0,0.0,0.0,0.0,0.0,0.0,0.0,0.0,0.0,5.0681,5.1183,5.0665,4.8809,4.7396,4.6312,4.5688,4.4423,4.3338,4.2416,4.1835,4.1459,4.1305,4.1825,4.2044,4.2172,4.3438,4.4102,4.4146,4.4768,4.5185,4.5515,4.5608,4.5369,4.5002,4.5461,4.4874,4.3828,4.447,4.4356,4.3873,0.0,0.0,0.0,0.0,0.0,0.0,0.0,1.8156,1.8778,2.0743,2.0955,2.0841,2.0604,2.0008,1.9353,0.0,0.0,0.0,0.0,0.0,0.0,0.0,0.0,0.0,0.0,0.0,0.0,2.069,0.0,0.0,0.0,0.0,0.0,0.0,0.0,0.0,0.0,2.4506,0.0,0.0,0.0,0.0,0.0,0.0,0.0,0.0,0.0,0.0,0.0,0.0,0.0,3.2267,3.6312,3.9599,4.2361,4.4581,0.0,0.0,4.8653,4.9759,5.0105,4.8579,4.5881,4.2984,4.0583,0.0,0.0,3.272,3.2265,3.193,3.1049,3.2145,0.0,0.0,0.0,3.7616,0.0,0.0,0.0,0.0,0.0,0.0,0.0,0.0,4.9889,5.0644,5.0078,4.9833,5.0014,4.8287,4.6975,4.6169,4.5389,4.4307,4.289,4.2802,4.2414,4.1744,4.1788,4.1831,4.1892,4.3297,4.3917,4.3974,4.4491,4.5572,4.6818,4.5388,4.5204,4.5718,4.5076,4.4727,4.4617,4.4672,4.4841,4.5164,0.0,0.0,0.0,0.0,0.0,0.0,1.8451,1.8667,1.9281,2.0855,2.12,2.1217,2.1009,2.0372,1.9383,1.8036,0.0,0.0,0.0,0.0,0.0,0.0,0.0,0.0,0.0,0.0,0.0,1.9763,1.9955,0.0,0.0,0.0,0.0,0.0,0.0,0.0,0.0,0.0,0.0,0.0,0.0,0.0,0.0,0.0,0.0,0.0,0.0,0.0,0.0,0.0,0.0,0.0,3.255,3.4426,0.0,0.0,4.2986,4.5024,4.5631,4.705,4.83,4.7933,4.4606,4.105,3.9643,0.0,3.3063,3.2212,3.209,3.2035,3.1745,3.2678,3.391,0.0,0.0,0.0,0.0,0.0,0.0,0.0,0.0,0.0,0.0,0.0,5.0726,5.1587,5.0707,5.0174,5.0361,4.8261,4.6679,4.5933,4.4539,4.3306,4.2271,4.2448,4.2396,4.2109,4.2459,4.29,4.3371,4.4088,4.4637,4.513,4.5334,4.5898,4.6604,4.5456,4.5324,4.5749,4.4957,4.464,4.464,4.464,4.4733,4.495,0.0,0.0,0.0,0.0,0.0,1.7321,1.8378,1.8582,1.9119,2.0479,2.1052,2.1239,2.1155,2.0921,1.9952,1.7964,1.8106,0.0,0.0,0.0,0.0,0.0,0.0,0.0,0.0,0.0,1.8912,1.9081,1.9283,1.9811,0.0,0.0,0.0,0.0,0.0,0.0,0.0,0.0,0.0,0.0,0.0,0.0,0.0,0.0,0.0,0.0,0.0,0.0,0.0,0.0,0.0,0.0,0.0,0.0,0.0,0.0,3.9855,4.2256,4.3015,4.4595,4.6076,4.6272,4.2825,3.917,0.0,0.0,3.2767,3.2075,3.2223,3.2412,3.208,3.2861,3.3888,3.4927,0.0,3.5256,0.0,0.0,0.0,0.0,0.0,0.0,0.0,5.0603,5.1215,5.1837,5.1101,5.0491,5.0177,4.8197,4.6679,4.5863,4.4523,4.3471,4.2705,4.2953,4.3051,4.3078,4.3509,4.3989,4.4542,4.4945,4.5404,4.5973,4.5956,4.6246,4.6609,4.5786,4.5631,4.5827,4.527,4.49,4.4669,4.4642,4.4741,4.4877,0.0,0.0,0.0,0.0,0.0,0.0,1.7818,1.7509,1.7862,1.9681,2.0416,2.0873,2.0998,2.1776,2.1309,1.8905,1.862,0.0,0.0,0.0,0.0,0.0,0.0,0.0,0.0,0.0,1.8531,1.8807,1.8998,1.9237,1.954,2.0609,2.075,2.0216,0.0,0.0,0.0,0.0,0.0,0.0,0.0,0.0,0.0,0.0,0.0,0.0,0.0,0.0,0.0,0.0,0.0,0.0,0.0,0.0,0.0,0.0,3.68,3.8485,4.1337,4.2769,4.3339,4.296,4.0273,3.7424,0.0,0.0,3.345,3.2258,3.2526,3.2709,3.1774,3.2205,3.2921,3.3621,3.4981,0.0,0.0,0.0,0.0,0.0,0.0,0.0,0.0,4.9921,5.1043,5.0917,5.0898,5.0469,4.9452,4.8242,4.7129,4.6156,4.6067,4.5698,4.4867,4.4884,4.4891,4.4889,4.4889,4.4888,4.492,4.5709,4.611,4.6094,4.6102,4.6544,4.724,4.6421,4.6097,4.6111,4.6092,4.5601,4.4865,4.4751,4.4948,4.5265,0.0,0.0,0.0,0.0,0.0,0.0,0.0,1.7777,1.8038,1.8896,1.9183,1.9333,1.9486,1.9624,1.9469,1.8888,1.8572,0.0,0.0,0.0,0.0,0.0,0.0,0.0,0.0,0.0,1.8005,1.8336,1.8513,1.8806,1.9193,2.0924,2.1073,1.9969,2.1845,0.0,0.0,0.0,0.0,0.0,0.0,0.0,0.0,0.0,0.0,0.0,0.0,0.0,0.0,0.0,0.0,0.0,0.0,0.0,0.0,0.0,0.0,0.0,3.6883,3.8182,3.9184,3.9296,3.7229,3.5095,3.4838,3.2649,3.051,2.9985,3.0011,3.02,3.0404,3.107,3.2223,3.4099,3.4786,0.0,0.0,0.0,0.0,0.0,0.0,0.0,0.0,0.0,5.084,5.0204,5.0713,5.0119,4.8012,4.7893,4.7379,4.6264,4.5478,4.4949,4.4696,4.4692,4.4819,4.5021,4.4802,4.4822,4.5045,4.5067,4.5079,4.5079,4.5064,4.5359,4.5766,4.551,4.5541,4.5763,4.5763,4.546,4.5021,4.4991,4.4937,4.4875,0.0,0.0,0.0,0.0,0.0,0.0,0.0,1.7395,1.7535,1.782,1.7943,1.8185,1.8604,1.8784,1.8909,1.8979,1.8335,0.0,0.0,0.0,0.0,0.0,0.0,0.0,0.0,1.7415,1.7641,1.7915,1.8173,1.8492,1.8913,2.0618,2.0798,1.9806,2.1659,2.1598,0.0,0.0,0.0,0.0,0.0,0.0,2.2172,0.0,0.0,0.0,0.0,0.0,0.0,0.0,0.0,0.0,0.0,0.0,0.0,0.0,2.9324,0.0,0.0,3.432,3.5142,3.5529,3.4077,0.0,0.0,3.07,2.9137,2.8665,2.8801,2.9128,2.9563,3.029,3.1431,3.3245,3.3808,0.0,0.0,0.0,0.0,0.0,0.0,0.0,0.0,4.9435,4.9628,4.8916,4.9351,4.8793,4.6768,4.6809,4.6383,4.5345,4.4941,4.4616,4.4413,4.442,4.4408,4.4382,4.4411,4.4519,4.472,4.4718,4.4719,4.4719,4.4719,4.4722,0.0,4.4715,4.4841,4.5026,4.5026,4.4904,4.4735,4.4677,4.4402,4.404,0.0,0.0,0.0,0.0,0.0,0.0,0.0,1.6554,1.653,1.6578,1.6879,1.7345,1.8125,1.8824,1.9168,1.8909,0.0,0.0,0.0,0.0,0.0,0.0,0.0,0.0,1.6821,1.7118,1.7344,1.7566,1.7949,1.8363,1.8786,1.9992,2.0273,1.9841,2.1601,2.1524,0.0,0.0,0.0,0.0,0.0,0.0,0.0,0.0,0.0,0.0,0.0,0.0,0.0,0.0,0.0,0.0,0.0,0.0,0.0,0.0,0.0,0.0,0.0,0.0,0.0,0.0,0.0,0.0,0.0,2.9082,0.0,2.8095,2.8564,2.9094,2.9038,2.9687,3.0515,3.1379,3.22,0.0,0.0,0.0,0.0,0.0,0.0,0.0,4.5073,4.6814,4.772,4.7162,4.7199,4.675,4.5658,4.5148,4.4476,4.3559,4.4233,4.4397,4.4002,4.3986,4.3707,4.3161,4.3725,4.3958,4.4003,4.4527,4.4734,4.4734,4.4734,4.4464,4.4021,4.4021,4.4017,4.4003,4.4003,4.3983,4.3952,4.3826,4.3433,4.2904,0.0,0.0,0.0,0.0,0.0,0.0,0.0,0.0,0.0,0.0,1.6533,1.6412,1.6202,1.6701,1.6961,0.0,0.0,0.0,0.0,0.0,0.0,0.0,0.0,0.0,1.5991,1.666,1.7025,1.706,1.8232,1.9001,1.9432,2.1295,2.186,2.1408,2.2609,2.2344,0.0,0.0,0.0,0.0,0.0,0.0,0.0,0.0,0.0,0.0,2.3248,2.3851,0.0,0.0,0.0,0.0,0.0,0.0,0.0,0.0,2.5683,2.5924,2.6688,0.0,2.9011,2.9182,2.893,2.8613,0.0,0.0,0.0,0.0,0.0,0.0,0.0,2.8027,2.9118,0.0,0.0,0.0,0.0,0.0,0.0,0.0,0.0,4.5617,4.5687,4.6664,4.6826,4.5623,4.6109,4.5593,4.3592,4.3776,4.3248,4.1851,4.168,4.2088,4.3109,4.285,4.2777,4.2904,4.2776,4.2839,4.3116,4.3259,4.3296,4.3296,4.3296,4.3203,4.3109,4.3109,4.31,4.3116,4.3116,4.2965,4.2722,4.2703,4.2411,4.2092,0.0,0.0,0.0,0.0,0.0,0.0,0.0,0.0,0.0,0.0,0.0,1.5896,1.5477,1.5879,0.0,0.0,0.0,0.0,0.0,0.0,0.0,0.0,0.0,1.6297,1.5936,1.6381,1.6701,1.685,1.8234,1.9121,1.9566,2.1644,2.2355,2.1884,2.2181,2.1864,0.0,0.0,0.0,0.0,2.0047,0.0,0.0,0.0,0.0,0.0,2.411,2.445,0.0,2.5544,2.5769,2.5503,0.0,0.0,0.0,0.0,2.5253,2.5367,2.5441,2.619,2.6985,2.7036,2.7027,2.6994,0.0,0.0,0.0,0.0,0.0,0.0,0.0,0.0,0.0,0.0,0.0,0.0,0.0,0.0,0.0,0.0,0.0,4.3844,0.0,4.4642,4.4521,4.3615,4.3578,4.3077,4.1862,4.149,4.0897,4.004,3.9547,3.9842,4.0883,4.0699,4.0582,4.0495,4.0582,4.0699,4.0883,4.1155,4.128,4.128,4.128,4.1138,4.0883,4.0883,4.1064,4.1381,4.1004,4.0981,4.1113,4.076,4.0341,3.9949,0.0,0.0,0.0,0.0,0.0,0.0,0.0,0.0,0.0,0.0,0.0,0.0,0.0,0.0,0.0,0.0,0.0,0.0,0.0,0.0,0.0,0.0,0.0,1.6181,1.6053,1.6254,1.6495,1.6871,1.8244,1.9192,1.9737,2.1683,2.2437,2.2147,2.1477,2.1129,0.0,0.0,1.9601,0.0,2.0378,0.0,0.0,0.0,0.0,0.0,0.0,0.0,0.0,2.6666,2.6748,2.6167,2.5985,0.0,0.0,0.0,0.0,0.0,2.5341,2.5406,2.5467,2.5556,2.5562,2.5531,0.0,0.0,0.0,0.0,0.0,0.0,0.0,0.0,0.0,0.0,0.0,0.0,0.0,0.0,0.0,0.0,0.0,0.0,4.1812,4.1974,4.1877,4.1525,4.077,4.0246,4.0168,3.9087,3.8428,3.8302,3.7735,3.7546,3.7866,3.8302,3.8251,3.7822,3.8251,3.8482,3.8482,3.902,3.9244,3.9244,3.9244,3.8933,3.8482,3.8482,3.8907,3.9444,3.8731,3.8907,3.9393,3.8731,3.8212,3.7822,0.0,0.0,0.0,0.0,0.0,0.0,0.0,0.0,0.0,0.0,0.0,0.0,0.0,0.0,0.0,0.0,0.0,0.0,0.0,0.0,0.0,1.5667,1.587,1.5793,1.5443,1.6108,1.6702,1.721,1.8751,1.9984,2.1049,2.2382,2.3318,2.386,2.2532,2.1946,2.1882,2.0215,1.9532,1.9545,2.0005,0.0,0.0,0.0,0.0,0.0,0.0,0.0,0.0,2.5887,2.6212,2.6062,2.5324,0.0,0.0,0.0,0.0,0.0,2.5209,2.5212,2.5196,2.5398,2.5398,2.5329,0.0,0.0,0.0,0.0,0.0,0.0,0.0,0.0,0.0,0.0,0.0,0.0,0.0,0.0,0.0,0.0,0.0,4.1195,3.9975,4.0463,4.0654,4.0146,3.9378,3.8698,3.8277,3.8028,3.7626,3.6901,3.6044,3.5334,3.4714,3.6854,3.7889,3.7822,3.7889,3.793,3.793,3.8028,3.8068,3.8068,3.8068,3.8028,3.793,3.793,3.8003,3.8117,3.7987,3.8003,3.8117,3.8003,3.7905,3.7822,0.0,0.0,0.0,0.0,0.0,0.0,0.0,0.0,0.0,0.0,0.0,0.0,0.0,0.0,0.0,0.0,0.0,0.0,0.0,0.0,0.0,1.5448,1.5951,1.6158,1.6015,1.6361,1.6907,1.7685,1.8954,2.0225,2.1457,2.3133,2.4001,2.406,2.257,2.1895,2.1813,2.0159,1.9402,1.9399,0.0,0.0,0.0,0.0,0.0,0.0,0.0,0.0,0.0,0.0,2.6218,2.5822,2.5493,0.0,0.0,0.0,0.0,0.0,2.4987,2.5224,2.5305,2.4559,2.512,2.5945,0.0,0.0,0.0,0.0,0.0,0.0,0.0,0.0,0.0,0.0,0.0,0.0,0.0,0.0,0.0,0.0,0.0,3.8908,3.8583,3.8883,3.8994,3.8755,3.7988,3.7164,3.643,3.5965,3.5329,3.4478,3.4047,3.3585,3.3241,3.4382,3.5011,3.5011,3.5011,3.5011,3.5011,3.5011,3.5011,3.5011,3.5522,3.5728,3.5791,3.6322,3.6768,3.71,3.6707,3.6829,3.71,3.6707,3.6554,3.6554,0.0,0.0,0.0,0.0,0.0,0.0,0.0,0.0,0.0,0.0,0.0,0.0,0.0,0.0,0.0,0.0,0.0,0.0,0.0,0.0,1.5079,1.5285,1.5868,1.6358,1.665,1.6861,1.7451,1.8427,1.9372,2.0541,2.1883,2.3667,2.4275,2.3842,2.252,2.1934,2.1879,2.0503,1.9705,1.9447,0.0,0.0,0.0,0.0,0.0,0.0,0.0,0.0,0.0,0.0,0.0,0.0,0.0,0.0,0.0,2.5182,2.5017,2.5047,2.4998,2.5206,2.5224,2.4227,0.0,2.6026,0.0,0.0,0.0,0.0,0.0,0.0,0.0,0.0,0.0,0.0,0.0,0.0,0.0,0.0,3.5187,3.5951,3.6427,3.6674,3.6823,3.687,3.687,3.687,3.609,3.5314,3.4604,3.4023,3.3227,3.2266,3.1979,3.1906,3.1906,3.1688,3.192,3.2593,3.2593,3.2593,3.2593,3.2593,3.2593,3.2664,3.338,3.3671,3.3739,3.4758,3.5464,3.5978,3.5653,3.5846,3.6275,3.5429,3.5294,3.5439,0.0,0.0,0.0,0.0,0.0,0.0,0.0,0.0,0.0,0.0,0.0,0.0,0.0,0.0,0.0,0.0,0.0,0.0,0.0,0.0,1.4282,1.4916,1.5244,1.5837,1.6773,1.7592,1.8551,1.9758,2.0286,2.1344,2.2895,2.3804,2.3974,2.3508,2.2888,2.2662,2.2665,2.1808,2.0862,1.9971,2.046,0.0,0.0,0.0,0.0,0.0,0.0,0.0,0.0,0.0,0.0,0.0,0.0,0.0,2.6503,2.5671,2.5504,2.5559,2.5522,2.4986,2.4561,2.5189,0.0,0.0,0.0,0.0,0.0,0.0,0.0,0.0,0.0,0.0,0.0,0.0,0.0,0.0,0.0,0.0,3.5905,3.4382,3.5498,3.5829,3.4266,3.408,3.408,3.408,3.335,3.2862,3.2792,3.2735,3.2181,3.1143,3.0188,2.9745,2.9745,2.8827,2.9821,3.2593,3.2593,3.2593,3.2593,3.2593,3.2593,3.2593,3.2664,3.2678,3.2749,3.3739,3.4163,3.4298,3.5133,3.5504,3.5474,3.4461,3.4691,3.5359,0.0,0.0,0.0,0.0,0.0,0.0,0.0,0.0,0.0,0.0,0.0,0.0,0.0,0.0,0.0,0.0,0.0,0.0,0.0,1.355,1.3653,1.4724,1.4969,1.5403,1.6214,1.7589,1.8937,2.0214,2.1796,2.2448,2.2199,2.3744,2.3944,2.3034,2.2558,2.2389,2.2437,2.1666,2.1008,2.0386,2.0035,1.9786,0.0,0.0,0.0,0.0,0.0,0.0,0.0,0.0,2.4042,2.3974,2.391,2.434,2.4839,2.4569,2.4499,2.4481,2.4518,2.4522,2.4342,2.3738,0.0,0.0,0.0,0.0,0.0,0.0,0.0,0.0,0.0,0.0,0.0,0.0,0.0,0.0,3.2503,3.2917,3.2854,3.2221,3.2958,3.3293,3.2593,3.2862,3.3017,3.3017,3.2778,3.2321,3.1742,3.1088,3.0226,2.9257,2.8171,2.7624,2.7624,2.7267,2.7968,2.9821,3.0506,3.0846,3.0846,3.0846,3.0846,3.0921,3.1476,3.1742,3.1815,3.2749,3.3449,3.4027,3.4394,3.4192,3.3685,3.3241,3.3394,3.3754,0.0,0.0,0.0,0.0,0.0,0.0,0.0,0.0,0.0,0.0,0.0,0.0,0.0,0.0,0.0,0.0,0.0,0.0,1.3646,1.2964,1.2982,1.3936,1.4312,1.4784,1.5487,1.728,1.8914,2.0255,2.2447,2.3042,2.2112,2.3419,2.3522,2.2626,2.2384,2.2383,2.2549,2.1919,2.1374,2.0813,1.9901,1.9593,0.0,0.0,0.0,0.0,0.0,0.0,0.0,0.0,2.3056,2.3129,2.3364,2.3697,2.3979,2.4024,2.4006,2.3992,2.4068,2.4109,0.0,0.0,0.0,0.0,0.0,0.0,0.0,0.0,0.0,0.0,0.0,0.0,0.0,0.0,0.0,3.0567,3.1361,3.1218,3.0865,3.0528,3.0829,3.1004,3.0926,3.1231,3.1481,3.1669,3.1349,3.0813,3.0072,2.9093,2.7937,2.6714,2.6065,2.5678,2.5513,2.5667,2.6318,2.7369,2.8694,2.9456,2.9792,2.9792,2.9792,2.9869,3.0482,3.0758,3.0833,3.1756,3.2749,3.3533,3.3533,3.3171,3.2522,3.2249,3.2321,3.2664,0.0,0.0,0.0,0.0,0.0,0.0,0.0,0.0,0.0,0.0,0.0,0.0,0.0,0.0,0.0,0.0,0.0,0.0,1.3331,1.2669,1.2327,1.2399,1.3173,1.3911,1.456,1.6746,1.8544,1.9886,2.1909,2.2886,2.2889,2.2802,2.2608,2.2286,2.2571,2.2893,2.3175,2.2832,2.2177,2.1208,2.0212,1.9621,1.9207,0.0,0.0,0.0,0.0,0.0,0.0,0.0,2.2605,2.279,2.2867,2.3535,2.4277,2.4277,2.4327,2.4396,2.4453,2.3806,0.0,0.0,0.0,0.0,0.0,0.0,0.0,0.0,0.0,0.0,0.0,0.0,0.0,2.7733,2.9218,3.0225,3.0012,3.0543,3.0582,2.9578,2.9508,2.9334,2.8925,2.885,2.9151,2.9741,2.8676,2.7937,2.7514,2.6852,2.5595,2.3524,2.3945,2.3966,2.3503,2.3966,2.4762,2.5813,2.7345,2.8676,2.9792,2.9792,2.9792,2.9792,2.9792,2.9792,2.9856,3.0833,3.1742,3.2593,3.2593,3.2593,3.2464,3.1536,3.1756,3.2464,0.0,0.0,0.0,0.0,0.0,0.0,0.0,0.0,0.0,0.0,0.0,0.0,0.0,0.0,0.0,0.0,0.0,0.0,1.2646,1.1962,1.183,1.2305,1.2577,1.296,1.3595,1.5593,1.7693,1.9915,2.1594,2.2018,2.131,2.2025,2.2036,2.1488,2.2022,2.2375,2.2546,2.2502,2.2221,2.1692,2.0689,2.0045,1.9571,0.0,0.0,0.0,0.0,0.0,0.0,0.0,0.0,0.0,2.2209,2.2511,2.2819,2.2819,2.2951,2.3093,2.318,0.0,0.0,0.0,0.0,0.0,0.0,0.0,0.0,0.0,0.0,0.0,0.0,0.0,0.0,2.7199,2.7569,2.7931,2.8343,2.8078,2.7721,2.7403,2.7748,2.7616,2.6809,2.7087,2.722,2.6962,2.6436,2.6163,2.6279,2.5062,2.41,2.3503,2.2941,2.2479,2.2349,2.2479,2.3094,2.4186,2.4984,2.6519,2.8597,2.9443,2.9792,2.9792,2.9792,2.9792,2.9856,3.0833,3.097,3.0709,3.1328,3.1193,3.057,3.0355,3.0432,3.0709,0.0,0.0,0.0,0.0,0.0,0.0,0.0,0.0,0.0,0.0,0.0,0.0,0.0,0.0,0.0,0.0,0.0,0.0,0.0,1.1569,1.1268,1.1575,1.1845,1.252,1.3641,1.5108,1.6692,1.8474,2.0068,2.0835,2.0775,2.1128,2.1177,2.0975,2.143,2.179,2.2022,2.1965,2.1849,2.1606,2.0603,2.019,2.0051,0.0,0.0,0.0,0.0,0.0,0.0,0.0,0.0,0.0,2.12,2.1545,2.1895,2.1895,2.1924,2.201,2.2108,0.0,0.0,0.0,0.0,0.0,0.0,0.0,0.0,0.0,0.0,0.0,0.0,2.6806,0.0,2.6837,2.6854,2.6869,2.7206,2.6578,2.6113,2.6113,2.6126,2.5895,2.5505,2.5612,2.5673,2.5566,2.4937,2.4579,2.4667,2.3486,2.2715,2.2347,2.1919,2.1543,2.1367,2.1533,2.1927,2.2613,2.346,2.4784,2.636,2.8246,2.8995,2.8864,2.9287,2.9578,2.9856,3.0419,3.0279,2.9869,3.0419,3.0279,2.9792,2.9792,2.9792,2.9856,0.0,0.0,0.0,0.0,0.0,0.0,0.0,0.0,0.0,0.0,0.0,0.0,0.0,0.0,0.0,0.0,0.0,0.0,0.0,0.0,1.0779,1.05,1.1201,1.2471,1.4386,1.5025,1.5627,1.6233,1.7899,1.938,2.0684,2.0065,2.0024,2.0516,2.0698,2.0975,2.1383,2.1198,2.1119,2.1022,2.0178,2.0176,2.0469,1.9108,0.0,0.0,0.0,0.0,0.0,0.0,0.0,0.0,2.0088,2.0647,2.1243,2.1291,2.1244,2.1212,0.0,0.0,0.0,0.0,0.0,0.0,0.0,0.0,0.0,0.0,0.0,0.0,0.0,2.6666,2.6161,2.6527,2.6633,2.6622,2.6375,2.5832,2.5519,2.5536,2.4742,2.4329,2.4673,2.4317,2.4301,2.477,2.3853,2.305,2.2595,2.202,2.1225,2.0342,2.0719,2.0808,2.0489,2.0887,2.1172,2.1182,2.2603,2.328,2.3381,2.6451,2.7613,2.7317,2.8285,2.8987,2.9551,2.9641,2.9551,2.9397,2.9614,2.9639,2.9639,2.9767,2.9792,2.9792,0.0,0.0,0.0,0.0,0.0,0.0,0.0,0.0,0.0,0.0,0.0,0.0,0.0,0.0,0.0,0.0,0.0,0.0,0.0,0.0,1.0806,1.0351,1.1589,1.3025,1.4602,1.463,1.4993,1.5742,1.7177,1.8001,1.8329,1.8607,1.8864,1.9163,1.9555,1.9723,1.9743,2.0283,2.0382,2.0181,2.0187,2.02,2.0208,2.002,2.0066,0.0,0.0,0.0,0.0,0.0,0.0,0.0,1.9406,1.9767,2.0083,2.0556,2.0942,2.115,0.0,0.0,0.0,0.0,0.0,0.0,0.0,0.0,0.0,0.0,0.0,0.0,2.5559,2.5338,2.5269,2.5737,2.5504,2.5197,2.5172,2.5031,2.4933,2.4981,2.4536,2.3826,2.2742,2.2564,2.2227,2.1669,2.1369,2.0997,2.0329,1.9901,1.9137,1.8069,1.8958,1.9454,1.9362,2.0253,2.0713,2.0713,2.1382,2.1669,2.177,2.4579,2.6186,2.6769,2.7007,2.7155,2.7339,2.8151,2.7602,2.6391,2.8307,2.8632,2.8118,2.9372,2.9792,2.9792,0.0,0.0,0.0,0.0,0.0,0.0,0.0,0.0,0.0,0.0,0.0,0.0,0.0,0.0,0.0,0.0,0.0,0.0,0.0,0.0,1.0469,1.0576,1.1955,1.3039,1.378,1.4182,1.452,1.484,1.6,1.6821,1.727,1.7401,1.7741,1.8209,1.8541,1.8731,1.8844,1.9266,1.9462,1.9477,1.9507,1.9681,1.9909,1.9856,1.9856,1.9869,1.9974,0.0,0.0,0.0,0.0,0.0,0.0,0.0,1.9219,1.9556,1.9946,2.0227,0.0,0.0,0.0,0.0,0.0,0.0,0.0,0.0,0.0,0.0,0.0,0.0,2.4959,2.4633,2.4607,2.5146,2.4778,2.4539,2.4738,2.4207,2.379,2.3794,2.2805,2.1842,2.104,2.0823,2.0521,2.0026,2.0137,1.986,1.8852,1.8946,1.8382,1.715,1.7806,1.823,1.823,1.8709,1.9274,1.9844,2.0071,2.0423,2.1007,2.3044,2.4692,2.5907,2.5652,2.5687,2.5995,2.6474,2.6095,2.5349,2.6629,2.6813,2.6527,2.7287,2.7859,2.8243,0.0,0.0,0.0,0.0,0.0,0.0,0.0,0.0,0.0,0.0,0.0,0.0,0.0,0.0,0.0,0.0,0.0,0.0,0.0,0.0,0.0,1.1239,1.2315,1.2872,1.2796,1.3864,1.4219,1.3775,1.4822,1.5726,0.0,1.6485,1.69,1.7576,1.7689,1.7867,1.8106,1.8313,1.8493,1.8698,1.866,1.8954,1.9449,1.9271,1.9336,1.9489,1.9588,1.8783,1.765,1.7552,0.0,0.0,0.0,0.0,1.8335,1.8529,1.8765,1.906,0.0,0.0,0.0,0.0,0.0,0.0,0.0,0.0,0.0,0.0,0.0,2.4418,2.4506,2.4155,2.4029,2.4594,2.4217,2.3978,2.4437,2.3382,2.2542,2.2586,2.1017,1.9885,1.9808,1.9464,1.9258,1.918,1.9561,1.9192,1.7942,1.8312,1.7874,1.6534,1.6748,1.6911,1.6911,1.7064,1.7658,1.8611,1.877,1.9418,2.0536,2.1727,2.3139,2.4658,2.4158,2.4214,2.4681,2.4835,2.4592,2.4204,2.4847,2.4792,2.4559,2.5048,2.5701,2.6375,0.0,0.0,0.0,0.0,0.0,0.0,0.0,0.0,0.0,0.0,0.0,0.0,0.0,0.0,0.0,0.0,0.0,0.0,1.2303,0.0,0.0,1.265,1.2844,1.2886,1.2802,1.3965,1.4033,1.2972,1.4032,0.0,0.0,0.0,0.0,1.7081,1.7008,1.6921,1.696,1.7625,1.776,1.7585,1.812,1.8422,1.8525,1.9016,1.9119,1.9038,1.9346,1.8913,1.8106,1.7543,1.699,0.0,0.0,0.0,1.6887,1.7809,1.8187,0.0,0.0,0.0,0.0,0.0,0.0,0.0,0.0,0.0,0.0,0.0,0.0,2.2799,2.3215,2.3301,2.3439,2.4017,2.364,2.324,2.3328,2.2527,2.2033,2.1989,2.0782,1.9784,1.9389,1.9364,1.9131,1.875,1.9121,1.8896,1.7784,1.702,1.6045,1.494,1.5063,1.5164,1.5164,1.6069,1.6765,1.7162,1.8038,1.8991,2.0,2.021,2.1055,2.2444,2.237,2.238,2.2519,2.3345,2.2185,2.0153,2.3242,2.3305,2.1997,2.4348,2.5249,2.5404,0.0,0.0,0.0,0.0,0.0,0.0,0.0,0.0,0.0,0.0,0.0,0.0,0.0,0.0,0.0,1.3163,1.2751,1.2405,1.2199,1.1732,1.1862,1.2844,1.3099,1.3322,1.3487,1.4101,1.4314,1.4033,0.0,0.0,0.0,1.6216,1.671,0.0,0.0,0.0,1.7441,1.8149,1.8329,1.8091,1.8177,1.8562,1.8984,1.8878,1.8927,1.9051,1.942,1.9022,1.8276,1.8204,1.7619,1.6833,1.6535,0.0,0.0,0.0,0.0,0.0,0.0,0.0,0.0,0.0,0.0,0.0,0.0,0.0,0.0,0.0,1.9911,2.0828,2.1995,2.2472,2.2761,2.3012,2.31,2.2967,2.2662,2.1958,2.1218,2.0718,1.9786,1.8967,1.8596,1.8547,1.8496,1.8301,1.8682,1.8371,1.718,1.6536,1.5607,1.4379,1.4101,1.3804,1.3698,1.4326,1.525,1.6544,1.7564,1.8573,1.9561,1.9561,2.0147,2.1231,2.1231,2.0904,2.0343,2.0787,1.9847,1.8238,1.979,1.9846,1.9245,2.1036,2.205,2.2583,0.0,0.0,0.0,0.0,0.0,0.0,0.0,0.0,0.0,0.0,0.0,0.0,0.0,0.0,0.0,0.0,1.2822,1.2558,1.2311,1.2083,1.2242,1.2864,1.329,1.3544,1.3609,1.4122,1.4357,0.0,0.0,0.0,1.5792,1.6548,1.7072,0.0,1.8401,1.8487,0.0,0.0,0.0,1.8876,1.8604,1.8852,1.9358,1.8838,1.8896,1.9266,1.9508,1.9256,1.8775,1.8733,1.8184,1.7398,1.6775,1.7161,0.0,0.0,0.0,0.0,0.0,0.0,0.0,0.0,0.0,0.0,0.0,0.0,0.0,0.0,1.8427,1.9196,2.0426,2.133,2.1945,2.2083,2.2439,2.2546,2.2145,2.1326,2.0488,1.9823,1.8868,1.823,1.8027,1.791,1.79,1.8008,1.8301,1.8043,1.701,1.6229,1.5331,1.4359,1.3271,1.2645,1.2486,1.2712,1.3758,1.5452,1.6377,1.7376,1.8439,1.8667,1.9226,1.9928,2.0158,1.9966,1.9432,1.9243,1.862,1.7747,1.7747,1.7585,1.7415,1.823,1.9158,2.0149,0.0,0.0,0.0,0.0,0.0,0.0,0.0,0.0,0.0,0.0,0.0,0.0,1.3216,1.3151,1.306,1.2931,1.3,1.3101,1.3141,1.2655,1.2569,1.3064,1.34,0.0,1.2502,1.3847,1.3848,0.0,0.0,0.0,1.4624,1.6735,1.8035,1.8557,1.8732,1.8597,1.8358,0.0,0.0,0.0,1.9293,1.9193,1.9115,1.8864,1.9116,1.9544,1.9395,1.9669,1.9923,1.8673,1.8256,1.8109,1.7379,1.7233,1.7408,0.0,0.0,0.0,0.0,0.0,0.0,0.0,0.0,0.0,0.0,0.0,0.0,0.0,1.788,1.8279,1.8355,1.9673,2.097,2.1443,2.1574,2.1592,2.1537,2.0763,2.0088,1.9756,1.8601,1.7881,1.7997,1.7656,1.7578,1.7978,1.8037,1.8027,1.794,1.591,1.4761,1.4668,1.2608,1.151,1.1496,1.179,1.2501,1.3474,1.3792,1.4678,1.6018,1.6909,1.7588,1.8072,1.8979,1.9814,2.045,2.0041,1.9486,1.8877,1.8877,1.823,1.7342,1.7342,1.806,1.9107,0.0,0.0,0.0,0.0,0.0,0.0,0.0,0.0,0.0,0.0,0.0,0.0,0.0,1.3369,1.3444,1.3245,1.3699,1.4197,1.4653,1.4413,1.4301,1.433,1.4413,1.4184,1.3641,1.3859,1.3881,0.0,0.0,1.4381,1.4935,1.6308,1.7321,1.808,1.9322,1.9628,1.9189,2.006,0.0,0.0,0.0,0.0,0.0,0.0,0.0,0.0,0.0,0.0,1.9604,1.9403,1.9167,1.8819,1.8124,1.8135,1.8345,1.8196,0.0,0.0,0.0,0.0,0.0,0.0,0.0,0.0,0.0,0.0,0.0,1.6789,1.693,1.7237,1.7614,1.8744,1.9673,1.9874,2.0198,2.0387,2.0379,2.0154,1.9648,1.8877,1.8381,1.7846,1.7258,1.7051,1.7031,1.7178,1.7187,1.7187,1.7187,1.5354,1.4338,1.4338,1.2419,1.1423,1.1423,1.1343,1.197,1.3329,1.3379,1.4166,1.5425,1.5783,1.6139,1.6547,1.6604,1.7604,1.9112,1.8963,1.8509,1.7908,1.7908,1.7253,1.6437,1.79,1.823,1.8149,0.0,0.0,0.0,0.0,0.0,0.0,0.0,0.0,0.0,1.3484,0.0,0.0,0.0,0.0,1.4113,1.3917,1.4257,1.4675,1.5171,1.4967,1.4904,1.4997,1.4822,1.4671,1.4499,1.4185,1.3999,0.0,0.0,0.0,0.0,1.566,1.661,1.7492,1.8848,1.9652,0.0,0.0,0.0,2.0088,0.0,0.0,2.048,0.0,0.0,0.0,0.0,0.0,0.0,1.9309,1.9199,1.8939,1.8505,1.8642,0.0,0.0,0.0,0.0,0.0,0.0,0.0,0.0,0.0,0.0,0.0,0.0,0.0,1.638,1.6466,1.6635,1.7024,1.7689,1.8317,1.8694,1.9045,1.9271,1.9273,1.9258,1.8956,1.8111,1.7866,1.7496,1.6792,1.6553,1.6533,1.6674,1.6689,1.6665,1.6665,1.4956,1.3656,1.2959,1.1786,1.1002,1.0728,1.0541,1.087,1.1668,1.1957,1.2654,1.3693,1.4269,1.4752,1.5065,1.5191,1.637,1.8353,1.8217,1.8237,1.8381,1.798,1.7415,1.6919,1.806,1.823,1.8069,0.0,0.0,0.0,0.0,0.0,0.0,0.0,0.0,1.5057,1.4903,0.0,0.0,0.0,0.0,0.0,1.4953,1.4629,1.4511,1.4627,1.4285,1.4353,1.4967,1.4633,1.4576,1.487,1.4744,1.4222,1.3216,0.0,0.0,0.0,0.0,1.5939,1.6895,1.7209,1.8582,2.0726,0.0,2.2091,2.1374,0.0,2.151,2.0858,0.0,0.0,0.0,1.8642,1.8533,0.0,1.826,0.0,0.0,0.0,0.0,0.0,0.0,0.0,0.0,0.0,0.0,0.0,0.0,0.0,0.0,0.0,0.0,1.6044,1.6343,1.6461,1.6479,1.6479,1.6479,1.6873,1.7931,1.8154,1.8166,1.8179,1.8179,1.7958,1.7542,1.7066,1.6753,1.6638,1.6264,1.6235,1.6626,1.6625,1.6626,1.6626,1.4674,1.2672,1.0631,1.0561,1.0174,0.9338,0.9274,0.9,0.8425,0.9243,0.9988,1.0623,1.2403,1.336,1.3658,1.4665,1.6362,1.8375,1.8013,1.8938,2.0469,1.9432,1.9045,1.8877,1.7827,1.8069,1.9036,0.0,0.0,0.0,0.0,0.0,0.0,1.4777,1.5081,1.5259,0.0,0.0,0.0,1.489,1.5108,1.5517,1.6147,1.5652,1.548,1.5721,1.566,1.5477,1.5224,1.5344,1.5146,1.4624,1.4581,1.4188,1.3501,1.4,1.3974,1.3493,1.4514,1.544,0.0,1.6634,1.7587,1.8848,1.9479,0.0,0.0,1.961,1.9698,0.0,0.0,0.0,0.0,0.0,1.8385,1.8153,0.0,1.8369,1.8707,0.0,0.0,0.0,0.0,0.0,0.0,1.7179,0.0,0.0,0.0,0.0,0.0,0.0,0.0,0.0,1.678,1.66,1.62,1.592,1.6194,1.648,1.6353,1.6695,1.7124,1.7551,1.7196,1.6991,1.7213,1.628,1.5616,1.5553,1.5329,1.5223,1.5339,1.5625,1.5781,1.5781,1.4126,1.2375,1.0624,0.9983,0.953,0.9274,0.8678,0.8401,0.8425,0.8627,0.8917,0.9357,1.0753,1.139,1.1546,1.2629,1.4029,1.5646,1.7248,1.8385,1.918,1.9887,1.9678,1.9036,1.952,1.9432,1.9079,0.0,0.0,0.0,0.0,0.0,1.594,1.585,1.6253,1.6541,0.0,0.0,0.0,1.5691,1.5583,1.5853,1.6541,1.6113,1.5957,1.6194,1.6025,1.5775,1.5422,1.5558,1.5345,1.4708,1.4716,1.4524,1.4114,1.43,1.4201,1.3872,1.4435,1.4873,1.5216,0.0,0.0,0.0,0.0,0.0,0.0,1.9378,0.0,0.0,1.8933,1.8622,0.0,0.0,0.0,1.7297,1.7394,1.772,0.0,0.0,0.0,0.0,0.0,0.0,0.0,0.0,0.0,0.0,0.0,0.0,0.0,1.4325,1.4552,1.5015,0.0,1.5903,1.5457,1.5511,1.5543,1.5499,1.5174,1.5466,1.5985,1.6885,1.6675,1.6423,1.6362,1.5702,1.5095,1.4728,1.4586,1.459,1.4775,1.4716,1.4452,1.3948,1.2992,1.1772,1.0104,0.9594,0.8941,0.8221,0.7702,0.7367,0.7154,0.7483,0.7861,0.8146,0.9287,0.9813,1.0069,1.1199,1.2149,1.3063,1.5493,1.6917,1.7737,1.8993,1.9189,1.8948,1.9899,2.0014,1.9728,0.0,0.0,1.5562,1.6377,1.675,1.6937,1.6898,1.771,1.8279,0.0,1.8202,1.795,1.7015,1.6393,1.6206,1.6584,1.635,1.6149,1.6103,1.5854,1.5624,1.5492,1.5441,1.5343,1.5031,1.5055,1.4959,1.4751,1.474,1.4607,1.4499,1.436,1.428,1.428,0.0,0.0,0.0,0.0,0.0,1.8275,1.9977,2.0097,0.0,0.0,1.8556,1.8369,1.6982,1.6522,1.6522,1.6595,1.6837,0.0,0.0,0.0,0.0,0.0,1.7434,0.0,0.0,0.0,0.0,0.0,0.0,0.0,1.3123,1.338,1.3975,1.5129,1.4767,1.4446,1.5017,1.4675,1.4297,1.4318,1.44,1.4903,1.6151,1.6238,1.5969,1.5326,1.5099,1.4757,1.4103,1.4031,1.4175,1.4499,1.3875,1.2948,1.182,1.168,1.0954,0.9338,0.9139,0.8285,0.6719,0.6588,0.6137,0.5428,0.6203,0.668,0.6924,0.7962,0.8588,0.8937,1.0142,1.0708,1.095,1.3145,1.4878,1.6246,1.7292,1.7983,1.8366,1.9222,1.985,2.0256,0.0,0.0,1.7023,1.7694,1.7887,1.7956,1.7968,1.8249,1.8503,1.863,1.8453,1.8123,1.7748,1.7655,1.7597,1.7459,1.7291,1.6776,1.5782,1.615,1.6114,1.5369,1.5596,1.5575,1.5237,1.5404,1.5128,1.4396,1.4631,1.4413,1.3729,1.3719,1.3705,1.361,0.0,0.0,0.0,0.0,0.0,1.777,1.8355,0.0,1.805,1.7257,1.6959,1.6901,1.6602,1.6522,1.6595,1.7297,1.7407,1.7353,0.0,0.0,0.0,1.7227,0.0,0.0,0.0,0.0,0.0,0.0,0.0,0.0,1.3527,1.3292,1.3352,1.4979,1.455,1.3815,1.3521,1.3841,1.3971,1.3379,1.3888,1.4492,1.4971,1.4652,1.4468,1.4789,1.3979,1.3476,1.3834,1.3691,1.3455,1.2998,1.2876,1.238,1.1421,1.0986,1.0312,0.9338,0.7962,0.7046,0.6719,0.6009,0.5557,0.5428,0.5557,0.5704,0.5744,0.6994,0.7584,0.7713,0.904,1.004,1.0864,1.1285,1.2811,1.4945,1.6196,1.6724,1.6868,1.7011,1.761,1.8349,0.0,1.7533,1.7759,1.8327,1.8464,1.8489,1.8489,1.8528,1.8567,1.863,1.8066,1.776,1.7964,1.7506,1.725,1.7449,1.7396,1.7039,1.6334,1.6627,1.6456,1.5707,1.5846,1.569,1.5286,1.5381,1.5245,1.4869,1.4714,1.4376,1.3878,1.3663,1.3762,1.4066,0.0,0.0,0.0,0.0,1.6907,1.7943,1.8348,0.0,1.7816,1.7213,1.6935,1.6901,1.6602,1.6293,1.6182,1.7173,1.7076,0.0,1.7571,1.7612,1.7271,0.0,1.6892,1.6608,0.0,0.0,0.0,1.2636,0.0,0.0,0.0,1.2443,1.264,1.3759,1.3382,1.2871,1.2871,1.2899,1.2803,1.2393,1.2812,1.3188,1.3092,1.3758,1.4233,1.4247,1.371,1.3324,1.3324,1.2929,1.2322,1.1472,1.1607,1.1206,1.0037,0.9693,0.9039,0.7858,0.7031,0.6371,0.6075,0.562,0.5428,0.5428,0.5428,0.5428,0.5439,0.622,0.6579,0.6595,0.7988,0.8779,0.9268,1.0353,1.1452,1.2673,1.4378,1.5213,1.5439,1.5964,1.6529,1.7125,1.8162,0.0,1.8175,1.8626,1.8736,1.8721,1.8634,1.8567,1.85,1.8344,1.7764,1.7564,1.8101,0.0,0.0,0.0,1.7618,1.7496,1.713,1.7295,1.7037,1.6232,1.6214,1.5901,1.5278,1.5302,1.5259,1.5109,1.467,1.4283,1.3982,1.3674,1.3834,1.4384,0.0,0.0,0.0,0.0,0.0,1.8134,0.0,1.8392,1.7856,1.7409,1.7308,1.7295,1.6597,1.5996,1.572,1.6557,1.6269,1.582,1.7021,1.6951,0.0,0.0,0.0,0.0,0.0,0.0,0.0,0.0,0.0,1.1798,0.0,0.0,0.0,1.2497,0.0,0.0,0.0,0.0,0.0,1.1628,0.0,0.0,0.0,1.2938,0.0,1.3312,1.3347,1.316,1.2559,1.1832,1.109,1.0249,1.0405,1.0023,0.8771,0.8463,0.7822,0.6625,0.6325,0.5905,0.5425,0.5428,0.5428,0.5428,0.5428,0.5428,0.5439,0.5667,0.58,0.5888,0.6986,0.7488,0.7647,0.939,1.0329,1.0809,1.2673,1.369,1.4067,1.4859,1.5478,1.5863,1.8007,1.8252,0.0,1.8711,1.8711,1.8595,1.8321,1.8293,1.8147,1.7679,1.8232,0.0,0.0,0.0,0.0,0.0,0.0,0.0,1.7456,0.0,1.8092,1.662,1.6776,1.6421,1.5487,1.5545,1.5043,1.3961,1.4136,1.3784,1.2987,1.3113,1.3095,0.0,1.4104,0.0,0.0,0.0,1.7496,0.0,1.7647,1.7537,0.0,1.6815,1.6952,1.7252,1.6125,1.5676,1.5576,0.0,1.5163,1.5017,0.0,1.6201,1.5976,1.6423,0.0,0.0,0.0,0.0,0.0,0.0,1.2844,0.0,0.0,0.0,1.1931,1.2115,0.0,0.0,0.0,0.0,0.0,0.0,0.0,0.0,1.1326,1.1384,1.1416,1.1342,1.171,1.1701,1.1074,1.0415,0.9984,0.9866,0.954,0.9341,0.9118,0.8062,0.7456,0.7374,0.6006,0.527,0.5425,0.5428,0.5428,0.5428,0.5428,0.5428,0.5439,0.5667,0.58,0.581,0.6053,0.6708,0.7482,0.7618,0.8867,1.0737,1.1959,1.2466,1.2566,1.264,1.3236,1.3996,1.8788,1.9001,0.0,0.0,1.8528,1.8279,1.7747,1.7503,1.7332,0.0,0.0,0.0,0.0,0.0,0.0,0.0,0.0,1.9157,0.0,0.0,0.0,1.7847,1.6927,1.6291,1.6051,1.5292,1.4664,1.4244,1.3847,1.3409,1.3035,1.2764,1.289,0.0,1.3705,0.0,1.6259,0.0,1.7056,0.0,0.0,0.0,0.0,1.6888,1.643,1.6305,1.58,1.5129,1.4584,1.4812,1.463,0.0,0.0,0.0,0.0,1.5788,0.0,0.0,0.0,0.0,0.0,0.0,0.0,0.0,1.2526,0.0,1.207,1.1825,0.0,0.0,0.0,0.0,0.0,0.0,1.0618,1.0435,0.0,0.0,1.0311,1.0814,1.0981,1.083,1.0167,0.9969,0.971,0.9263,0.9071,0.8769,0.8377,0.7816,0.7239,0.6529,0.5925,0.5513,0.5226,0.5318,0.5428,0.5428,0.5428,0.5428,0.5435,0.5583,0.5725,0.5803,0.5871,0.6113,0.6538,0.7103,0.7824,0.8771,0.9867,1.1112,1.2278,1.2118,1.2442,1.2879,0.0,0.0,0.0,0.0,1.8436,1.8054,1.7312,1.6879,0.0,0.0,0.0,0.0,1.988,1.9568,0.0,0.0,1.9834,1.9463,0.0,0.0,1.8786,0.0,0.0,0.0,0.0,1.5407,1.4668,1.4337,1.3589,1.315,1.3035,1.2618,1.2811,1.3511,0.0,1.466,1.6299,0.0,1.6727,1.786,1.7357,1.7433,1.7804,1.705,1.6287,1.5588,1.541,1.4687,1.3826,1.4107,1.3967,1.3732,1.4283,1.4595,1.4824,0.0,0.0,0.0,1.5097,0.0,0.0,0.0,1.3389,1.2694,1.2738,1.2514,1.2252,1.1779,1.167,0.0,0.0,0.0,1.0533,1.0233,0.0,0.9606,0.9082,0.909,0.0,1.0024,1.0008,0.9804,0.9451,0.9555,0.9406,0.8857,0.8857,0.8639,0.8096,0.7883,0.7367,0.6529,0.6155,0.5859,0.557,0.5436,0.5428,0.5428,0.5428,0.5428,0.5432,0.5518,0.5647,0.5742,0.5742,0.5742,0.581,0.646,0.6954,0.7346,0.8041,0.9581,1.1414,1.1507,1.1834,1.2305,1.9889,1.9508,0.0,0.0,0.0,0.0,1.716,0.0,0.0,0.0,0.0,0.0,0.0,0.0,0.0,0.0,0.0,1.9956,1.9418,0.0,1.9827,0.0,0.0,1.8376,0.0,0.0,1.5228,1.361,1.3358,1.3034,1.2725,1.2676,1.2686,1.2783,1.4369,1.4917,1.4856,1.6407,1.6832,1.6572,1.6547,1.6534,1.6615,0.0,1.6654,1.5543,1.4926,1.4329,1.3732,1.3152,1.2929,1.3065,1.3721,1.3946,1.4039,1.456,0.0,0.0,1.4422,1.419,1.4086,1.4573,1.3914,1.3263,1.348,1.2996,1.2353,1.1959,1.1819,1.1563,1.0998,1.0711,1.0337,0.991,0.943,0.0,0.0,0.8537,0.8207,0.8362,0.8281,0.842,0.8981,0.8791,0.8685,0.8804,0.891,0.8956,0.8956,0.8302,0.805,0.8329,0.6818,0.622,0.6641,0.5815,0.5428,0.5428,0.5428,0.5428,0.5432,0.5518,0.5593,0.5596,0.5596,0.5596,0.5586,0.5504,0.6127,0.7091,0.7018,0.7873,0.9332,1.0275,1.1319,1.2305,0.0,0.0,0.0,0.0,0.0,0.0,0.0,1.6839,0.0,0.0,0.0,0.0,0.0,2.129,2.1143,0.0,0.0,2.0366,1.9662,1.964,0.0,0.0,0.0,1.8229,0.0,0.0,0.0,1.4927,1.3697,1.3035,1.289,1.251,1.2473,1.2897,0.0,1.4354,0.0,0.0,0.0,0.0,0.0,1.721,1.8033,0.0,1.5703,1.4926,1.4329,1.3742,1.3152,1.2978,1.2881,1.2929,1.3152,1.3314,1.3494,1.3884,1.4025,1.4165,1.4376,1.4014,1.3742,1.4258,1.3752,1.3152,1.3208,1.289,1.2529,1.2224,1.1927,1.1633,1.1451,1.0763,1.0145,0.9798,0.9032,0.843,0.0,0.778,0.7637,0.807,0.793,0.0,0.8259,0.829,0.8453,0.8663,0.8684,0.8791,0.9008,0.8692,0.8344,0.797,0.7723,0.7125,0.6233,0.6282,0.5943,0.5428,0.5428,0.5428,0.5428,0.5416,0.5494,0.5586,0.5484,0.5498,0.5579,0.5423,0.5652,0.6123,0.5944,0.6786,0.8226,0.9896,1.0791,1.1391,2.0361,0.0,0.0,0.0,0.0,0.0,0.0,0.0,0.0,0.0,1.9674,0.0,2.1831,0.0,2.1169,0.0,2.0823,2.023,1.9735,1.9638,0.0,1.972,1.9103,0.0,0.0,0.0,0.0,0.0,1.4612,1.3811,1.3531,1.2965,1.2957,1.3323,0.0,1.4306,1.5412,0.0,1.6315,0.0,0.0,1.7062,0.0,1.6137,1.5383,1.5191,1.4178,1.342,1.2881,1.2881,1.2881,1.2881,1.2881,1.3007,1.3142,1.3286,1.3392,1.3536,1.3836,1.36,1.343,1.3931,1.3573,1.3123,1.3208,1.2939,1.2627,1.2431,1.2026,1.1683,1.163,1.0651,0.9823,0.9653,0.8696,0.7829,0.0,0.7245,0.7285,0.7657,0.7634,0.0,0.0,0.8101,0.8333,0.8751,0.884,0.8942,0.9061,0.9111,0.8736,0.7919,0.7914,0.7335,0.6149,0.6189,0.5947,0.5428,0.5428,0.5428,0.5428,0.5428,0.5416,0.5504,0.547,0.5416,0.5501,0.547,0.542,0.5504,0.546,0.6062,0.7102,0.9118,1.0484,1.1465,0.0,0.0,0.0,0.0,1.8226,0.0,0.0,0.0,1.8983,0.0,2.0664,2.0827,2.2016,2.1076,2.0498,2.0684,2.0124,1.972,1.969,1.9921,0.0,0.0,1.9875,1.9512,1.8394,0.0,0.0,0.0,0.0,0.0,1.4562,1.4184,1.4071,1.4188,1.4179,0.0,1.5756,1.5918,1.5867,1.5678,1.5973,1.6076,1.602,1.5415,1.5668,1.6115,1.4393,1.3372,1.2881,1.2881,1.2881,1.2881,1.2881,1.2881,1.2881,1.2881,1.2881,1.2881,1.2881,1.2978,1.321,1.3647,1.343,1.3162,1.3494,1.3132,1.2676,1.2529,1.2076,1.1653,1.1506,1.0411,0.9554,0.9475,0.8365,0.737,0.707,0.7021,0.7027,0.7216,0.7338,0.0,0.0,0.8146,0.8317,0.912,0.928,0.9295,0.9211,0.9491,0.9205,0.8205,0.7534,0.6917,0.6371,0.5799,0.5428,0.5428,0.5428,0.5432,0.5439,0.5432,0.5432,0.5439,0.5432,0.5428,0.5428,0.5428,0.5428,0.5442,0.5521,0.5741,0.6154,0.8146,1.0294,1.2305,2.1778,2.0799,1.9766,0.0,1.7894,1.7584,0.0,0.0,0.0,0.0,2.1749,2.2045,2.2346,2.2188,2.1689,2.0759,2.0557,0.0,0.0,0.0,0.0,1.9095,1.8811,1.852,1.8256,1.7555,1.721,1.7251,0.0,0.0,1.5523,1.5111,1.5164,1.5499,0.0,0.0,1.6384,1.6342,1.6366,1.6322,1.4951,1.5418,1.6703,1.4424,1.4422,1.5437,1.3746,1.3017,1.2881,1.2881,1.2881,1.2881,1.2881,1.2881,1.2881,1.2881,1.2881,1.2881,1.2881,1.2929,1.2978,1.3113,1.3017,1.2978,1.291,1.2813,1.2676,1.2529,1.2323,1.199,1.1437,1.0853,1.0136,0.9328,0.8285,0.7456,0.0,0.0,0.0,0.7335,0.7278,0.7344,0.75,0.754,0.7821,0.8497,0.8486,0.8653,0.9197,0.9017,0.8577,0.7877,0.796,0.7439,0.612,0.631,0.6009,0.5428,0.5428,0.542,0.5528,0.5413,0.5423,0.5525,0.541,0.5428,0.5428,0.5428,0.5428,0.5432,0.5406,0.6527,0.8094,0.8925,1.053,1.2305,2.2286,0.0,0.0,1.9054,0.0,0.0,1.9592,1.9967,0.0,2.214,2.2509,0.0,2.2088,2.1898,2.1395,2.0348,2.0258,0.0,1.9705,0.0,0.0,1.8893,1.838,1.811,1.8153,1.7578,0.0,1.7673,0.0,0.0,1.6299,1.5967,1.5912,0.0,0.0,1.5961,0.0,1.6289,1.6503,1.6941,1.5159,1.5204,0.0,1.4244,1.386,1.4204,1.3244,1.2881,1.2881,1.2881,1.2881,1.2881,1.2881,1.2881,1.2881,1.2881,1.2881,1.2881,1.2881,1.2881,1.2881,1.2881,1.2881,1.2881,1.2783,1.2783,1.2783,1.2676,1.248,1.2126,1.1519,1.0805,0.991,0.8641,0.7965,0.0,0.0,0.0,0.0,0.0,0.7083,0.7094,0.7141,0.7507,0.7916,0.8311,0.847,0.8714,0.8995,0.8911,0.8546,0.7948,0.7816,0.7405,0.6773,0.6322,0.6075,0.5947,0.5554,0.5443,0.5586,0.5433,0.5447,0.5583,0.543,0.5428,0.5428,0.5428,0.5428,0.5435,0.5437,0.6825,0.88,0.9092,1.0553,1.2305,2.2394,0.0,0.0,0.0,0.0,0.0,0.0,2.1625,0.0,2.3098,0.0,2.2506,2.1713,2.1227,2.0662,1.9884,0.0,1.9779,1.969,1.9207,1.8878,1.8812,1.8274,1.797,1.7885,1.7689,1.7676,0.0,0.0,0.0,1.6995,1.6759,0.0,0.0,0.0,0.0,0.0,1.6123,1.6452,1.7326,1.5755,1.5097,1.5011,1.4447,1.3679,1.2881,1.2881,1.2881,1.2881,1.2881,1.2881,1.2881,1.2881,1.2881,1.2881,1.2881,1.2881,1.2881,1.2881,1.2881,1.2881,1.2881,1.2881,1.2881,1.2881,1.2881,1.2881,1.2881,1.2529,1.2067,1.1601,1.0462,0.9221,0.7864,0.7634,0.7426,0.0,0.0,0.0,0.0,0.0,0.0,0.7063,0.7681,0.8183,0.8403,0.8789,0.896,0.8857,0.893,0.8724,0.8114,0.7295,0.7094,0.7449,0.6108,0.5749,0.6527,0.5752,0.5443,0.5586,0.5433,0.5447,0.5583,0.543,0.5428,0.5428,0.5428,0.5428,0.5442,0.5532,0.6904,0.8739,0.8975,1.0356,1.2198,0.0,0.0,0.0,0.0,0.0,2.2167,2.2715,2.2148,2.1945,2.2712,2.3128,2.3093,2.2396,2.2357,2.1844,2.0632,2.0528,0.0,0.0,0.0,0.0,1.8247,1.7717,1.722,1.6799,1.6944,1.7206,0.0,0.0,1.7606,1.7897,1.76,0.0,0.0,0.0,0.0,1.6975,1.6137,0.0,1.6681,1.4821,1.4356,1.4647,1.359,1.3037,1.2881,1.2881,1.2881,1.2881,1.2881,1.2881,1.2881,1.2881,1.2881,1.2881,1.2881,1.2881,1.2881,1.2881,1.2881,1.2881,1.2881,1.2881,1.2881,1.2881,1.2881,1.2881,1.2881,1.2344,1.1674,1.1074,0.976,0.8633,0.8088,0.7852,0.7498,0.0,0.0,0.0,0.0,0.0,0.6599,0.6889,0.7288,0.7755,0.8373,0.8252,0.8383,0.8949,0.8585,0.8123,0.7614,0.715,0.6667,0.6151,0.5667,0.5495,0.562,0.5491,0.5443,0.5586,0.5433,0.5447,0.5583,0.543,0.5428,0.5428,0.5428,0.5428,0.5442,0.5532,0.6761,0.8507,0.8599,0.9909,1.165,0.0,0.0,0.0,0.0,0.0,0.0,0.0,2.3231,2.3201,2.3157,2.3392,2.3284,2.2644,2.2368,2.1784,2.0797,2.0378,2.002,1.9704,1.9212,1.8808,1.8601,1.7777,1.7222,1.6969,1.6807,1.703,1.7715,1.7757,1.7959,1.8281,1.8227,0.0,0.0,0.0,1.7427,0.0,0.0,1.6959,1.7206,1.5429,1.4843,1.4962,1.3473,1.2881,1.2881,1.2881,1.2881,1.2881,1.2881,1.2881,1.2881,1.2881,1.2881,1.2881,1.2881,1.2881,1.2881,1.2881,1.2881,1.2881,1.2881,1.2881,1.2881,1.2881,1.2608,1.2344,1.2344,1.1774,1.1056,1.0342,0.9401,0.8489,0.7733,0.7702,0.751,0.6801,0.0,0.6416,0.0,0.0,0.0,0.0,0.7237,0.7413,0.7885,0.8088,0.8332,0.8784,0.8321,0.8009,0.7856,0.7191,0.694,0.7167,0.6016,0.5756,0.6408,0.5756,0.5443,0.5586,0.5433,0.5447,0.5583,0.543,0.5428,0.5428,0.5428,0.5428,0.5435,0.597,0.7055,0.8435,0.8964,1.0119,1.149,0.0,2.3585,0.0,0.0,2.3938,2.4118,2.3703,2.4179,2.4373,2.3684,2.3595,2.3415,2.2921,2.2413,2.1784,2.0991,2.0557,2.022,1.9947,1.9636,1.9374,1.9186,1.8384,1.7772,1.7433,1.6913,1.6982,1.7652,1.7869,1.8061,1.8215,1.8427,1.8283,0.0,0.0,1.7649,1.7909,1.7766,1.7676,1.7511,1.6093,1.537,1.4949,1.3476,1.2881,1.2881,1.2881,1.2881,1.2881,1.2881,1.2881,1.2881,1.2881,1.2881,1.2881,1.2881,1.2881,1.2881,1.2881,1.2881,1.2881,1.2881,1.2881,1.2871,1.2715,1.2236,1.1765,1.1616,1.1065,1.0386,0.9642,0.8992,0.8298,0.7556,0.7532,0.7388,0.6665,0.6273,0.6388,0.0,0.0,0.0,0.7548,0.7377,0.7314,0.7566,0.8032,0.8368,0.8573,0.8162,0.8021,0.8217,0.7259,0.7185,0.8078,0.6346,0.5982,0.6929,0.5885,0.5423,0.5538,0.5416,0.5426,0.5535,0.5413,0.5428,0.5428,0.5428,0.5428,0.5491,0.633,0.7338,0.842,0.9302,1.0342,1.1376,0.0,0.0,0.0,0.0,0.0,2.4552,2.4492,2.4537,2.4373,2.3684,2.3595,2.358,2.352,2.346,2.2936,2.171,2.2084,2.1919,2.0706,2.1143,2.0937,1.9854,1.9705,1.894,1.7433,1.7351,1.7132,1.682,1.7374,1.7517,1.7249,1.7796,1.8,1.7909,1.8124,1.8242,1.8343,1.8309,1.7617,1.6515,1.5795,1.4873,1.3879,1.3172,1.2881,1.2881,1.2881,1.2881,1.2881,1.2881,1.2881,1.2881,1.2881,1.2881,1.2881,1.2881,1.2881,1.2881,1.2881,1.2881,1.2881,1.2881,1.2881,1.2715,1.208,1.1864,1.1616,1.1015,1.0364,0.9703,0.9026,0.8184,0.7706,0.8078,0.7475,0.6943,0.6864,0.6349,0.6335,0.711,0.0,0.0,0.7994,0.7735,0.7584,0.7817,0.7931,0.8162,0.8573,0.8162,0.8021,0.8279,0.7348,0.6806,0.6701,0.6097,0.5675,0.5557,0.5428,0.5435,0.5449,0.5435,0.5435,0.5449,0.5435,0.5428,0.5428,0.5428,0.5428,0.5491,0.633,0.7251,0.8122,0.9045,1.0061,1.1076,0.0,0.0,0.0,2.5787,2.586,2.5694,2.4972,2.5047,2.4837,2.3744,2.3595,2.3595,2.3595,2.2921,2.2248,2.1739,2.1201,2.0822,2.0702,2.0951,2.1069,2.0994,2.0311,1.9821,1.9529,1.8431,1.8206,1.8878,1.8858,1.8967,1.9126,1.9236,1.8994,1.8525,1.8172,1.8198,1.8547,1.8709,1.845,1.786,1.6942,1.6104,1.5246,1.3951,1.3238,1.2881,1.2881,1.2881,1.2881,1.2881,1.2881,1.2881,1.2881,1.2881,1.2881,1.2881,1.2881,1.2881,1.2881,1.2881,1.2774,1.2344,1.2236,1.208,1.1366,1.0864,1.0517,1.0261,0.9332,0.8296,0.761,0.7182,0.7015,0.7122,0.6745,0.6577,0.6873,0.6051,0.0,0.7602,0.0,0.6653,0.815,0.7846,0.7617,0.7883,0.7836,0.7883,0.8043,0.7557,0.7225,0.7049,0.6812,0.6497,0.6043,0.6006,0.5948,0.5818,0.5557,0.5428,0.5428,0.5428,0.5428,0.5428,0.5428,0.5428,0.5428,0.5428,0.5428,0.5491,0.633,0.7242,0.8107,0.9177,1.0061,1.0795,2.6872,2.6442,2.6288,2.6485,2.6497,2.6146,2.5334,2.5243,2.4911,2.3744,2.3301,2.3139,2.3325,2.2517,2.1829,2.144,2.0707,2.0495,2.0942,2.1175,2.1499,2.1951,2.1239,2.0837,2.0899,1.9669,1.9386,2.0233,2.0029,1.9964,2.0142,1.9863,1.9506,1.9056,1.8521,1.8536,1.8944,1.9146,1.9058,1.8672,1.7871,1.6982,1.5995,1.4751,1.3809,1.3152,1.3152,1.3065,1.2881,1.2881,1.2881,1.2881,1.2881,1.2881,1.2881,1.2881,1.2881,1.2881,1.2881,1.2725,1.2452,1.1922,1.1665,1.1316,1.0661,1.0167,0.971,0.9287,0.8237,0.7235,0.6696,0.6421,0.6312,0.6362,0.615,0.6185,0.6866,0.5896,0.5914,0.7939,0.6966,0.6673,0.8037,0.7659,0.7382,0.7616,0.7408,0.7456,0.7729,0.7415,0.7099,0.6723,0.6803,0.6596,0.5972,0.6101,0.6098,0.5881,0.5557,0.5428,0.5428,0.5428,0.5428,0.5428,0.5428,0.5428,0.5428,0.5428,0.5428,0.5491,0.633,0.7242,0.8112,0.9205,1.0118,1.0875,2.766,2.7021,2.6782,2.749,2.6482,2.5615,2.56,2.5046,2.4388,2.3684,2.2599,2.2132,2.264,2.2724,2.2143,2.0842,2.1306,2.168,2.1695,2.2308,2.2683,2.268,2.2644,2.2126,2.0935,2.0889,2.0626,2.0072,2.0224,1.9965,1.9309,1.8972,1.8958,1.9186,1.9344,1.954,1.9798,1.9798,1.9166,1.8118,1.8106,1.7076,1.5497,1.5485,1.4792,1.3779,1.3779,1.342,1.2881,1.2881,1.2881,1.2881,1.2881,1.2881,1.2881,1.2881,1.2881,1.2881,1.2881,1.2344,1.1814,1.1814,1.1316,1.0669,0.9969,0.9814,0.9399,0.8037,0.7128,0.6588,0.6588,0.5982,0.5701,0.6303,0.5764,0.5752,0.6951,0.6072,0.6016,0.798,0.6923,0.6447,0.7587,0.7229,0.6925,0.6891,0.6593,0.6869,0.7848,0.8043,0.8063,0.7951,0.7677,0.7225,0.6662,0.6429,0.5985,0.5428,0.5428,0.5428,0.5428,0.5428,0.5428,0.5428,0.5428,0.5428,0.5428,0.5428,0.5428,0.5491,0.633,0.7242,0.8091,0.9011,1.0192,1.1416,2.709,2.6737,2.6512,2.6273,2.5884,2.5465,2.5016,2.4716,2.4223,2.3116,2.2661,2.202,2.0918,2.0775,2.0615,2.0206,2.0694,2.1216,2.1665,2.2308,2.2867,2.3304,2.2907,2.27,2.2727,2.1481,2.0928,2.1213,2.0541,2.0139,1.9902,1.9697,1.9636,1.9579,1.9282,1.937,1.9798,1.9798,1.9595,1.9255,1.8845,1.8127,1.7185,1.6408,1.561,1.4873,1.4073,1.3684,1.3467,1.3065,1.2881,1.2881,1.2881,1.2881,1.2881,1.2881,1.2559,1.2129,1.2129,1.1674,1.1015,1.0559,1.0261,0.9969,0.9256,0.8732,0.7972,0.6519,0.6032,0.571,0.5226,0.4952,0.5003,0.555,0.5167,0.5152,0.6172,0.6009,0.6054,0.677,0.6776,0.6783,0.6923,0.663,0.6567,0.6848,0.6864,0.6815,0.675,0.6499,0.6295,0.6142,0.6228,0.6051,0.5585,0.5967,0.5898,0.5428,0.5428,0.5428,0.5428,0.5428,0.5428,0.5428,0.5428,0.5428,0.5428,0.5428,0.5428,0.5428,0.5686,0.6334,0.726,0.8327,0.9251,1.0095,2.6714,2.6393,2.6093,2.5674,2.5405,2.4924,2.4073,2.3763,2.3142,2.1898,2.1323,2.0611,1.9445,1.9069,1.9103,1.9473,1.9836,2.0502,2.1635,2.2084,2.2697,2.3565,2.3246,2.3187,2.3595,2.2438,2.2053,2.2409,2.1295,2.0637,2.0398,2.0073,1.9861,1.9786,1.9459,1.9497,1.9798,1.9798,1.9798,1.9773,1.9447,1.8933,1.8361,1.763,1.686,1.6038,1.4862,1.427,1.3962,1.3163,1.2881,1.2832,1.2559,1.2501,1.2501,1.2501,1.1981,1.1416,1.1416,1.0965,1.0312,0.9917,0.9614,0.9256,0.8527,0.783,0.6961,0.576,0.5324,0.5003,0.457,0.4519,0.4625,0.4952,0.4736,0.4846,0.5778,0.5652,0.5673,0.6268,0.6373,0.6346,0.6109,0.5932,0.5987,0.6204,0.6499,0.6404,0.5832,0.6197,0.6164,0.5756,0.5949,0.588,0.5471,0.5829,0.5818,0.5428,0.5428,0.5428,0.5428,0.5428,0.5428,0.5428,0.5428,0.5428,0.5428,0.5428,0.5428,0.5428,0.5428,0.5947,0.6806,0.8004,0.893,0.982,2.6348,2.5959,2.551,2.5373,2.4851,2.403,2.2905,2.2163,2.1384,2.0173,1.9105,1.8382,1.8299,1.7776,1.7828,1.8831,1.8955,1.973,2.1525,2.1739,2.2323,2.355,2.3595,2.3595,2.3551,2.3551,2.3508,2.348,2.2225,2.1342,2.0785,2.0105,1.9798,1.9798,1.9798,1.9798,1.9798,1.9798,1.9798,1.9798,1.9798,1.951,1.9033,1.8995,1.8339,1.7266,1.6012,1.5191,1.4539,1.3342,1.2939,1.2753,1.2049,1.1733,1.1701,1.1724,1.1266,1.0712,1.0712,1.0269,0.971,0.971,0.9218,0.8559,0.7783,0.7085,0.6332,0.5601,0.4948,0.4519,0.4519,0.4519,0.4519,0.4519,0.4519,0.4794,0.5681,0.5081,0.5077,0.6372,0.5837,0.5348,0.5226,0.5222,0.5171,0.5069,0.5551,0.5632,0.5152,0.6673,0.719,0.6353,0.6451,0.6384,0.6079,0.5954,0.5693,0.5428,0.5428,0.5428,0.5428,0.5428,0.5428,0.5428,0.5439,0.5439,0.5428,0.5439,0.5446,0.5446,0.5446,0.5903,0.6779,0.7899,0.8996,1.0136,2.5151,2.4971,2.4402,2.3025,2.263,2.2135,2.0953,2.0611,2.0245,1.9433,1.9444,1.9184,1.8336,1.8442,1.8702,1.8953,1.9376,2.0067,2.1027,2.1939,2.2787,2.3565,2.3595,2.3377,2.292,2.292,2.2661,2.215,2.1403,2.0934,2.0784,2.0105,1.9798,1.9798,1.9798,1.9798,1.9798,1.9798,1.9798,1.9798,1.9798,1.9723,1.9572,1.9183,1.8833,1.8388,1.6639,1.5959,1.5581,1.3892,1.3152,1.275,1.2013,1.126,1.0711,1.0947,1.0568,1.0064,1.0064,0.9562,0.9061,0.9061,0.8575,0.7897,0.7058,0.6382,0.5724,0.4923,0.4625,0.4519,0.4519,0.4519,0.4519,0.4519,0.4519,0.4723,0.5466,0.56,0.5657,0.5762,0.5814,0.5534,0.4746,0.468,0.4736,0.4956,0.5368,0.5605,0.5547,0.6108,0.6057,0.5279,0.5294,0.5382,0.5554,0.5561,0.5495,0.5428,0.5428,0.5428,0.5428,0.5428,0.5428,0.5435,0.5484,0.5467,0.5435,0.5488,0.5535,0.5535,0.5535,0.5738,0.6117,0.7065,0.8093,0.9152,2.4582,2.4328,2.3747,2.2479,2.2075,2.1399,1.9866,1.9429,1.8954,1.8022,1.8179,1.8087,1.751,1.7913,1.8261,1.8261,1.9027,1.9978,2.1169,2.1612,2.2219,2.3154,2.2908,2.2566,2.2249,2.2243,2.2063,2.1698,2.1077,2.0785,2.0794,2.0118,1.9798,1.9798,1.9798,1.9798,1.9798,1.9798,1.9798,1.9798,1.9798,1.9798,1.9773,1.9497,1.9169,1.8675,1.7105,1.6358,1.5782,1.4062,1.3246,1.2761,1.187,1.1051,1.0409,1.0128,0.9724,0.9361,0.9361,0.9061,0.8804,0.8804,0.8415,0.7835,0.6925,0.6188,0.547,0.4738,0.4567,0.4519,0.4519,0.4519,0.4519,0.4519,0.4862,0.5277,0.5718,0.5847,0.5851,0.5789,0.5522,0.5102,0.4581,0.4519,0.457,0.468,0.5187,0.541,0.5152,0.5616,0.5673,0.5261,0.5147,0.5199,0.5425,0.5428,0.5428,0.5428,0.5428,0.5428,0.5428,0.5433,0.5464,0.5471,0.5552,0.5542,0.5467,0.5481,0.5488,0.5494,0.5562,0.5593,0.5832,0.7392,0.8284,0.8946,2.4358,2.3999,2.337,2.2569,2.1971,2.1012,1.9142,1.8365,1.7665,1.6615,1.6597,1.6685,1.676,1.7287,1.7664,1.7739,1.8621,1.9798,2.1322,2.105,2.1323,2.2513,2.2019,2.1634,2.1555,2.1566,2.1629,2.1704,2.1126,2.0809,2.0775,2.0118,1.9798,1.9798,1.9798,1.9798,1.9798,1.9798,1.9798,1.9798,1.9798,1.9747,1.9631,1.9631,1.9202,1.8389,1.7334,1.6418,1.5577,1.4051,1.3157,1.2569,1.1526,1.0933,1.0408,0.9554,0.9132,0.8931,0.8884,0.8905,0.8884,0.877,0.8429,0.7869,0.6964,0.6079,0.5286,0.4814,0.4602,0.4553,0.4553,0.4553,0.456,0.4636,0.5272,0.5892,0.6155,0.5957,0.5872,0.6019,0.5144,0.4519,0.4519,0.4519,0.4519,0.4519,0.5053,0.5155,0.4647,0.5266,0.5632,0.5736,0.5466,0.5338,0.5428,0.5428,0.5428,0.5428,0.5428,0.5439,0.5466,0.5532,0.5603,0.5623,0.5647,0.5644,0.561,0.5481,0.543,0.544,0.5549,0.5538,0.5777,0.8036,0.8856,0.9198,2.3729,2.367,2.3093,2.1476,2.0741,1.9766,1.7866,1.7122,1.6696,1.6522,1.6936,1.7426,1.789,1.8442,1.8945,1.9397,1.9598,1.9842,2.0224,2.0625,2.113,2.1842,2.1752,2.1479,2.0939,2.0917,2.1207,2.171,2.1091,2.0799,2.0772,2.0118,1.9798,1.9798,1.9798,1.9798,1.9798,1.9798,1.9798,1.9798,1.9798,1.9423,1.8874,1.8874,1.8394,1.7677,1.6837,1.6054,1.5204,1.3979,1.2881,1.1813,1.102,1.0552,1.0106,0.9758,0.9586,0.9492,0.9239,0.9359,0.9367,0.8652,0.8017,0.7355,0.634,0.5572,0.4973,0.4877,0.4762,0.4657,0.4657,0.4657,0.481,0.5292,0.5603,0.5933,0.6391,0.6096,0.5763,0.5611,0.496,0.4519,0.4519,0.4519,0.4519,0.4519,0.4716,0.4969,0.5258,0.5192,0.5421,0.5844,0.5417,0.523,0.5425,0.5428,0.5428,0.5428,0.5428,0.543,0.5555,0.5579,0.5654,0.5776,0.5905,0.5888,0.5766,0.5742,0.5732,0.5725,0.5627,0.5728,0.6079,0.7318,0.8388,0.9425,2.3595,2.3595,2.321,2.2064,2.1411,2.0656,1.9447,1.8465,1.7898,1.7898,1.7854,1.7928,1.8179,1.8694,1.912,1.9359,1.9978,2.0346,2.042,2.0307,2.0563,2.1185,2.0864,2.057,2.0258,2.0245,2.0385,2.0677,2.0396,2.0283,2.0245,1.9964,1.9798,1.9798,1.9798,1.9798,1.9798,1.9798,1.9798,1.9747,1.9371,1.898,1.8661,1.8286,1.7633,1.6922,1.6156,1.5332,1.4526,1.3348,1.2465,1.169,1.1086,1.0643,1.0301,1.0,0.9806,0.9653,0.9519,0.9693,0.9695,0.8634,0.7969,0.7274,0.6314,0.5378,0.4741,0.4982,0.4785,0.4592,0.4674,0.4623,0.4815,0.5532,0.5759,0.61,0.6949,0.6303,0.5791,0.5821,0.5053,0.4519,0.4519,0.4519,0.4553,0.4579,0.465,0.4817,0.5093,0.5116,0.5226,0.5492,0.5312,0.5287,0.5428,0.5428,0.5428,0.5428,0.5428,0.5443,0.5593,0.5671,0.5786,0.5928,0.6,0.5989,0.5911,0.5752,0.5732,0.5793,0.5728,0.614,0.6864,0.8018,0.9129,1.0171,2.3595,2.3595,2.34,2.2798,2.2245,2.1671,2.1019,2.0002,1.9297,1.9118,1.8701,1.8418,1.838,1.8769,1.9033,1.9196,2.0016,2.0628,2.0793,2.0176,2.0075,2.0772,2.0154,1.9798,1.9798,1.9798,1.9798,1.9798,1.9798,1.9798,1.9798,1.9798,1.9798,1.9798,1.9798,1.9695,1.9527,1.9527,1.9423,1.9254,1.8661,1.8328,1.8124,1.7578,1.6866,1.614,1.5332,1.4582,1.3742,1.2627,1.1935,1.1487,1.1117,1.0794,1.0577,1.0287,1.006,0.9873,0.9806,0.9873,0.9665,0.8583,0.7772,0.6997,0.6158,0.5251,0.4674,0.5053,0.4833,0.4616,0.4765,0.467,0.4883,0.565,0.5823,0.6146,0.6953,0.6299,0.5791,0.5762,0.5,0.4519,0.4519,0.4549,0.4565,0.468,0.4755,0.4843,0.4962,0.5104,0.5182,0.5182,0.5298,0.5428,0.5428,0.5428,0.5428,0.5428,0.5428,0.5457,0.5644,0.5752,0.5905,0.6084,0.6084,0.6084,0.6061,0.5762,0.5701,0.5796,0.5766,0.6264,0.7111,0.8699,0.9665,1.0463,2.3595,2.3595,2.3413,2.2791,2.2243,2.1657,2.1,2.0401,1.9798,1.9163,1.9073,1.9034,1.8956,1.8958,1.9221,1.9698,1.9798,2.0142,2.0731,2.0165,2.0075,2.0744,2.0143,1.9798,1.9798,1.9798,1.9798,1.9798,1.9798,1.9798,1.9798,1.9798,1.9798,1.9798,1.9798,1.9423,1.8768,1.8768,1.8394,1.7743,1.7688,1.7246,1.6652,1.6595,1.6151,1.541,1.456,1.3786,1.294,1.2112,1.1329,1.0681,1.0654,1.0604,1.0618,1.0598,1.0577,1.0497,1.016,0.9737,0.9175,0.8238,0.7248,0.6241,0.5378,0.5003,0.4931,0.5098,0.4999,0.4928,0.5074,0.4982,0.5057,0.5723,0.5935,0.5946,0.5685,0.5715,0.5522,0.4696,0.4532,0.4519,0.4519,0.4589,0.4677,0.4691,0.4945,0.5101,0.5114,0.526,0.5411,0.5411,0.5422,0.5428,0.5428,0.5428,0.5428,0.5428,0.5428,0.5511,0.5786,0.5796,0.5962,0.6244,0.6244,0.6244,0.622,0.5911,0.5793,0.5789,0.5657,0.5755,0.6176,0.8311,0.9252,0.9653,2.3595,2.3595,2.352,2.3278,2.3078,2.2875,2.2621,2.2077,2.1605,2.1366,2.0988,2.0556,2.0171,2.0099,2.0176,2.0383,2.0751,2.1095,2.1356,2.1117,2.0735,2.0194,1.994,1.9798,1.9798,1.9798,1.9798,1.9798,1.9798,1.9798,1.9798,1.9798,1.9579,1.9097,1.9097,1.8715,1.8015,1.8015,1.7841,1.7578,1.709,1.6765,1.6436,1.5979,1.5332,1.4569,1.3726,1.294,1.2143,1.1351,1.0863,1.0624,1.0624,1.0624,1.0491,0.9977,0.9786,0.9633,0.8949,0.9058,0.8907,0.7413,0.6657,0.6031,0.5181,0.4809,0.4728,0.506,0.4942,0.485,0.5087,0.5013,0.5149,0.5864,0.559,0.5352,0.5631,0.537,0.4988,0.4543,0.4548,0.4565,0.4525,0.4602,0.4728,0.4826,0.5016,0.5172,0.527,0.5328,0.5428,0.5428,0.5428,0.5406,0.5501,0.5504,0.5504,0.5504,0.5504,0.5606,0.5803,0.5898,0.6057,0.6338,0.6338,0.6338,0.6244,0.603,0.6,0.6071,0.5922,0.6316,0.7206,0.8692,0.9665,1.0415,2.3879,2.3744,2.3595,2.3595,2.3595,2.3595,2.3595,2.3246,2.2992,2.3014,2.2583,2.2083,2.1425,2.14,2.122,2.0796,2.113,2.1402,2.1445,2.1567,2.113,1.9862,1.9798,1.9798,1.9798,1.9798,1.9798,1.9798,1.9798,1.9798,1.9798,1.9798,1.9423,1.8715,1.8715,1.8167,1.7246,1.7246,1.7135,1.6856,1.6368,1.6026,1.5728,1.5225,1.451,1.3726,1.294,1.2266,1.171,1.0863,1.0624,1.0624,1.0624,1.0428,1.004,0.9134,0.8877,0.8683,0.7832,0.8027,0.8168,0.6746,0.6125,0.5615,0.4973,0.4684,0.4633,0.4992,0.4904,0.4853,0.5148,0.5084,0.514,0.5683,0.5269,0.4966,0.5453,0.5065,0.4724,0.4619,0.4697,0.4721,0.4616,0.4741,0.487,0.4975,0.5121,0.525,0.5422,0.5428,0.5428,0.5428,0.541,0.5504,0.5654,0.5562,0.5518,0.5518,0.5566,0.5664,0.5806,0.5959,0.6115,0.6338,0.6338,0.6338,0.6247,0.6095,0.6091,0.6176,0.6071,0.6686,0.7849,0.8893,0.997,1.0932,2.4448,2.4088,2.361,2.361,2.361,2.361,2.3595,2.3595,2.3615,2.3699,2.3692,2.3427,2.2711,2.2618,2.2086,2.0822,2.0731,2.0722,2.0797,2.1358,2.113,1.9862,1.9798,1.9811,1.9798,1.9798,1.9798,1.9798,1.9798,1.9798,1.9798,1.9798,1.9423,1.8715,1.8715,1.7852,1.6492,1.6492,1.6093,1.541,1.541,1.4932,1.4204,1.4204,1.3666,1.2887,1.2081,1.1834,1.1648,1.0863,1.0624,1.0624,1.0561,0.9983,0.9139,0.8221,0.7962,0.7832,0.6915,0.6719,0.6612,0.643,0.5639,0.488,0.4724,0.4691,0.4735,0.4887,0.4921,0.5009,0.5308,0.5237,0.5131,0.5131,0.5131,0.5081,0.4938,0.4921,0.4921,0.4918,0.4921,0.4921,0.4918,0.5047,0.5131,0.5131,0.5274,0.5428,0.5432,0.5428,0.5428,0.5428,0.5511,0.5657,0.5796,0.5508,0.5432,0.5435,0.5518,0.5664,0.581,0.5962,0.6115,0.6338,0.6338,0.6338,0.6247,0.6095,0.603,0.603,0.603,0.6615,0.7664,0.8835,0.9965,1.0932,2.4537,2.4837,2.4866,2.4403,2.4313,2.4163,2.367,2.4008,2.4292,2.4312,2.4729,2.4798,2.4113,2.3638,2.305,2.219,2.1654,2.1418,2.1431,2.1202,2.1082,2.1135,2.0733,2.0308,1.9798,1.9798,1.9798,1.9798,1.9798,1.9798,1.9798,1.9254,1.8608,1.7907,1.7413,1.6641,1.5748,1.5748,1.5274,1.4569,1.4569,1.4085,1.3373,1.3373,1.2879,1.2143,1.1888,1.1469,1.0926,1.0681,1.0624,1.0491,0.9849,0.953,0.9011,0.7502,0.7111,0.6915,0.6009,0.5815,0.5687,0.5414,0.5209,0.4972,0.4613,0.4697,0.4863,0.4911,0.4999,0.5128,0.5325,0.5325,0.5257,0.5148,0.5131,0.5081,0.4938,0.5006,0.503,0.4931,0.5006,0.503,0.4928,0.5047,0.5131,0.5131,0.5372,0.5566,0.5664,0.5576,0.5521,0.5521,0.5566,0.561,0.5654,0.5566,0.5627,0.583,0.5769,0.5817,0.5966,0.6122,0.6217,0.6338,0.6338,0.6338,0.6257,0.621,0.6129,0.603,0.603,0.6615,0.7647,0.8739,0.9818,1.0932,2.5332,2.548,2.5405,2.4731,2.4597,2.4432,2.4059,2.41,2.4487,2.5303,2.5529,2.5563,2.5414,2.4805,2.4046,2.3126,2.2221,2.1697,2.1697,2.1595,2.15,2.1342,2.1197,2.0868,2.0194,1.9952,1.9798,1.9798,1.9798,1.9643,1.9371,1.8927,1.8167,1.7146,1.6708,1.5911,1.4932,1.4932,1.4451,1.3734,1.3734,1.3243,1.2512,1.2512,1.202,1.1351,1.1351,1.0982,1.0624,1.0624,1.0624,1.0434,0.9594,0.9274,0.8947,0.7242,0.6719,0.6527,0.562,0.5428,0.5304,0.5064,0.5067,0.5043,0.4718,0.4785,0.4935,0.4992,0.507,0.5179,0.5332,0.5428,0.5332,0.5237,0.522,0.5192,0.5108,0.5169,0.5189,0.5104,0.5169,0.5189,0.5104,0.5172,0.5247,0.5308,0.5535,0.5711,0.5796,0.5722,0.5674,0.5674,0.5674,0.5701,0.5762,0.5705,0.5762,0.5939,0.5908,0.5939,0.6034,0.619,0.6338,0.6338,0.6338,0.6338,0.6254,0.6196,0.6115,0.603,0.603,0.6912,0.8235,0.8911,1.0142,1.1452,2.6494,2.6141,2.5553,2.4893,2.4762,2.4773,2.4702,2.4177,2.4461,2.6253,2.6006,2.5875,2.6435,2.5918,2.5029,2.3778,2.2482,2.1758,2.1805,2.2346,2.2175,2.1042,2.1438,2.1424,2.0795,2.0144,1.9747,1.9695,1.9695,1.9307,1.8608,1.8555,1.7797,1.6492,1.6425,1.5613,1.4332,1.4204,1.3726,1.3009,1.2948,1.2389,1.171,1.171,1.1226,1.0624,1.0624,1.0624,1.0624,1.0624,1.0624,1.0434,0.9594,0.9274,0.8947,0.7242,0.6719,0.6527,0.562,0.5428,0.5328,0.5186,0.5152,0.5111,0.4955,0.4942,0.4992,0.5108,0.5142,0.5196,0.5335,0.5428,0.5428,0.5428,0.5428,0.5428,0.5428,0.5428,0.5428,0.5428,0.5428,0.5428,0.5428,0.5439,0.545,0.5616,0.5749,0.5827,0.584,0.583,0.5823,0.5823,0.5823,0.5888,0.6027,0.5905,0.584,0.5844,0.5969,0.6037,0.6054,0.6196,0.6254,0.624,0.6254,0.6244,0.621,0.6084,0.6013,0.5989,0.6064,0.731,0.9098,0.9309,1.0611,1.2265,2.6552,2.6924,2.6956,2.6278,2.615,2.6014,2.547,2.5255,2.5336,2.5766,2.6129,2.6455,2.657,2.5963,2.5258,2.4528,2.2772,2.1899,2.2452,2.2603,2.2558,2.2314,2.1913,2.1424,2.0795,2.0144,1.9527,1.8939,1.8939,1.8555,1.7852,1.7257,1.6821,1.6492,1.5921,1.5459,1.5108,1.4451,1.3726,1.2948,1.2328,1.1593,1.0863,1.0863,1.0744,1.0624,1.0624,1.0624,1.0624,1.0624,1.0624,1.0434,0.9594,0.9274,0.8947,0.7242,0.6719,0.6527,0.562,0.5428,0.5418,0.5321,0.5311,0.5243,0.4979,0.5101,0.524,0.5148,0.5226,0.5321,0.5422,0.5428,0.5428,0.5428,0.5428,0.5428,0.5428,0.5428,0.5428,0.5428,0.5428,0.5428,0.5428,0.5471,0.565,0.5915,0.5962,0.6034,0.6156,0.6047,0.5979,0.5979,0.5979,0.5996,0.603,0.6118,0.6162,0.6159,0.6071,0.6095,0.621,0.6244,0.6196,0.6088,0.6207,0.6125,0.5908,0.5993,0.5895,0.5755,0.6441,0.7561,0.8983,0.9678,1.0959,1.2291,2.7075,2.7355,2.7275,2.6299,2.6108,2.6025,2.5667,2.5045,2.5118,2.6366,2.6027,2.5884,2.6546,2.5744,2.4862,2.4238,2.3214,2.2634,2.2675,2.2678,2.242,2.1799,2.1452,2.0966,2.0359,1.9619,1.9097,1.8715,1.8715,1.8124,1.709,1.6652,1.6322,1.5921,1.5157,1.4628,1.4213,1.3416,1.2573,1.1849,1.1413,1.0989,1.0624,1.0624,1.0624,1.0624,1.0624,1.0624,1.0624,1.0624,1.0624,1.0491,1.004,0.9913,0.9588,0.7827,0.7307,0.7051,0.5752,0.5428,0.5428,0.5428,0.5428,0.5387,0.5165,0.525,0.5338,0.5257,0.5304,0.5428,0.5428,0.5428,0.5428,0.5428,0.5428,0.5456,0.546,0.5471,0.5494,0.5562,0.5572,0.5572,0.5572,0.5708,0.5864,0.6017,0.6098,0.6176,0.6257,0.6183,0.6139,0.6139,0.6139,0.6139,0.6139,0.622,0.6338,0.6335,0.6179,0.6183,0.6338,0.6338,0.6176,0.6034,0.6557,0.6424,0.5911,0.6353,0.6187,0.5768,0.6816,0.778,0.8764,0.9833,1.0866,1.1717,2.7625,2.7625,2.727,2.6165,2.592,2.592,2.5802,2.4717,2.4702,2.6797,2.5648,2.5047,2.6198,2.5379,2.4453,2.3683,2.3465,2.3187,2.2672,2.2555,2.2035,2.0845,2.0795,2.0446,1.9631,1.898,1.8661,1.8501,1.8394,1.7622,1.6322,1.6322,1.5911,1.5177,1.451,1.3726,1.2948,1.2143,1.1406,1.08,1.0681,1.0624,1.0624,1.0624,1.0624,1.0624,1.0624,1.0624,1.0624,1.0624,1.0624,1.0624,1.0624,1.0498,1.004,0.8479,0.7892,0.7442,0.5818,0.5428,0.5428,0.5428,0.5449,0.5459,0.5432,0.5428,0.5428,0.5428,0.5428,0.5428,0.5428,0.5428,0.5428,0.5428,0.5428,0.5473,0.5535,0.5576,0.5633,0.5752,0.5786,0.5813,0.5837,0.5956,0.604,0.6067,0.6186,0.6338,0.6338,0.6338,0.6338,0.6338,0.6338,0.6338,0.6338,0.6338,0.6338,0.6338,0.6338,0.6338,0.6338,0.6338,0.6162,0.5993,0.6775,0.6752,0.6236,0.6845,0.6793,0.6444,0.7385,0.8183,0.8869,1.0108,1.0773,1.1142,2.7625,2.7625,2.755,2.7355,2.7331,2.7124,2.6549,2.5809,2.5255,2.5,2.4761,2.4776,2.5181,2.5354,2.4973,2.3713,2.2965,2.2512,2.2434,2.2067,2.1534,2.0845,2.0795,2.0181,1.8874,1.8768,1.8394,1.7743,1.709,1.6368,1.5526,1.5526,1.5099,1.4392,1.4273,1.3726,1.2948,1.2143,1.1772,1.1593,1.0863,1.0624,1.0624,1.0624,1.0624,1.0624,1.0624,1.0624,1.0624,1.0624,1.0624,1.0624,1.0624,1.011,0.9268,0.8285,0.7437,0.6654,0.5686,0.5428,0.5428,0.5428,0.546,0.5525,0.5459,0.5428,0.5428,0.5428,0.5428,0.5428,0.5428,0.5428,0.5428,0.5428,0.5428,0.5435,0.5456,0.5504,0.5596,0.5616,0.5728,0.5854,0.5986,0.6017,0.6084,0.622,0.6247,0.6338,0.6338,0.6338,0.6338,0.6338,0.6338,0.6338,0.6338,0.6338,0.6338,0.6338,0.6338,0.6338,0.6338,0.6338,0.6105,0.5847,0.6263,0.6667,0.6965,0.7024,0.7641,0.8439,0.8909,0.9382,0.9984,1.0893,1.1299,1.1416,2.7625,2.7625,2.7455,2.7096,2.6711,2.6402,2.6071,2.5137,2.4657,2.5121,2.4515,2.4217,2.4701,2.4594,2.4245,2.3668,2.2872,2.2211,2.1694,2.138,2.0917,2.0258,1.9876,1.9347,1.8715,1.7907,1.7302,1.6978,1.6652,1.6151,1.541,1.541,1.5225,1.4864,1.4392,1.3726,1.2948,1.2143,1.1531,1.1108,1.0744,1.0624,1.0624,1.0624,1.0624,1.0624,1.0624,1.0624,1.0624,1.0624,1.0624,1.0498,1.0047,0.9594,0.904,0.7778,0.7078,0.6634,0.5855,0.5549,0.5491,0.5491,0.5542,0.5572,0.5504,0.5549,0.5559,0.5463,0.5491,0.5555,0.5459,0.5433,0.5491,0.5491,0.5491,0.5545,0.5711,0.5793,0.5867,0.5952,0.602,0.6084,0.6152,0.6159,0.6186,0.6254,0.6338,0.6338,0.6338,0.6338,0.6338,0.6338,0.6338,0.6338,0.6338,0.6338,0.6338,0.6338,0.6338,0.6338,0.6338,0.6338,0.6139,0.5935,0.6585,0.704,0.733,0.7834,0.8447,0.9,0.9644,1.0305,1.0829,1.0923,1.1042,1.1223]},{"header":{"parameterUnit":"m.s-1","parameterCategory":1,"la1":30.6,"la2":28.766,"lo1":-90.7593,"lo2":-88.6598,"dy":0.0162,"dx":0.0183,"nx":116,"ny":114,"refTime":"2023-09-08T06:00:00:Z","depth":0,"parameterNumber":3,"parameterNumberName":"V-component_of_WINDS"},"data":[0.0,0.0,0.0,0.0,0.0,0.0,0.0,0.0,0.0,0.0,0.0,0.0,0.0,0.0,0.0,0.0,0.0,0.0,0.0,0.0,0.0,0.0,0.0,0.0,0.0,0.0,0.0,0.0,0.0,0.0,0.0,0.0,0.0,0.0,0.0,0.0,0.0,0.0,0.0,0.0,0.0,0.0,0.0,0.0,0.0,0.0,0.0,0.0,0.0,0.0,0.0,0.0,0.0,0.0,0.0,0.0,0.0,0.0,0.0,0.0,0.0,0.0,0.0,0.0,0.0,0.0,0.0,0.0,0.0,0.0,0.0,0.0,0.0,0.0,0.0,0.0,0.0,0.0,0.0,0.0,0.0,0.0,0.0,0.0,0.0,0.0,0.0,0.0,0.0,0.0,0.0,0.0,0.0,0.0,0.0,0.0,0.0,0.0,0.0,0.0,0.0,0.0,0.0,0.0,0.0,0.0,0.0,0.0,0.0,0.0,0.0,0.0,0.0,0.0,0.0,0.0,0.0,0.0,0.0,0.0,0.0,0.0,0.0,0.0,0.0,0.0,0.0,0.0,0.0,0.0,0.0,0.0,0.0,0.0,0.0,0.0,0.0,0.0,0.0,0.0,0.0,0.0,0.0,0.0,0.0,0.0,0.0,0.0,0.0,0.0,0.0,0.0,0.0,0.0,0.0,0.0,0.0,0.0,0.0,0.0,0.0,0.0,0.0,0.0,0.0,0.0,0.0,0.0,0.0,0.0,0.0,0.0,0.0,0.0,0.0,0.0,0.0,0.0,0.0,0.0,0.0,0.0,0.0,0.0,0.0,0.0,0.0,0.0,0.0,0.0,0.0,0.0,0.0,0.0,0.0,0.0,0.0,0.0,0.0,0.0,0.0,0.0,0.0,0.0,0.0,0.0,0.0,0.0,0.0,0.0,0.0,0.0,0.0,0.0,0.0,0.0,0.0,0.0,0.0,0.0,0.0,0.0,0.0,0.0,0.0,0.0,0.0,0.0,0.0,0.0,0.0,0.0,0.0,0.0,0.0,0.0,0.0,0.0,0.0,0.0,0.0,0.0,0.0,0.0,0.0,0.0,0.0,0.0,0.0,0.0,0.0,0.0,0.0,0.0,0.0,0.0,0.0,0.0,0.0,0.0,0.0,0.0,0.0,0.0,0.0,0.0,0.0,0.0,0.0,0.0,0.0,0.0,0.0,0.0,0.0,0.0,0.0,0.0,0.0,0.0,0.0,0.0,0.0,0.0,0.0,0.0,0.0,0.0,0.0,0.0,0.0,0.0,0.0,0.0,0.0,0.0,0.0,0.0,0.0,0.0,0.0,0.0,0.0,0.0,0.0,0.0,0.0,0.0,0.0,0.0,0.0,0.0,0.0,0.0,0.0,0.0,0.0,0.0,0.0,0.0,0.0,0.0,0.0,0.0,0.0,0.0,0.0,0.0,0.0,0.0,0.0,0.0,0.0,0.0,0.0,0.0,0.0,0.0,0.0,0.0,0.0,0.0,0.0,0.0,0.0,0.0,0.0,0.0,0.0,0.0,0.0,0.0,0.0,0.0,0.0,0.0,0.0,0.0,0.0,0.0,0.0,0.0,0.0,0.0,0.0,0.0,0.0,0.0,0.0,0.0,0.0,0.0,0.0,0.0,0.0,0.0,0.0,0.0,0.0,0.0,0.0,0.0,0.0,0.0,0.0,0.0,0.0,0.0,0.0,0.0,0.0,0.0,0.0,0.0,0.0,0.0,0.0,0.0,0.0,0.0,0.0,0.0,0.0,0.0,0.0,0.0,0.0,0.0,0.0,0.0,0.0,0.0,0.0,0.0,0.0,0.0,0.0,0.0,0.0,0.0,0.0,0.0,0.0,0.0,0.0,0.0,0.0,0.0,0.0,0.0,0.0,0.0,0.0,0.0,0.0,0.0,0.0,0.0,0.0,0.0,0.0,0.0,0.0,0.0,0.0,0.0,0.0,0.0,0.0,0.0,0.0,0.0,0.0,0.0,0.0,0.0,0.0,0.0,0.0,0.0,0.0,0.0,0.0,0.0,0.0,0.0,0.0,0.0,0.0,0.0,0.0,0.0,0.0,0.0,0.0,0.0,0.0,0.0,0.0,0.0,0.0,0.0,0.0,0.0,0.0,0.0,0.0,0.0,0.0,0.0,0.0,0.0,0.0,0.0,0.0,0.0,0.0,0.0,0.0,0.0,0.0,0.0,0.0,0.0,0.0,0.0,0.0,0.0,0.0,0.0,0.0,0.0,0.0,0.0,0.0,0.0,0.0,0.0,0.0,0.0,0.0,0.0,0.0,0.0,0.0,0.0,0.0,0.0,0.0,0.0,0.0,0.0,0.0,0.0,0.0,0.0,0.0,0.0,0.0,0.0,0.0,0.0,0.0,0.0,0.0,0.0,0.0,0.0,0.0,0.0,0.0,0.0,0.0,0.0,0.0,0.0,0.0,0.0,0.0,0.0,0.0,0.0,0.0,0.0,0.0,0.0,0.0,0.0,0.0,0.0,0.0,0.0,0.0,0.0,0.0,0.0,0.0,0.0,0.0,0.0,0.0,0.0,0.0,0.0,0.0,0.0,0.0,0.0,0.0,0.0,0.0,0.0,0.0,0.0,0.0,0.0,0.0,0.0,0.0,0.0,0.0,0.0,0.0,0.0,0.0,0.0,0.0,0.0,0.0,0.0,0.0,0.0,0.0,0.0,0.0,0.0,0.0,0.0,0.0,0.0,0.0,0.0,0.0,0.0,0.0,0.0,0.0,0.0,0.0,0.0,0.0,0.0,0.0,0.0,0.0,0.0,0.0,0.0,0.0,0.0,0.0,0.0,0.0,0.0,0.0,0.0,0.0,0.0,0.0,0.0,0.0,0.0,0.0,0.0,0.0,0.0,0.0,0.0,0.0,0.0,0.0,0.0,0.0,0.0,0.0,0.0,0.0,0.0,0.0,0.0,0.0,0.0,0.0,0.0,0.0,0.0,0.0,0.0,0.0,0.0,0.0,0.0,0.0,0.0,0.0,0.0,0.0,0.0,0.0,0.0,0.0,0.0,0.0,0.0,0.0,0.0,0.0,0.0,0.0,0.0,0.0,0.0,0.0,0.0,0.0,0.0,0.0,0.0,0.0,0.0,0.0,0.0,0.0,0.0,0.0,0.0,0.0,0.0,0.0,0.0,0.0,0.0,0.0,0.0,0.0,0.0,0.0,0.0,0.0,0.0,0.0,0.0,0.0,0.0,0.0,0.0,0.0,0.0,0.0,0.0,0.0,0.0,0.0,0.0,0.0,0.0,0.0,0.0,0.0,0.0,0.0,0.0,0.0,0.0,0.0,0.0,0.0,0.0,0.0,0.0,0.0,0.0,0.0,0.0,0.0,0.0,0.0,0.0,0.0,0.0,0.0,0.0,0.0,0.0,0.0,0.0,0.0,0.0,0.0,0.0,0.0,0.0,0.0,0.0,0.0,0.0,0.0,0.0,0.0,0.0,0.0,0.0,0.0,0.0,0.0,0.0,0.0,0.0,0.0,0.0,0.0,0.0,0.0,0.0,0.0,0.0,0.0,0.0,0.0,0.0,0.0,0.0,0.0,0.0,0.0,0.0,0.0,0.0,0.0,0.0,0.0,0.0,0.0,0.0,0.0,0.0,0.0,0.0,0.0,0.0,0.0,0.0,0.0,0.0,0.0,0.0,0.0,0.0,0.0,0.0,0.0,0.0,0.0,0.0,0.0,0.0,0.0,0.0,0.0,0.0,0.0,0.0,0.0,0.0,0.0,0.0,0.0,0.0,0.0,0.0,0.0,0.0,0.0,0.0,0.0,0.0,0.0,0.0,0.0,0.0,0.0,0.0,0.0,0.0,0.0,0.0,0.0,0.0,0.0,0.0,0.0,0.0,0.0,0.0,0.0,0.0,0.0,0.0,0.0,0.0,0.0,0.0,0.0,0.0,0.0,0.0,0.0,0.0,0.0,0.0,0.0,0.0,0.0,0.0,0.0,0.0,0.0,0.0,0.0,0.0,0.0,0.0,0.0,0.0,0.0,0.0,0.0,0.0,0.0,0.0,0.0,0.0,0.0,0.0,0.0,0.0,0.0,0.0,0.0,0.0,0.0,0.0,0.0,0.0,0.0,0.0,0.0,0.0,0.0,0.0,0.0,0.0,0.0,0.0,0.0,0.0,0.0,0.0,0.0,0.0,0.0,0.0,0.0,0.0,0.0,0.0,0.0,0.0,0.0,0.0,0.0,0.0,0.0,0.0,0.0,0.0,0.0,0.0,0.0,0.0,0.0,0.0,0.0,0.0,0.0,0.0,0.0,0.0,0.0,0.0,0.0,0.0,0.0,0.0,0.0,0.0,0.0,0.0,0.0,0.0,0.0,0.0,0.0,0.0,0.0,0.0,0.0,0.0,0.0,0.0,0.0,0.0,0.0,0.0,0.0,0.0,0.0,0.0,0.0,0.0,0.0,0.0,0.0,0.0,0.0,0.0,0.0,0.0,0.0,0.0,0.0,0.0,0.0,0.0,0.0,0.0,0.0,0.0,0.0,0.0,0.0,0.0,0.0,0.0,0.0,0.0,0.0,0.0,0.0,0.0,0.0,0.0,0.0,0.0,0.0,0.0,0.0,0.0,0.0,0.0,0.0,0.0,0.0,0.0,0.0,0.0,0.0,0.0,0.0,0.0,0.0,0.0,0.0,0.0,0.0,0.0,0.0,0.0,0.0,0.0,0.0,0.0,0.0,0.0,0.0,0.0,0.0,0.0,0.0,0.0,0.0,0.0,0.0,0.0,0.0,0.0,0.0,0.0,0.0,0.0,0.0,0.0,0.0,0.0,0.0,0.0,0.0,0.0,0.0,0.0,0.0,0.0,0.0,0.0,0.0,0.0,0.0,0.0,0.0,0.0,0.0,0.0,0.0,0.0,0.0,0.0,0.0,0.0,0.0,0.0,0.0,0.0,0.0,0.0,0.0,0.0,0.0,0.0,0.0,0.0,0.0,0.0,0.0,0.0,0.0,0.0,0.0,0.0,0.0,0.0,0.0,0.0,0.0,0.0,0.0,0.0,0.0,0.0,0.0,0.0,0.0,0.0,0.0,0.0,0.0,0.0,0.0,0.0,0.0,0.0,0.0,0.0,0.0,0.0,0.0,0.0,0.0,0.0,0.0,0.0,0.0,0.0,0.0,0.0,0.0,0.0,0.0,0.0,0.0,0.0,0.0,0.0,0.0,0.0,0.0,0.0,0.0,0.0,0.0,0.0,0.0,0.0,0.0,0.0,0.0,0.0,0.0,0.0,0.0,0.0,0.0,0.0,0.0,0.0,0.0,0.0,0.0,0.0,0.0,0.0,0.0,0.0,0.0,0.0,0.0,0.0,0.0,0.0,0.0,0.0,0.0,0.0,0.0,0.0,0.0,0.0,0.0,0.0,0.0,0.0,0.0,0.0,0.0,0.0,0.0,0.0,0.0,0.0,0.0,0.0,0.0,0.0,0.0,0.0,0.0,0.0,0.0,0.0,0.0,0.0,0.0,0.0,0.0,0.0,0.0,0.0,0.0,0.0,0.0,0.0,0.0,0.0,0.0,0.0,0.0,0.0,0.0,0.0,0.0,0.0,0.0,0.0,0.0,0.0,0.0,0.0,0.0,0.0,0.0,0.0,0.0,0.0,0.0,0.0,0.0,0.0,0.0,0.0,0.0,0.0,0.0,0.0,0.0,0.0,0.0,0.0,0.0,0.0,0.0,0.0,0.0,0.0,0.0,0.0,0.0,0.0,0.0,0.0,0.0,0.0,0.0,0.0,0.0,0.0,0.0,0.0,0.0,0.0,0.0,0.0,0.0,0.0,0.0,0.0,0.0,0.0,0.0,0.0,0.0,0.0,0.0,0.0,0.0,0.0,0.0,0.0,0.0,0.0,0.0,0.0,0.0,0.0,0.0,0.0,0.0,0.0,0.0,0.0,0.0,0.0,0.0,0.0,0.0,0.0,0.0,0.0,0.0,0.0,0.0,0.0,0.0,0.0,0.0,0.0,0.0,0.0,0.0,0.0,0.0,0.0,0.0,0.0,0.0,0.0,0.0,0.0,0.0,0.0,0.0,0.0,1.0694,0.988,0.0,0.0,0.0,0.0,0.0,0.0,0.0,0.0,0.0,0.0,0.0,0.0,0.0,0.0,0.0,0.0,0.0,0.0,0.0,0.0,0.0,0.0,0.0,0.0,0.0,0.0,0.0,0.0,0.0,0.0,0.0,0.0,0.0,0.0,0.0,0.0,0.0,0.0,0.0,0.0,0.0,0.0,0.0,0.0,0.0,0.0,0.0,0.0,0.0,0.0,0.0,0.0,0.0,0.0,0.0,0.0,0.0,0.0,0.0,0.0,0.0,0.0,0.0,0.0,0.0,0.0,0.0,0.0,0.0,0.0,0.0,0.0,0.0,0.0,0.0,0.0,0.0,0.0,0.0,0.0,0.0,0.0,0.0,0.0,0.0,0.0,0.0,0.0,0.0,0.0,0.0,0.0,0.0,0.0,0.0,0.0,0.0,0.0,0.0,0.0,0.0,0.0,0.0,0.0,0.0,0.0,0.0,0.0,0.0,0.0,0.0,0.0,0.0,0.0,1.2837,1.1789,0.0,0.0,0.0,0.0,0.0,0.0,0.0,0.0,0.0,0.0,0.0,0.0,0.0,0.0,0.0,0.0,0.0,0.0,0.0,0.0,0.0,0.0,0.0,0.0,-0.593,-0.5854,-0.528,0.0,0.0,0.0,0.0,0.0,0.0,0.0,0.0,0.0,0.0,0.0,0.0,0.0,0.0,0.0,0.0,0.0,0.0,0.0,0.0,0.0,0.0,0.0,0.0,0.0,0.0,0.0,0.0,0.0,0.0,0.0,0.0,0.0,0.0,0.0,0.0,0.0,0.0,0.0,0.0,0.0,0.0,0.0,0.0,0.0,0.0,0.0,0.0,0.0,0.0,0.0,0.0,0.0,0.0,0.0,0.0,0.0,0.0,0.0,0.0,0.0,0.0,0.0,0.0,0.0,0.0,0.0,0.0,0.0,0.0,0.0,0.0,0.0,0.0,0.0,0.0,0.0,0.0,0.0,0.0,0.0,1.7073,1.7293,1.6581,1.7482,1.7781,1.7427,1.5469,1.4385,1.3844,1.2771,0.0,0.0,0.0,0.0,0.0,0.0,0.0,0.0,0.0,0.0,0.0,0.0,0.0,0.0,0.0,0.0,0.0,0.0,0.0,0.0,0.0,-0.6118,-0.6456,-0.6082,-0.567,-0.5345,0.0,0.0,0.0,0.0,0.0,0.0,0.0,0.0,0.0,0.0,0.0,0.1718,0.1968,0.1914,0.3292,0.586,0.6416,0.0,0.0,0.0,0.0,0.0,0.0,0.0,0.0,0.0,0.0,0.0,0.0,0.0,0.0,0.0,0.0,0.0,0.0,0.0,0.0,0.0,0.0,0.0,0.0,0.0,0.0,0.0,0.0,0.0,0.0,0.0,0.0,0.0,0.0,0.0,0.0,0.0,0.0,0.0,0.0,0.0,0.0,0.0,0.9141,0.7898,0.0,0.0,0.0,0.0,0.0,0.0,0.0,0.0,0.0,0.0,0.0,0.0,0.0,1.3286,1.4898,1.7225,1.859,1.9043,2.1702,2.1869,1.9827,2.0411,2.0262,1.9467,1.897,0.0,1.6655,1.4615,0.0,0.0,0.0,0.0,0.0,0.0,0.0,0.0,0.0,0.0,0.0,0.0,0.0,0.0,0.0,0.0,0.0,0.0,0.0,0.0,0.0,-0.7551,-0.7981,-0.7403,-0.8019,-0.7896,-0.663,0.0,0.0,0.0,0.0,0.0,0.0,0.0,0.0,0.0,0.0309,0.1182,0.2073,0.1232,0.1468,0.2686,0.5294,0.6172,0.5749,0.7496,0.0,0.0,0.0,0.0,0.0,0.0,0.0,0.0,0.0,0.0,0.0,0.0,0.0,0.0,0.0,0.0,0.0,0.0,0.0,0.0,0.0,0.0,0.0,0.0,0.0,0.0,0.0,0.0,0.0,0.0,0.0,0.0,0.0,0.0,0.0,0.0,0.0,0.0,0.0,1.0162,1.1115,1.0096,1.1186,1.1771,0.0,0.0,0.0,0.0,0.0,0.0,0.0,0.0,0.0,1.2666,1.3631,1.4441,1.5281,1.7935,1.9358,1.9561,2.2,2.2441,2.1288,2.196,2.1907,2.1367,2.1262,2.0732,1.9707,1.7105,1.5518,1.4532,0.0,0.0,0.0,0.0,1.1098,1.1368,0.0,0.0,0.0,0.0,0.0,0.0,0.0,0.0,0.0,0.0,0.0,0.0,-0.7636,-0.892,-0.9603,-0.9213,-0.9911,-0.9688,-0.8091,-0.6904,0.0,0.0,0.0,0.0,0.0,0.0,0.0,-0.1369,-0.0462,0.1061,0.3143,0.2084,0.1386,0.1088,0.4219,0.4844,0.3779,0.6643,0.8009,0.0,0.0,0.0,0.0,0.0,0.0,0.0,0.0,0.0,0.0,0.0,0.0,0.0,0.0,0.0,0.0,0.0,0.0,0.0,0.0,0.0,0.0,0.0,0.0,0.0,0.0,0.0,0.0,0.0,0.0,0.0,0.0,0.0,0.0,0.0,0.0,0.0,0.0,1.1424,1.2877,1.2055,1.3244,1.3768,0.0,0.0,0.0,0.0,0.0,0.0,1.2657,1.3214,1.3606,1.3851,1.5272,1.6004,1.6007,1.871,2.0063,2.0072,2.1798,2.251,2.2227,2.2852,2.2969,2.2676,2.2676,2.2432,2.1836,1.9265,1.7504,1.6276,1.4967,1.4051,1.3401,1.2526,1.2329,1.2421,0.0,0.0,0.0,0.0,0.0,0.0,0.0,0.0,0.0,0.0,0.0,-0.7072,-0.8399,-0.9831,-1.0939,-1.1481,-1.0223,-0.9268,-0.9057,-0.7387,-0.5966,-0.4971,-0.4388,0.0,0.0,0.0,0.0,-0.5148,-0.1686,0.208,0.6067,0.5989,0.5104,0.3458,0.3614,0.3772,0.4015,0.5779,0.7156,0.8142,0.0,0.0,0.0,0.0,0.0,0.0,0.0,0.0,0.0,0.0,0.0,0.0,0.0,0.0,0.0,0.0,0.0,0.0,0.0,0.0,0.0,0.0,0.0,0.0,0.0,0.0,0.0,0.0,0.0,0.0,0.0,0.0,0.0,0.0,0.0,0.0,0.0,0.0,0.0,1.2724,1.5097,0.0,0.0,0.0,0.0,1.2624,1.3127,1.3703,1.4198,1.481,1.5293,1.5645,1.7269,1.8243,1.8476,2.0746,2.1907,2.1898,2.2653,2.3096,2.3076,2.3125,2.3125,2.3105,2.3105,2.2871,2.2344,2.0527,1.9512,1.8965,1.7734,1.6543,1.5442,1.4387,1.351,1.2738,0.0,0.0,0.0,0.0,0.0,0.0,0.0,0.0,0.0,-0.5802,-0.6609,-0.799,-1.0292,-1.1206,-1.1987,-1.2785,-1.1807,-1.0907,-1.0257,-0.8732,-0.7172,-0.5524,-0.4686,-0.3575,0.0,0.0,-0.2448,-0.193,0.2107,0.4968,0.6787,0.6651,0.6222,0.557,0.5641,0.5681,0.5764,0.6044,0.6573,0.7206,0.6663,0.6906,0.0,0.0,0.0,0.0,0.0,0.0,0.0,0.0,0.0,0.0,0.0,0.0,0.0,0.0,0.0,0.0,0.0,0.0,0.0,0.0,0.0,0.0,0.0,0.0,0.0,0.0,0.0,0.0,0.0,0.0,0.0,0.0,0.0,0.0,0.0,0.0,0.0,1.7479,1.8873,0.0,1.7576,1.6272,1.5586,1.5654,1.5293,1.5315,1.6137,1.6375,1.663,1.6941,1.8253,1.9048,1.907,2.1585,2.2659,2.2396,2.3467,2.3818,2.3555,2.273,2.2678,2.3047,2.1498,2.1594,2.2775,2.1363,2.0566,2.001,1.848,1.7583,1.709,1.5822,1.5429,1.5562,0.0,0.0,0.0,0.0,0.0,0.0,0.0,0.0,-0.5183,-0.6313,-0.7355,-0.905,-1.1843,-1.2665,-1.3345,-1.4088,-1.3016,-1.1951,-1.1207,-0.9471,-0.7701,-0.611,-0.4976,-0.3936,0.0,-0.2221,-0.1224,0.0,0.2767,0.5169,0.6954,0.6882,0.6824,0.681,0.6797,0.6817,0.6837,0.6491,0.6412,0.6531,0.6193,0.6839,0.7928,0.0,0.0,0.0,0.0,0.0,0.0,0.0,0.0,0.0,0.0,0.0,0.0,0.0,0.0,0.0,0.0,0.0,0.0,0.0,0.0,0.0,0.0,0.0,0.0,0.0,0.0,0.0,0.0,0.0,0.0,0.0,0.0,0.0,0.0,0.0,2.0552,2.0837,2.1745,2.186,2.0595,1.888,1.8041,1.857,1.7289,1.7029,1.8226,1.8359,1.8352,1.845,2.0184,2.0925,2.0712,2.2868,2.3755,2.3476,2.4102,2.3982,2.3338,2.2364,2.1971,2.1968,2.0275,2.0404,2.1854,2.1033,2.0506,2.0181,1.9762,1.9251,1.867,1.7643,1.7209,1.7121,0.0,0.0,0.0,0.0,0.0,0.0,0.0,-0.5226,-0.5819,-0.6848,-0.8209,-1.0161,-1.295,-1.4054,-1.4802,-1.5451,-1.3635,-1.2259,-1.1832,-0.9408,-0.7544,-0.6732,-0.5354,-0.4588,-0.4507,-0.2351,-0.0875,0.0,0.0,0.2303,0.6708,0.7012,0.7066,0.6943,0.6949,0.7027,0.7146,0.7007,0.6698,0.6311,0.634,0.7154,0.8298,0.0,0.0,0.0,0.0,0.0,0.0,0.0,0.0,0.0,0.0,0.0,0.0,0.0,0.0,0.0,0.0,0.0,0.0,0.0,0.0,0.0,0.0,0.0,0.0,0.0,0.0,0.0,0.0,0.0,0.0,0.0,0.0,0.0,1.7108,1.9648,2.1698,2.2357,2.3644,2.3683,2.1869,2.1293,2.1097,2.1142,1.9302,1.8805,2.0378,2.0672,2.0587,2.0272,2.2851,2.4106,2.371,2.463,2.5117,2.5088,2.4658,2.3784,2.2425,2.214,2.1287,1.9915,1.957,1.9413,1.9497,1.9497,1.9497,1.9736,2.1689,2.1551,2.0186,1.977,1.8714,1.7365,0.0,0.0,0.0,0.0,0.0,0.0,0.0,-0.4351,-0.5261,-0.6431,-0.8286,-1.0673,-1.3588,-1.4045,-1.4477,-1.5213,-1.3034,-1.1225,-1.0208,-0.9324,-0.8023,-0.6128,-0.551,-0.4938,-0.452,-0.4754,-0.328,0.0,0.0,0.2414,0.7034,0.708,0.7122,0.7255,0.7366,0.7438,0.7472,0.7431,0.7343,0.7156,0.6525,0.6801,0.745,0.0,0.0,0.0,0.0,0.0,0.0,0.0,0.0,0.0,0.0,0.0,0.0,0.0,0.0,0.0,0.0,0.0,0.0,0.0,0.0,0.0,0.0,0.0,0.0,0.0,0.0,0.0,0.0,0.0,0.0,0.0,0.0,1.789,1.9289,2.1034,2.29,2.5065,2.5653,2.5655,2.5121,2.4062,2.3503,2.3781,2.2568,2.2243,2.2812,2.2683,2.2662,2.2457,2.4271,2.4896,2.4115,2.5648,2.6172,2.5557,2.543,2.5005,2.4297,2.232,2.1397,2.1261,1.8438,1.8074,1.9397,1.8596,1.868,1.9637,2.0781,2.1085,2.0947,2.0844,2.0292,1.958,0.0,0.0,0.0,0.0,0.0,0.0,0.0,-0.4272,-0.53,-0.6427,-0.8631,-1.1065,-1.3619,-1.4324,-1.4472,-1.4224,-1.2366,-1.0842,-0.9893,-0.9623,-0.8429,-0.593,-0.6229,-0.6071,-0.5274,-0.5974,-0.4205,0.0,0.0,0.1974,0.5818,0.6844,0.7343,0.7472,0.756,0.7634,0.7685,0.7533,0.7583,0.7743,0.7092,0.7368,0.7919,0.7178,0.731,0.7923,0.7396,0.7581,0.7967,0.7845,0.0,0.0,0.0,0.0,0.0,0.0,0.0,0.0,0.0,0.0,0.0,0.0,0.0,0.0,0.0,0.0,0.0,0.0,0.0,0.0,0.0,0.0,0.0,0.0,1.6442,1.8394,2.1058,2.2443,2.404,2.6647,2.6924,2.6924,2.6924,2.5778,2.5359,2.5973,2.4503,2.3938,2.4701,2.4622,2.4425,2.427,2.5672,2.6124,2.5479,2.6458,2.6768,2.6269,2.6094,2.5556,2.4683,2.2334,2.107,2.0687,1.7757,1.714,1.8153,1.7421,1.7428,1.8195,0.0,0.0,0.0,0.0,2.1064,2.0742,0.0,0.0,0.0,0.0,0.0,0.0,0.0,-0.467,-0.5653,-0.6649,-0.8988,-1.1267,-1.3049,-1.4342,-1.4499,-1.2995,-1.1768,-1.0909,-1.0326,-0.9927,-0.8586,-0.6133,-0.7112,-0.7294,-0.6302,-0.6308,-0.4538,-0.0841,-0.0258,0.123,0.3585,0.6353,0.7616,0.7628,0.7645,0.7723,0.7834,0.7525,0.7527,0.754,0.7481,0.8107,0.8948,0.7862,0.8271,0.9286,0.8321,0.7745,0.7629,0.8187,0.0,0.0,0.0,0.0,0.0,0.0,0.0,0.0,0.0,0.0,0.0,0.0,0.0,0.0,0.0,0.0,0.0,0.0,0.0,0.0,0.0,0.0,0.0,0.0,1.6967,1.8149,2.216,2.3504,2.4954,2.7428,2.7734,2.7734,2.7734,2.6952,2.6794,2.7659,2.5639,2.4931,2.6264,2.6381,0.0,0.0,0.0,2.7529,2.709,2.709,2.706,2.7012,2.6641,2.5796,2.4454,2.2429,2.0783,1.932,1.7652,1.6785,1.6319,1.6286,1.6195,1.6379,1.9753,2.097,2.0721,2.1173,2.1279,2.1172,0.0,0.0,0.0,0.0,0.0,0.0,0.0,-0.4626,-0.548,-0.6649,-0.8601,-1.0384,-1.1654,-1.2661,-1.3186,-1.3108,-1.1914,-1.0913,-1.0345,-0.8763,-0.7673,-0.7346,-0.6596,-0.6173,-0.627,-0.6518,-0.6322,-0.5744,-0.1892,0.0274,0.0914,0.5721,0.7894,0.7904,0.7926,0.7898,0.7922,0.7905,0.6708,0.482,0.5579,0.6804,0.8147,0.7606,0.7429,0.7424,0.7116,0.7633,0.8514,0.8679,0.9226,0.9904,1.0674,0.0,0.0,0.0,0.0,0.0,0.0,0.0,0.0,0.0,0.0,0.0,0.0,0.0,0.0,0.0,0.0,0.0,0.0,0.0,0.0,1.6541,1.7288,1.8554,2.1073,2.2812,2.4889,2.7815,2.8174,2.8174,2.8174,2.8019,2.7921,2.8174,2.7688,2.7511,2.7843,2.7843,2.7805,2.7718,2.8058,2.7969,2.7539,2.7539,2.7363,2.7012,2.6934,0.0,2.5958,2.4427,2.2676,2.0702,1.9368,1.7881,1.6607,1.6373,1.6663,1.7498,1.9222,2.0171,2.0748,2.1508,2.1543,2.1172,0.0,0.0,0.0,0.0,0.0,0.0,0.0,-0.5053,-0.5863,-0.7105,-0.8798,-1.0374,-1.1728,-1.2591,-1.2886,-1.2438,-1.1307,-1.0722,-1.0941,-0.949,-0.8513,-0.8276,-0.7949,-0.7356,-0.6738,-0.6824,-0.6946,-0.7105,-0.468,-0.2324,0.0095,0.2709,0.5412,0.7974,0.8048,0.7263,0.6039,0.7384,0.7184,0.5954,0.5541,0.6479,0.7945,0.7746,0.7614,0.7455,0.7231,0.7793,0.8726,0.915,0.9878,1.0695,1.1531,1.1015,1.0217,0.0,0.0,0.0,0.0,0.0,0.0,0.0,0.0,0.0,0.0,0.0,0.0,0.0,0.0,1.3949,0.0,0.0,1.622,1.819,1.8372,1.9002,2.1025,2.215,2.3888,2.7122,2.7978,2.8369,2.8584,2.8418,2.8291,2.8291,2.8291,2.8291,2.8291,2.8291,2.8291,2.8291,2.8291,2.8193,2.7978,2.7978,2.7871,2.7656,2.7441,2.6792,2.5637,2.4986,2.3099,2.0389,1.9964,1.865,1.6894,1.6453,1.6477,1.685,1.8133,1.9562,2.1047,2.1191,2.1406,2.1494,0.0,0.0,0.0,0.0,0.0,0.0,0.0,-0.5529,-0.6275,-0.7499,-0.8944,-1.0368,-1.1682,-1.2429,-1.2501,-1.1604,-1.0532,-1.0428,-1.1707,-1.059,-0.9723,-0.9337,-0.9155,-0.8447,-0.7122,-0.7156,-0.7151,-0.7116,-0.7175,-0.5214,-0.1462,-0.0489,0.2274,0.645,0.7582,0.6253,0.3314,0.5555,0.7,0.7824,0.5356,0.5856,0.7989,0.7925,0.7997,0.7953,0.7813,0.8117,0.8717,0.9841,1.0645,1.1347,1.2164,1.206,1.1409,1.0531,1.0075,0.0,0.0,0.0,0.0,0.0,0.0,0.0,0.0,0.0,1.3158,1.3825,1.4347,1.528,1.7408,1.7077,1.7194,1.9668,1.9283,1.9261,2.0958,2.1472,2.2609,2.5466,2.7085,2.7978,2.8305,2.8271,2.8291,2.8291,2.8369,2.8379,2.8301,2.8369,2.8379,2.8291,2.8291,2.8291,2.8291,2.8291,2.8291,2.8291,2.7949,2.7007,2.5512,2.5118,2.322,2.0147,1.9836,1.8729,1.7027,1.6553,1.6152,1.592,1.7225,1.9039,2.0891,2.0772,2.1135,2.1582,0.0,0.0,0.0,0.0,0.0,0.0,0.0,0.0,-0.6331,-0.7384,-0.8356,-0.9248,-1.0082,-1.0391,-1.0762,-1.1317,-1.0212,-1.0275,-1.2266,-1.0639,-0.9903,-1.0704,-0.8359,-0.7041,-0.7075,-0.7385,-0.749,-0.7373,-0.756,-0.7318,-0.6754,-0.218,0.03,0.1102,0.5854,0.5148,0.0503,0.0807,0.3643,0.7535,0.2621,0.3527,0.8002,0.7831,0.7754,0.7876,0.8155,0.8193,0.8505,1.1175,1.2348,1.2893,1.3928,1.4033,1.3361,1.1776,0.0,0.9947,0.9596,0.9719,0.0,1.1857,1.1933,1.2198,0.0,0.0,1.4479,1.5752,1.6239,1.6572,1.72,1.7809,1.8367,1.8666,1.9097,1.9408,1.9577,2.0809,2.1812,2.2598,2.4821,2.6391,2.6436,2.753,2.8291,2.8291,2.8643,2.8682,2.831,2.8643,2.8682,2.8301,2.8291,2.8291,2.8291,2.8291,2.8291,2.8291,2.8242,2.7892,2.736,2.5776,2.3895,2.1827,1.9074,1.7502,1.6747,1.6687,1.6333,1.592,1.7225,1.8503,1.981,2.0413,2.0775,2.0897,0.0,0.0,0.0,0.0,0.0,0.0,0.0,0.0,0.0,0.0,-0.7787,-0.8386,-0.9501,-1.0092,-1.0615,-1.1006,-1.082,-1.1224,-1.2511,-1.1096,-1.0361,-1.0762,-1.0098,-0.9852,-1.019,-0.9995,-0.9137,-0.7573,-0.7808,-0.7845,-0.7779,-0.5708,-0.381,-0.2205,0.0,-0.0201,-0.231,-0.2312,-0.0101,0.3128,0.0906,0.1299,0.3457,0.4399,0.6096,0.7948,0.7804,0.8008,0.0,0.0,1.1832,1.2828,1.397,1.3807,1.3051,1.2126,1.1041,0.0,1.0493,0.0,0.0,0.0,1.1972,1.2583,1.3722,1.392,1.446,1.6202,1.676,1.7161,1.7816,1.8237,1.8604,0.0,1.9205,1.9366,1.9366,1.9773,2.0295,2.1003,2.2662,2.4428,2.5973,2.7176,2.793,2.793,2.831,2.8476,2.8301,2.8457,2.8476,2.8301,2.8291,2.8291,2.8291,2.8291,2.8291,2.8291,2.8291,2.7497,2.6096,2.6485,2.4986,2.2196,1.9769,1.7949,1.6707,1.6707,1.6359,1.5825,1.6386,1.7404,1.8664,2.0401,2.136,2.1712,0.0,0.0,0.0,0.0,0.0,0.0,0.0,0.0,0.0,0.0,-0.7402,-0.7828,-0.9042,-0.9649,-1.0238,-1.1023,-1.1422,-1.1894,-1.2531,-1.1365,-1.0836,-1.1337,-1.2044,-1.2656,-1.3003,-1.2115,-1.0653,-0.8717,-0.8441,-0.835,-0.8325,-0.8041,-0.6863,-0.5085,-0.509,-0.5105,-0.5129,-0.5129,-0.3909,-0.1996,-0.1297,-0.0588,0.019,0.173,0.4239,0.6905,0.7198,0.7664,0.0,0.0,1.0929,1.2065,1.3028,1.2946,1.2395,1.1699,1.088,1.0255,1.0594,0.0,0.0,1.1021,1.1912,1.3058,1.3229,1.398,1.5159,1.6744,1.7248,1.7595,1.8237,1.8364,1.8537,1.9045,1.9125,1.9158,1.9232,1.8991,1.9125,2.0091,2.1152,2.2739,2.4933,2.6475,2.7412,2.7646,2.8057,2.8291,2.8291,2.8398,2.8408,2.8301,2.8291,2.8291,2.8291,2.8291,2.8291,2.8291,2.8174,2.7353,2.5785,2.6409,2.5085,2.2039,2.0346,1.8753,1.7193,1.68,1.6359,1.5825,1.656,1.7397,1.8503,2.0944,2.1942,2.2169,0.0,0.0,0.0,0.0,0.0,0.0,0.0,0.0,0.0,0.0,0.0,0.0,0.0,-0.8414,-0.9146,-1.1277,-1.1636,-1.1927,-1.236,-1.1271,-1.1362,-1.3077,-1.3679,-1.4244,-1.4617,-1.2988,-1.1752,-1.1196,-0.9904,-0.9262,-0.927,-0.8182,-0.7808,-0.7855,-0.7879,-0.7865,-0.7885,-0.7885,-0.7707,-0.7186,-0.4505,-0.2079,0.0089,0.1107,0.261,0.4302,0.6364,0.0,0.7959,0.9339,1.0241,1.0842,1.1219,1.1682,0.0,1.0366,0.9951,0.9807,0.0,0.0,1.0636,1.0442,1.2069,1.3779,1.4283,1.5846,1.7281,1.7883,1.8016,1.8023,1.8029,1.8043,1.8163,1.847,1.8517,1.8617,1.8898,1.8684,1.8817,1.9762,2.057,2.1551,0.0,2.5013,2.6768,2.7607,2.8057,2.8291,2.8291,2.8682,2.8711,2.8301,2.8291,2.8291,2.8291,2.8291,2.8291,2.8291,2.7881,2.7666,2.7513,2.5396,2.3463,2.1667,2.0238,1.9254,1.855,1.7193,1.6359,1.6015,1.8488,1.9397,1.977,2.2138,2.2306,2.1496,0.0,0.0,0.0,0.0,0.0,0.0,0.0,0.0,0.0,0.0,0.0,0.0,0.0,0.0,0.0,0.0,-0.9947,-1.1192,-1.1472,-1.0704,-1.0187,-1.0061,-1.1261,-1.1979,-1.2141,-1.2575,-1.2506,-1.1811,-1.0745,-0.9776,-0.8889,-0.7833,-0.7383,-0.7626,-0.8362,-0.8734,-0.8882,-0.8765,-0.843,-0.776,-0.6192,-0.4127,-0.1717,0.0081,0.2009,0.4009,0.0,0.0,0.6137,0.7618,0.8543,0.9211,0.9993,1.0013,0.9599,0.8575,0.8675,0.9068,0.9244,0.0,1.0509,1.0085,1.1773,1.3487,1.3641,1.5039,1.6587,1.7272,1.7997,1.8535,1.8895,2.024,2.1006,1.9956,2.065,2.0721,1.8854,1.8551,1.8653,1.9265,2.0066,0.0,0.0,0.0,0.0,2.6338,2.7041,2.7568,2.7861,2.8271,2.8437,2.8301,2.8027,2.8018,2.8291,2.8018,2.8018,2.8281,2.7578,2.709,2.6797,2.5695,2.3872,2.1396,2.114,1.9521,1.7107,1.6819,1.6359,1.6015,1.7677,1.8326,1.8596,2.1033,2.1667,2.1328,0.0,0.0,0.0,0.0,0.0,0.0,0.0,0.0,0.0,0.0,0.0,0.0,0.0,0.0,0.0,0.0,0.0,-1.1335,-1.084,-1.0471,-0.963,-0.8174,-1.0036,-1.1133,-1.1156,-1.2319,-1.2719,-1.2276,-1.0871,-0.9688,-0.8873,-0.7581,-0.7156,-0.731,-0.8307,-0.8832,-0.9009,-0.9334,-0.8794,-0.7517,-0.6888,-0.5395,-0.324,-0.0634,0.1514,0.0,0.0,0.4881,0.4697,0.6085,0.6709,0.7026,0.7946,0.806,0.7849,0.7516,0.7941,0.8546,0.8854,0.9551,0.9991,0.9497,1.1318,1.3264,1.3264,1.4939,1.6692,1.7673,1.8021,1.8517,1.9646,2.1,2.1526,2.0122,2.0947,2.0965,1.8469,1.8076,1.8321,1.8927,1.9436,2.0199,0.0,0.0,0.0,2.5363,2.6435,2.7139,2.7412,2.7978,2.8291,2.8291,2.8027,2.8018,2.8291,2.7881,2.7646,2.7607,2.7051,2.6562,2.6143,2.5703,2.4437,2.2585,2.2111,2.0313,1.7609,1.7337,1.6648,1.592,1.7225,1.7692,1.7963,1.9943,2.0666,2.072,0.0,0.0,0.0,0.0,0.0,0.0,0.0,0.0,0.0,0.0,0.0,0.0,0.0,0.0,0.0,0.0,0.0,0.0,-1.0601,-1.0372,-0.9492,-0.7699,-1.012,-1.1586,-1.1614,-1.2144,-1.2451,-1.2531,-1.035,-0.9285,-0.9269,-0.7651,-0.6965,-0.7138,-0.7803,-0.8137,-0.8408,-0.9621,-0.8751,-0.6585,-0.6466,-0.5589,-0.4138,-0.1096,0.0918,0.2395,0.0,0.0,0.0,0.0,0.0,0.0,0.0,0.5872,0.6476,0.7046,0.7633,0.8119,0.8132,0.8672,0.9168,0.8824,1.0983,1.3171,1.3254,1.5317,1.7544,1.8656,1.8153,1.8026,0.0,0.0,1.9858,1.9313,1.9582,1.9406,1.7775,1.7348,1.7688,0.0,0.0,0.0,0.0,0.0,0.0,2.4612,2.6141,2.688,2.691,2.7832,2.8281,2.8262,2.8262,2.8252,2.8223,2.7832,2.7217,2.6387,2.6367,2.6143,2.5723,2.5254,2.5039,2.484,2.3061,2.1423,1.9837,1.8537,1.7134,1.592,1.7225,1.7692,1.7777,1.9039,1.9497,1.977,0.0,0.0,0.0,0.0,0.0,0.0,0.0,0.0,0.0,0.0,0.0,0.0,0.0,0.0,0.0,0.0,0.0,0.0,-1.0236,-0.8816,-0.8235,-0.901,-0.9254,-0.9754,-1.0581,-1.1106,-1.149,-1.1796,-1.0327,-0.9436,-0.9111,-0.7405,-0.6966,-0.7765,-0.8807,-0.8497,-0.732,-0.7383,-0.6374,-0.455,-0.2948,-0.1875,-0.1231,-0.1195,0.022,0.0,0.0,0.0,0.0,0.0,0.0,0.0,0.0,0.553,0.5696,0.5821,0.6636,0.7443,0.7657,0.8225,0.8824,0.8849,1.0426,1.2115,1.2772,1.5041,1.715,1.797,1.8815,1.9821,0.0,0.0,0.0,2.0438,2.0534,0.0,1.7627,1.7582,0.0,1.7709,0.0,1.8925,1.8965,2.0133,0.0,0.0,2.3646,2.5182,2.5487,2.7266,2.8144,2.7832,2.7822,2.7676,2.7344,2.7236,2.6914,2.6387,2.6055,2.585,2.5713,2.4932,2.3682,2.2169,2.1403,1.9606,1.7209,1.694,1.6381,1.592,1.7225,1.7131,1.6567,1.8672,1.8948,1.8411,0.0,0.0,0.0,0.0,0.0,0.0,0.0,0.0,0.0,0.0,0.0,0.0,0.0,0.0,0.0,0.0,0.0,0.0,0.0,-0.9478,-0.9675,-1.021,-0.9733,-0.9754,-1.0397,-1.0552,-1.0755,-1.0998,-1.0132,-0.9361,-0.8747,-0.7071,-0.6535,-0.6985,-0.777,-0.7586,-0.665,-0.6,-0.4673,0.0,0.0,-0.1334,-0.1018,-0.1023,-0.0143,0.0,0.0,0.0,0.0,0.0,0.0,0.1901,0.2162,0.2294,0.2516,0.3424,0.0,0.5003,0.5777,0.6368,0.7141,0.8517,0.9603,1.0703,1.2431,1.454,1.6413,1.783,1.8541,0.0,2.0842,0.0,0.0,0.0,0.0,0.0,1.7086,1.7168,1.7428,0.0,1.795,0.0,1.8306,1.9162,1.9596,0.0,2.2006,2.3531,2.3512,2.5973,2.7119,2.6522,2.7236,2.7363,2.6748,2.6553,2.624,2.581,2.5557,2.5342,2.5137,2.4639,2.3672,2.2253,2.1284,1.9694,1.7676,1.7255,1.6567,1.5852,1.6875,1.6621,1.6028,1.7551,1.7609,1.6943,0.0,0.0,0.0,0.0,0.0,0.0,0.0,0.0,0.0,0.0,0.0,0.0,0.0,0.0,0.0,0.0,0.0,0.0,0.0,0.0,0.0,-1.0768,-1.0423,-1.0359,-1.0535,-1.0084,-0.9933,-1.007,-0.9825,-0.918,-0.8149,-0.6944,-0.6128,-0.5584,-0.5719,-0.5838,-0.5871,-0.467,-0.3153,-0.1666,-0.1981,-0.1967,-0.1659,0.0,0.0,0.0,0.0,0.0,0.0,0.0,-0.2704,-0.2938,-0.312,-0.2883,-0.2224,-0.0384,0.0503,0.1356,0.3021,0.3675,0.4542,0.7057,0.8119,0.9308,1.1982,1.3636,1.5264,1.777,0.0,1.7748,1.9502,1.9071,1.8249,1.756,0.0,1.7232,1.6162,1.6196,1.6596,1.7246,1.7338,1.7483,1.7908,1.8009,1.8003,1.8043,2.0497,2.1869,2.1554,2.4138,2.546,2.4995,2.6616,2.7051,2.6309,2.5869,2.542,2.498,2.4922,2.4727,2.4414,2.4103,2.3727,2.3276,2.159,2.0175,1.91,1.8203,1.7025,1.5932,1.6406,1.6299,1.5919,1.6179,1.6112,1.5892,0.0,0.0,0.0,0.0,0.0,0.0,0.0,0.0,0.0,0.0,-1.0098,-0.9864,0.0,0.0,0.0,0.0,0.0,0.0,0.0,0.0,0.0,0.0,-0.9154,-0.9258,-0.9797,-0.9048,-0.8786,-0.891,-0.9569,-0.8845,-0.6837,-0.7666,-0.6754,-0.4387,-0.4287,-0.3761,-0.2976,-0.1435,-0.0396,0.0201,0.0202,0.0203,0.0204,0.0,0.0,0.0,0.0,0.0,0.0,0.0,-0.6268,-0.9901,-1.0631,-0.9378,-0.7586,-0.7193,-0.5393,-0.2806,-0.0,0.0773,0.0892,0.1428,0.4962,0.8727,1.0329,1.1855,0.0,0.0,1.674,1.7252,1.7722,1.6808,1.6122,1.6431,0.0,0.0,0.0,0.0,1.5077,0.0,0.0,0.0,0.0,0.0,0.0,0.0,1.8509,1.9327,2.0452,2.2421,2.3937,2.4977,2.5667,2.5996,2.585,2.54,2.4961,2.4521,2.418,2.415,2.4293,2.2644,2.155,2.1018,1.9143,1.7888,1.7092,1.6457,1.6204,1.6179,1.6039,1.6066,1.6206,1.6253,1.6239,1.6233,0.0,0.0,0.0,0.0,0.0,0.0,0.0,-1.0934,-1.0914,-1.0989,-1.0884,-1.052,-0.9668,-0.8964,-0.8438,0.0,0.0,0.0,0.0,0.0,0.0,0.0,0.0,0.0,0.0,-0.8674,-0.8311,-0.8396,0.0,-0.7518,-0.6607,-0.6304,-0.5408,-0.403,-0.3084,-0.2383,-0.1899,-0.1186,-0.088,-0.0818,-0.0638,-0.0509,0.0,0.0,0.0,0.0,0.0,0.0,0.0,0.0,-0.5098,-0.8671,-1.1263,-1.0955,-0.9156,-0.6805,-0.6412,-0.6511,-0.5253,-0.3663,-0.2024,-0.0553,0.2342,0.5682,0.8752,0.0,0.0,0.0,1.5839,1.6572,1.6336,0.0,0.0,0.0,0.0,0.0,0.0,0.0,0.0,0.0,0.0,0.0,0.0,0.0,1.567,1.5805,1.5829,1.677,1.8738,2.1042,2.2903,2.4251,2.5011,2.5283,2.5059,2.4619,2.4297,2.4092,2.3233,2.296,2.2954,2.1534,2.0806,2.0457,1.8793,1.7887,1.7563,1.6687,1.6279,1.6273,1.6286,1.6186,1.6059,1.6219,1.6179,1.6059,0.0,0.0,0.0,0.0,0.0,0.0,0.0,-1.1692,-1.1634,-1.1709,-1.1611,-1.1148,-1.0143,-0.9392,-0.8766,0.0,0.0,0.0,0.0,0.0,0.0,0.0,0.0,0.0,0.0,0.0,0.0,0.0,-0.6666,0.0,0.0,0.0,0.0,0.0,0.0,0.0,-0.1722,-0.1827,-0.2086,0.0,0.0,0.0,0.0,0.0,0.0,0.0,0.0,0.0,0.0,0.0,-0.3948,-0.6123,-0.9777,-1.0039,-0.8414,-0.5448,-0.6529,-0.891,-0.966,-0.7808,-0.497,-0.2652,-0.0417,0.2438,0.7079,0.9561,0.0,0.0,1.4828,1.5552,1.4959,0.0,0.0,0.0,0.0,0.0,0.0,0.0,0.0,0.0,0.0,0.0,0.0,0.0,0.0,1.3699,1.3714,1.4768,1.7045,1.9753,2.1719,2.2655,2.3745,2.4023,2.3511,2.3189,2.2981,2.2896,2.1889,2.1423,2.1257,2.0487,1.9982,1.9886,1.8544,1.8142,1.8159,1.7052,1.6513,1.638,1.6547,1.6333,1.5952,1.6186,1.5926,1.5536,0.0,0.0,0.0,0.0,0.0,0.0,0.0,-1.2131,-1.2253,-1.2157,-1.222,-1.1791,-1.0499,-0.9544,-0.8871,0.0,0.0,0.0,0.0,0.0,0.0,0.0,0.0,0.0,0.0,0.0,0.0,-0.5933,0.0,0.0,0.0,0.0,0.0,0.0,0.0,0.0,0.0,-0.2252,0.0,0.0,0.0,0.0,0.0,0.0,0.0,0.0,0.0,0.0,0.0,0.0,0.0,-0.6859,-0.8634,-0.7339,-0.5483,-0.7061,0.0,0.0,-1.1009,-1.0237,-0.861,-0.7912,-0.4216,0.0563,0.5073,0.0,0.0,1.2806,1.3613,1.3801,1.318,1.3894,0.0,0.0,0.0,1.4817,0.0,0.0,0.0,0.0,0.0,0.0,0.0,0.0,1.3485,1.3688,1.3535,1.4054,1.5769,1.8415,1.9698,1.9598,2.0925,2.1252,2.0458,2.0416,2.0231,1.9911,1.982,1.9729,1.9646,1.8714,1.8303,1.8215,1.7078,1.6812,1.7272,1.6632,1.6453,1.664,1.6406,1.6279,1.6239,1.6259,1.555,1.4457,0.0,0.0,0.0,0.0,0.0,0.0,-1.274,-1.277,-1.2944,-1.3608,-1.3506,-1.2812,-1.1407,-1.0046,-0.9038,-0.8506,0.0,0.0,0.0,0.0,0.0,0.0,0.0,0.0,0.0,0.0,0.0,-0.6613,-0.634,0.0,0.0,0.0,0.0,0.0,0.0,0.0,0.0,0.0,0.0,0.0,0.0,0.0,0.0,0.0,0.0,0.0,0.0,0.0,0.0,0.0,0.0,0.0,-0.4141,-0.2936,0.0,0.0,-0.5373,-0.7736,-0.6515,-0.8614,-1.0708,-0.91,-0.6368,-0.2601,0.312,0.0,1.003,1.1013,1.2158,1.2943,1.2826,1.404,1.4832,0.0,0.0,0.0,0.0,0.0,0.0,0.0,0.0,0.0,0.0,0.0,1.0667,1.0847,1.0663,1.1008,1.1858,1.5798,1.7918,1.7517,1.9482,2.0309,1.9711,1.8899,1.8434,1.831,1.7587,1.7333,1.7523,1.7145,1.7134,1.7211,1.6724,1.6253,1.5707,1.532,1.4727,1.4096,1.3745,1.3648,1.3648,1.3648,1.3676,1.3635,0.0,0.0,0.0,0.0,0.0,-1.2072,-1.3048,-1.3132,-1.3387,-1.4339,-1.4334,-1.3662,-1.203,-1.0949,-0.9839,-0.8568,-0.9077,0.0,0.0,0.0,0.0,0.0,0.0,0.0,0.0,0.0,-0.7931,-0.7516,-0.6923,-0.6341,0.0,0.0,0.0,0.0,0.0,0.0,0.0,0.0,0.0,0.0,0.0,0.0,0.0,0.0,0.0,0.0,0.0,0.0,0.0,0.0,0.0,0.0,0.0,0.0,0.0,0.0,-0.3399,-0.6504,-0.5758,-0.8567,-1.1381,-1.047,-0.7937,-0.4203,0.0,0.0,0.9087,0.9653,1.086,1.1797,1.2074,1.3193,1.4037,1.3758,0.0,1.2312,0.0,0.0,0.0,0.0,0.0,0.0,0.0,0.8241,0.7198,0.6365,0.6274,0.6423,0.6717,1.0355,1.3716,1.6354,1.8215,1.8902,1.8458,1.7463,1.6633,1.5785,1.4981,1.5147,1.6102,1.6137,1.6302,1.6393,1.6613,1.615,1.5257,1.4107,1.3192,1.2494,1.2236,1.2031,1.176,1.0409,1.0329,1.0774,0.0,0.0,0.0,0.0,0.0,0.0,-1.2418,-1.3015,-1.3521,-1.3845,-1.4496,-1.4146,-1.2184,-1.232,-1.151,-0.8816,-0.8732,0.0,0.0,0.0,0.0,0.0,0.0,0.0,0.0,0.0,-0.874,-0.8177,-0.7724,-0.7049,-0.6161,-0.5715,-0.4934,-0.3884,0.0,0.0,0.0,0.0,0.0,0.0,0.0,0.0,0.0,0.0,0.0,0.0,0.0,0.0,0.0,0.0,0.0,0.0,0.0,0.0,0.0,0.0,-0.2896,-0.5152,-1.1367,-1.146,-1.0405,-1.2725,-0.8744,-0.3604,0.0,0.0,0.8807,0.9022,0.9712,1.0313,1.0478,1.0854,1.1416,1.2071,1.2905,0.0,0.0,0.0,0.0,0.0,0.0,0.0,0.0,0.6572,0.3346,0.0333,0.0111,0.011,0.0324,0.1369,0.6519,1.6345,1.6767,1.6407,1.5888,1.5784,1.4478,1.1923,1.1923,1.3297,1.5797,1.585,1.5764,1.5871,1.6439,1.6711,1.6381,1.3201,1.2244,1.2788,1.2783,1.2432,1.1394,0.6988,0.5419,0.5057,0.0,0.0,0.0,0.0,0.0,0.0,0.0,-1.268,-1.2986,-1.3666,-1.3937,-1.3727,-1.2776,-1.2085,-1.124,-0.999,-0.9412,0.0,0.0,0.0,0.0,0.0,0.0,0.0,0.0,0.0,-0.9776,-0.9142,-0.8731,-0.808,-0.7224,-0.6447,-0.5646,-0.484,-0.4098,0.0,0.0,0.0,0.0,0.0,0.0,0.0,0.0,0.0,0.0,0.0,0.0,0.0,0.0,0.0,0.0,0.0,0.0,0.0,0.0,0.0,0.0,0.0,-0.5594,-0.9697,-1.3016,-0.9253,-0.7152,-0.4854,-0.0608,0.3072,0.5792,0.651,0.6929,0.732,0.7792,0.818,0.8709,0.9617,1.0057,0.0,0.0,0.0,0.0,0.0,0.0,0.0,0.0,0.0,-0.1997,-0.2631,-0.4772,-0.5932,-0.5789,-0.6838,-0.3105,0.6502,0.7508,0.7825,0.768,0.5884,0.5007,0.513,0.4215,0.4612,0.6331,0.7239,0.7645,0.7645,0.7845,0.7387,0.6534,0.5487,0.4686,0.4004,0.4004,0.3378,0.2261,0.0884,-0.0588,-0.2057,0.0,0.0,0.0,0.0,0.0,0.0,0.0,-1.2408,-1.2682,-1.3736,-1.3768,-1.3579,-1.327,-1.2315,-1.1306,-1.052,-0.9698,0.0,0.0,0.0,0.0,0.0,0.0,0.0,0.0,-1.0829,-1.0495,-0.9981,-0.946,-0.882,-0.7979,-0.7251,-0.6458,-0.5539,-0.4901,-0.4443,0.0,0.0,0.0,0.0,0.0,0.0,-0.4561,0.0,0.0,0.0,0.0,0.0,0.0,0.0,0.0,0.0,0.0,0.0,0.0,0.0,-0.3147,0.0,0.0,-0.753,-1.0577,-0.739,-0.5932,0.0,0.0,0.1609,0.3578,0.4156,0.4433,0.4744,0.5213,0.5477,0.5967,0.6764,0.7032,0.0,0.0,0.0,0.0,0.0,0.0,0.0,0.0,-0.5196,-0.7528,-0.7529,-0.9481,-1.0371,-0.9941,-1.1671,-0.9965,-0.4067,-0.265,-0.2533,-0.3495,-0.5061,-0.5945,-0.6139,-0.4962,-0.4091,-0.3323,-0.2441,-0.205,-0.205,-0.205,-0.3029,0.0,-0.47,-0.4614,-0.4534,-0.4534,-0.5613,-0.7085,-0.7076,-0.843,-1.0066,0.0,0.0,0.0,0.0,0.0,0.0,0.0,-1.2138,-1.2627,-1.391,-1.3729,-1.3552,-1.3658,-1.2817,-1.1746,-1.0644,0.0,0.0,0.0,0.0,0.0,0.0,0.0,0.0,-1.156,-1.1223,-1.0943,-1.0659,-1.0,-0.9306,-0.8561,-0.8077,-0.7229,-0.6113,-0.594,-0.5466,0.0,0.0,0.0,0.0,0.0,0.0,0.0,0.0,0.0,0.0,0.0,0.0,0.0,0.0,0.0,0.0,0.0,0.0,0.0,0.0,0.0,0.0,0.0,0.0,0.0,0.0,0.0,0.0,0.0,-0.0063,0.0,0.1965,0.2248,0.2481,0.2668,0.2859,0.3207,0.3575,0.3954,0.0,0.0,0.0,0.0,0.0,0.0,0.0,-0.4837,-0.9524,-1.2675,-1.3523,-1.3534,-1.3185,-1.2448,-1.3588,-1.4237,-1.4153,-1.3102,-1.3574,-1.5582,-1.5684,-1.6887,-1.9217,-1.4524,-1.2294,-1.2203,-1.2139,-1.2196,-1.2196,-1.2196,-1.3488,-1.5588,-1.5588,-1.4196,-1.2203,-1.2203,-1.3657,-1.578,-1.5843,-1.6781,-1.7991,0.0,0.0,0.0,0.0,0.0,0.0,0.0,0.0,0.0,0.0,-1.2686,-1.2938,-1.3415,-1.2757,-1.221,0.0,0.0,0.0,0.0,0.0,0.0,0.0,0.0,0.0,-1.1145,-1.145,-1.1538,-1.1345,-1.0686,-0.9944,-0.9165,-0.8712,-0.801,-0.7111,-0.6536,-0.5727,0.0,0.0,0.0,0.0,0.0,0.0,0.0,0.0,0.0,0.0,-0.6284,-0.6447,0.0,0.0,0.0,0.0,0.0,0.0,0.0,0.0,-0.3896,-0.3298,-0.3632,0.0,-0.2029,-0.2361,-0.1769,-0.1062,0.0,0.0,0.0,0.0,0.0,0.0,0.0,0.0122,0.0445,0.0,0.0,0.0,0.0,0.0,0.0,0.0,0.0,-0.9904,-1.0129,-1.1527,-1.2766,-1.384,-1.3987,-1.4266,-1.4797,-1.615,-1.7254,-1.7873,-1.8557,-1.7865,-1.5584,-1.6556,-1.685,-1.6469,-1.6313,-1.5698,-1.4741,-1.4684,-1.4697,-1.4697,-1.4697,-1.5087,-1.5584,-1.5584,-1.5263,-1.4741,-1.4741,-1.5638,-1.7044,-1.7037,-1.8003,-1.9072,0.0,0.0,0.0,0.0,0.0,0.0,0.0,0.0,0.0,0.0,0.0,-1.2988,-1.3514,-1.2916,0.0,0.0,0.0,0.0,0.0,0.0,0.0,0.0,0.0,-1.2059,-1.1792,-1.2011,-1.1968,-1.1689,-1.1064,-1.0382,-0.9649,-0.9243,-0.8525,-0.7535,-0.6676,-0.6012,0.0,0.0,0.0,0.0,-0.6177,0.0,0.0,0.0,0.0,0.0,-0.646,-0.6551,0.0,-0.6845,-0.6604,-0.63,0.0,0.0,0.0,0.0,-0.468,-0.4018,-0.3519,-0.2695,-0.1887,-0.1713,-0.1535,-0.1415,0.0,0.0,0.0,0.0,0.0,0.0,0.0,0.0,0.0,0.0,0.0,0.0,0.0,0.0,0.0,0.0,0.0,-1.4351,0.0,-1.4613,-1.5221,-1.6415,-1.7056,-1.7623,-1.8094,-1.9901,-2.1176,-2.1627,-2.2948,-2.2312,-1.972,-2.0403,-2.0678,-2.0633,-2.0678,-2.0403,-1.972,-1.9191,-1.8921,-1.8921,-1.8921,-1.9183,-1.972,-1.972,-1.9477,-1.9077,-1.9558,-1.9877,-2.0052,-2.0544,-2.1563,-2.2717,0.0,0.0,0.0,0.0,0.0,0.0,0.0,0.0,0.0,0.0,0.0,0.0,0.0,0.0,0.0,0.0,0.0,0.0,0.0,0.0,0.0,0.0,0.0,-1.2472,-1.2542,-1.2472,-1.2317,-1.2034,-1.1456,-1.0858,-1.022,-0.9881,-0.9065,-0.7788,-0.6772,-0.6309,0.0,0.0,-0.6227,0.0,-0.6868,0.0,0.0,0.0,0.0,0.0,0.0,0.0,0.0,-0.6958,-0.6793,-0.6463,-0.6781,0.0,0.0,0.0,0.0,0.0,-0.4298,-0.3627,-0.3014,-0.2742,-0.2687,-0.2796,0.0,0.0,0.0,0.0,0.0,0.0,0.0,0.0,0.0,0.0,0.0,0.0,0.0,0.0,0.0,0.0,0.0,0.0,-1.7964,-1.8033,-1.8645,-1.9918,-2.0998,-2.1738,-2.1923,-2.3835,-2.4955,-2.5112,-2.63,-2.6535,-2.5661,-2.5112,-2.5438,-2.6483,-2.5438,-2.4872,-2.4872,-2.3795,-2.3348,-2.3348,-2.3348,-2.3975,-2.4872,-2.4872,-2.4312,-2.3584,-2.4556,-2.4312,-2.367,-2.4556,-2.5532,-2.6483,0.0,0.0,0.0,0.0,0.0,0.0,0.0,0.0,0.0,0.0,0.0,0.0,0.0,0.0,0.0,0.0,0.0,0.0,0.0,0.0,0.0,-1.3263,-1.3082,-1.2618,-1.1797,-1.2083,-1.2529,-1.3087,-1.2294,-1.1713,-1.1251,-1.0916,-0.9898,-0.8274,-0.7321,-0.671,-0.6378,-0.6422,-0.6441,-0.6587,-0.778,0.0,0.0,0.0,0.0,0.0,0.0,0.0,0.0,-0.6997,-0.684,-0.6559,-0.6373,0.0,0.0,0.0,0.0,0.0,-0.5014,-0.4901,-0.467,-0.3683,-0.3683,-0.4012,0.0,0.0,0.0,0.0,0.0,0.0,0.0,0.0,0.0,0.0,0.0,0.0,0.0,0.0,0.0,0.0,0.0,-1.9429,-2.0149,-2.0395,-2.1051,-2.2368,-2.3428,-2.4535,-2.5576,-2.6014,-2.6591,-2.7556,-2.8542,-2.9387,-3.0176,-2.7521,-2.6284,-2.6483,-2.6284,-2.6191,-2.6191,-2.6014,-2.592,-2.592,-2.592,-2.6014,-2.6191,-2.6191,-2.6119,-2.5953,-2.6108,-2.6119,-2.5953,-2.6119,-2.6295,-2.6483,0.0,0.0,0.0,0.0,0.0,0.0,0.0,0.0,0.0,0.0,0.0,0.0,0.0,0.0,0.0,0.0,0.0,0.0,0.0,0.0,0.0,-1.3547,-1.3683,-1.3498,-1.3027,-1.319,-1.3508,-1.3942,-1.3519,-1.3072,-1.2639,-1.1471,-1.0188,-0.8817,-0.7882,-0.7379,-0.7193,-0.6843,-0.6823,-0.7061,0.0,0.0,0.0,0.0,0.0,0.0,0.0,0.0,0.0,0.0,-0.7766,-0.7588,-0.725,0.0,0.0,0.0,0.0,0.0,-0.5941,-0.6289,-0.6603,-0.6523,-0.58,-0.522,0.0,0.0,0.0,0.0,0.0,0.0,0.0,0.0,0.0,0.0,0.0,0.0,0.0,0.0,0.0,0.0,0.0,-2.3148,-2.376,-2.3944,-2.4248,-2.4809,-2.5865,-2.7001,-2.808,-2.8736,-2.9514,-3.0504,-3.0926,-3.1456,-3.196,-3.0553,-2.977,-2.977,-2.977,-2.977,-2.977,-2.977,-2.977,-2.977,-2.9282,-2.9061,-2.8983,-2.8505,-2.7959,-2.7452,-2.8039,-2.7879,-2.7452,-2.8039,-2.8303,-2.8303,0.0,0.0,0.0,0.0,0.0,0.0,0.0,0.0,0.0,0.0,0.0,0.0,0.0,0.0,0.0,0.0,0.0,0.0,0.0,0.0,-1.3697,-1.3643,-1.4163,-1.4346,-1.4158,-1.4211,-1.4449,-1.4922,-1.4664,-1.425,-1.3741,-1.1929,-1.0492,-0.9392,-0.8532,-0.8146,-0.8072,-0.7513,-0.7416,-0.7759,0.0,0.0,0.0,0.0,0.0,0.0,0.0,0.0,0.0,0.0,0.0,0.0,0.0,0.0,0.0,-0.734,-0.6997,-0.6887,-0.6991,-0.7466,-0.8074,-0.8758,0.0,-0.7157,0.0,0.0,0.0,0.0,0.0,0.0,0.0,0.0,0.0,0.0,0.0,0.0,0.0,0.0,-2.58,-2.6968,-2.6587,-2.6645,-2.7497,-2.7532,-2.7532,-2.7532,-2.8579,-2.9501,-3.0213,-3.104,-3.1947,-3.2835,-3.3115,-3.3185,-3.3185,-3.3393,-3.3199,-3.2593,-3.2593,-3.2593,-3.2593,-3.2593,-3.2593,-3.2522,-3.1815,-3.1536,-3.1462,-3.0482,-2.9626,-2.8876,-2.9521,-2.9287,-2.8597,-2.9729,-3.0011,-2.9869,0.0,0.0,0.0,0.0,0.0,0.0,0.0,0.0,0.0,0.0,0.0,0.0,0.0,0.0,0.0,0.0,0.0,0.0,0.0,0.0,-1.3973,-1.3788,-1.4466,-1.4576,-1.4012,-1.4246,-1.4955,-1.6071,-1.5496,-1.4807,-1.3962,-1.2391,-1.1116,-1.01,-0.9305,-0.887,-0.87,-0.8426,-0.8429,-0.8684,-0.9595,0.0,0.0,0.0,0.0,0.0,0.0,0.0,0.0,0.0,0.0,0.0,0.0,0.0,-0.8997,-0.859,-0.8348,-0.8243,-0.8293,-0.83,-0.8397,-0.8673,0.0,0.0,0.0,0.0,0.0,0.0,0.0,0.0,0.0,0.0,0.0,0.0,0.0,0.0,0.0,0.0,-2.856,-3.0553,-2.9003,-2.8499,-3.0449,-3.0686,-3.0686,-3.0686,-3.1648,-3.2294,-3.2365,-3.2451,-3.2891,-3.369,-3.4574,-3.4981,-3.4981,-3.5917,-3.507,-3.2593,-3.2593,-3.2593,-3.2593,-3.2593,-3.2593,-3.2593,-3.2522,-3.2536,-3.2464,-3.1462,-3.1031,-3.0882,-3.0139,-2.9792,-2.9767,-3.0758,-3.0558,-2.9934,0.0,0.0,0.0,0.0,0.0,0.0,0.0,0.0,0.0,0.0,0.0,0.0,0.0,0.0,0.0,0.0,0.0,0.0,0.0,-1.3491,-1.3359,-1.4219,-1.433,-1.4554,-1.4858,-1.5223,-1.596,-1.7112,-1.68,-1.6086,-1.5044,-1.364,-1.2332,-1.1048,-1.0221,-0.9735,-0.9524,-0.9141,-0.9189,-0.9614,-0.9935,-1.0465,0.0,0.0,0.0,0.0,0.0,0.0,0.0,0.0,-1.0143,-1.0053,-0.9539,-0.9404,-0.9411,-0.9186,-0.9038,-0.9031,-0.9045,-0.9475,-1.0083,-1.0693,0.0,0.0,0.0,0.0,0.0,0.0,0.0,0.0,0.0,0.0,0.0,0.0,0.0,0.0,-2.8757,-2.9379,-2.9974,-3.071,-3.0466,-3.0507,-3.1338,-3.1734,-3.2024,-3.2024,-3.2352,-3.289,-3.3449,-3.3926,-3.4618,-3.5492,-3.6384,-3.6826,-3.6826,-3.7188,-3.6614,-3.507,-3.4633,-3.4409,-3.4409,-3.4409,-3.4409,-3.4341,-3.3754,-3.3449,-3.338,-3.2464,-3.1742,-3.118,-3.0833,-3.1057,-3.1549,-3.196,-3.1829,-3.1476,0.0,0.0,0.0,0.0,0.0,0.0,0.0,0.0,0.0,0.0,0.0,0.0,0.0,0.0,0.0,0.0,0.0,0.0,-1.3947,-1.3192,-1.2982,-1.3517,-1.3942,-1.4465,-1.5087,-1.5834,-1.6734,-1.7841,-1.7775,-1.7128,-1.5918,-1.4563,-1.324,-1.1904,-1.1221,-1.0736,-1.0336,-1.0163,-1.031,-1.0605,-1.0581,-1.1142,0.0,0.0,0.0,0.0,0.0,0.0,0.0,0.0,-1.1183,-1.1032,-1.0525,-1.0304,-1.024,-1.0136,-1.0128,-1.0061,-1.0031,-1.0483,0.0,0.0,0.0,0.0,0.0,0.0,0.0,0.0,0.0,0.0,0.0,0.0,0.0,0.0,0.0,-2.8133,-2.9373,-3.0147,-3.073,-3.1065,-3.1509,-3.1965,-3.2447,-3.2911,-3.332,-3.3518,-3.3765,-3.4071,-3.4442,-3.545,-3.6244,-3.66,-3.7399,-3.7713,-3.7471,-3.7697,-3.7412,-3.6651,-3.6073,-3.5733,-3.5504,-3.5504,-3.5504,-3.5439,-3.4758,-3.4461,-3.4394,-3.3463,-3.2464,-3.1683,-3.1683,-3.2033,-3.2664,-3.2961,-3.289,-3.2522,0.0,0.0,0.0,0.0,0.0,0.0,0.0,0.0,0.0,0.0,0.0,0.0,0.0,0.0,0.0,0.0,0.0,0.0,-1.2595,-1.3234,-1.3047,-1.1562,-1.3288,-1.4342,-1.4497,-1.5891,-1.7142,-1.8222,-1.8465,-1.7881,-1.6478,-1.5021,-1.3719,-1.2609,-1.2255,-1.1728,-1.1116,-1.1633,-1.1792,-1.1816,-1.1787,-1.2201,-1.2773,0.0,0.0,0.0,0.0,0.0,0.0,0.0,-1.2274,-1.1801,-1.1651,-1.167,-1.171,-1.171,-1.1604,-1.1506,-1.1338,-1.1291,0.0,0.0,0.0,0.0,0.0,0.0,0.0,0.0,0.0,0.0,0.0,0.0,0.0,-2.4214,-2.6308,-2.8186,-2.9621,-3.0278,-3.0985,-3.1997,-3.2062,-3.2722,-3.4319,-3.4535,-3.4741,-3.5444,-3.6212,-3.6244,-3.5535,-3.6959,-3.7415,-3.6748,-3.7406,-3.7439,-3.6715,-3.7439,-3.7411,-3.6694,-3.662,-3.6212,-3.5504,-3.5504,-3.5504,-3.5504,-3.5504,-3.5504,-3.5424,-3.4394,-3.3449,-3.2593,-3.2593,-3.2593,-3.2749,-3.3671,-3.3463,-3.2749,0.0,0.0,0.0,0.0,0.0,0.0,0.0,0.0,0.0,0.0,0.0,0.0,0.0,0.0,0.0,0.0,0.0,0.0,-1.3039,-1.2827,-1.2576,-1.2305,-1.3024,-1.3657,-1.4078,-1.5729,-1.7161,-1.8249,-1.7959,-1.7593,-1.7103,-1.5638,-1.4585,-1.3888,-1.3102,-1.253,-1.2178,-1.2218,-1.2445,-1.2778,-1.274,-1.3205,-1.3831,0.0,0.0,0.0,0.0,0.0,0.0,0.0,0.0,0.0,-1.2822,-1.2607,-1.2454,-1.2454,-1.2332,-1.215,-1.1939,0.0,0.0,0.0,0.0,0.0,0.0,0.0,0.0,0.0,0.0,0.0,0.0,0.0,0.0,-2.638,-2.7811,-2.9177,-2.9998,-3.0776,-3.1333,-3.1663,-3.2062,-3.2766,-3.3704,-3.4206,-3.4997,-3.6272,-3.6054,-3.6011,-3.6337,-3.6809,-3.6934,-3.6715,-3.7436,-3.7784,-3.7565,-3.7784,-3.7502,-3.6714,-3.7215,-3.7007,-3.6275,-3.5718,-3.5504,-3.5504,-3.5504,-3.5504,-3.5424,-3.4394,-3.4245,-3.4558,-3.3891,-3.4041,-3.4706,-3.492,-3.4854,-3.4558,0.0,0.0,0.0,0.0,0.0,0.0,0.0,0.0,0.0,0.0,0.0,0.0,0.0,0.0,0.0,0.0,0.0,0.0,0.0,-1.2737,-1.2351,-1.2091,-1.2319,-1.3079,-1.4438,-1.5576,-1.6619,-1.7531,-1.7522,-1.7405,-1.7202,-1.6066,-1.5245,-1.4687,-1.405,-1.3484,-1.3102,-1.3198,-1.3389,-1.3632,-1.3637,-1.4071,-1.4635,0.0,0.0,0.0,0.0,0.0,0.0,0.0,0.0,0.0,-1.3506,-1.3398,-1.3351,-1.3351,-1.3304,-1.316,-1.2957,0.0,0.0,0.0,0.0,0.0,0.0,0.0,0.0,0.0,0.0,0.0,0.0,-2.6806,0.0,-2.8034,-2.8797,-2.9711,-3.0616,-3.0982,-3.112,-3.112,-3.1694,-3.241,-3.3089,-3.3989,-3.5014,-3.6175,-3.6114,-3.6099,-3.6228,-3.6865,-3.6887,-3.6288,-3.7026,-3.7313,-3.7009,-3.7297,-3.7225,-3.6721,-3.7182,-3.7091,-3.6616,-3.6153,-3.5806,-3.5485,-3.5213,-3.525,-3.5424,-3.4839,-3.4986,-3.5439,-3.4839,-3.4986,-3.5504,-3.5504,-3.5504,-3.5424,0.0,0.0,0.0,0.0,0.0,0.0,0.0,0.0,0.0,0.0,0.0,0.0,0.0,0.0,0.0,0.0,0.0,0.0,0.0,0.0,-1.2291,-1.1359,-1.1448,-1.2691,-1.5159,-1.5357,-1.5695,-1.6304,-1.706,-1.7297,-1.6975,-1.6467,-1.5928,-1.532,-1.5107,-1.4687,-1.4086,-1.4501,-1.4582,-1.4448,-1.4526,-1.4861,-1.5285,-1.4464,0.0,0.0,0.0,0.0,0.0,0.0,0.0,0.0,-1.3806,-1.3992,-1.4261,-1.4294,-1.4329,-1.4307,0.0,0.0,0.0,0.0,0.0,0.0,0.0,0.0,0.0,0.0,0.0,0.0,0.0,-2.8223,-2.7328,-2.9204,-2.945,-2.9828,-3.1155,-3.0923,-3.0548,-3.0432,-3.1106,-3.1849,-3.2446,-3.3779,-3.4867,-3.554,-3.6209,-3.6356,-3.5811,-3.7011,-3.7136,-3.5773,-3.6435,-3.6407,-3.5667,-3.6361,-3.6671,-3.6688,-3.6704,-3.6719,-3.6701,-3.6574,-3.6149,-3.544,-3.4773,-3.4853,-3.5374,-3.5325,-3.5374,-3.5503,-3.5449,-3.5479,-3.5479,-3.5474,-3.5504,-3.5504,0.0,0.0,0.0,0.0,0.0,0.0,0.0,0.0,0.0,0.0,0.0,0.0,0.0,0.0,0.0,0.0,0.0,0.0,0.0,0.0,-1.2267,-1.1495,-1.164,-1.2633,-1.4538,-1.4759,-1.5059,-1.5469,-1.6515,-1.7008,-1.6943,-1.7276,-1.7286,-1.6954,-1.6409,-1.6114,-1.6059,-1.5564,-1.5499,-1.5696,-1.556,-1.564,-1.5788,-1.5362,-1.5397,0.0,0.0,0.0,0.0,0.0,0.0,0.0,-1.4425,-1.4494,-1.4525,-1.5004,-1.4801,-1.4536,0.0,0.0,0.0,0.0,0.0,0.0,0.0,0.0,0.0,0.0,0.0,0.0,-2.8262,-2.8513,-2.9197,-3.0134,-3.0127,-3.0028,-2.9998,-3.0773,-3.0928,-2.9903,-3.0846,-3.1618,-3.1736,-3.3453,-3.4889,-3.5535,-3.574,-3.6185,-3.7055,-3.6844,-3.6762,-3.6843,-3.6613,-3.6396,-3.6224,-3.598,-3.5876,-3.5876,-3.6481,-3.6787,-3.6774,-3.6099,-3.5388,-3.4728,-3.4568,-3.4601,-3.468,-3.415,-3.4546,-3.5504,-3.4956,-3.5044,-3.5508,-3.5473,-3.5504,-3.5504,0.0,0.0,0.0,0.0,0.0,0.0,0.0,0.0,0.0,0.0,0.0,0.0,0.0,0.0,0.0,0.0,0.0,0.0,0.0,0.0,-1.1991,-1.1342,-1.1799,-1.2646,-1.3841,-1.4432,-1.484,-1.5101,-1.6425,-1.6821,-1.6389,-1.7401,-1.7587,-1.713,-1.729,-1.7315,-1.7192,-1.6747,-1.6549,-1.6562,-1.6587,-1.6441,-1.6194,-1.5794,-1.5794,-1.6089,-1.6393,0.0,0.0,0.0,0.0,0.0,0.0,0.0,-1.5151,-1.5417,-1.5584,-1.5732,0.0,0.0,0.0,0.0,0.0,0.0,0.0,0.0,0.0,0.0,0.0,0.0,-2.8586,-2.8842,-2.9325,-2.9968,-2.9793,-2.9636,-2.9877,-3.0433,-3.0587,-2.9913,-3.082,-3.1486,-3.1489,-3.3003,-3.4153,-3.4513,-3.4878,-3.5283,-3.5832,-3.6201,-3.6469,-3.6569,-3.671,-3.6764,-3.6764,-3.6522,-3.6249,-3.5985,-3.6395,-3.6468,-3.6202,-3.5826,-3.5428,-3.5012,-3.4666,-3.4713,-3.4971,-3.4659,-3.4945,-3.5538,-3.5179,-3.526,-3.5524,-3.5561,-3.5339,-3.5033,0.0,0.0,0.0,0.0,0.0,0.0,0.0,0.0,0.0,0.0,0.0,0.0,0.0,0.0,0.0,0.0,0.0,0.0,0.0,0.0,0.0,-1.1437,-1.2102,-1.2705,-1.3193,-1.417,-1.4724,-1.4902,-1.6247,-1.6499,0.0,-1.7448,-1.7808,-1.7197,-1.8079,-1.8341,-1.8106,-1.784,-1.7626,-1.7436,-1.7477,-1.7216,-1.6685,-1.617,-1.6153,-1.6426,-1.6582,-1.5901,-1.4942,-1.5057,0.0,0.0,0.0,0.0,-1.5522,-1.5686,-1.6312,-1.6863,0.0,0.0,0.0,0.0,0.0,0.0,0.0,0.0,0.0,0.0,0.0,-2.9101,-2.9205,-2.8786,-2.8637,-2.931,-2.8989,-2.8959,-2.9644,-3.0063,-3.0188,-2.9837,-3.0868,-3.1517,-3.1242,-3.2555,-3.3355,-3.322,-3.388,-3.4269,-3.4103,-3.5364,-3.6046,-3.5864,-3.654,-3.6895,-3.6895,-3.6803,-3.6608,-3.6331,-3.6249,-3.595,-3.5391,-3.5454,-3.5462,-3.538,-3.4824,-3.4904,-3.5412,-3.5304,-3.5449,-3.5716,-3.5486,-3.5572,-3.5734,-3.5607,-3.5212,-3.4685,0.0,0.0,0.0,0.0,0.0,0.0,0.0,0.0,0.0,0.0,0.0,0.0,0.0,0.0,0.0,0.0,0.0,0.0,-1.4663,0.0,0.0,-1.2706,-1.2733,-1.2774,-1.2858,-1.3905,-1.4469,-1.447,-1.5381,0.0,0.0,0.0,0.0,-1.897,-1.914,-1.9295,-1.9339,-1.8655,-1.8472,-1.8612,-1.812,-1.7868,-1.7733,-1.6972,-1.6767,-1.6918,-1.7041,-1.6587,-1.5878,-1.5453,-1.49,0.0,0.0,0.0,-1.4809,-1.6036,-1.6375,0.0,0.0,0.0,0.0,0.0,0.0,0.0,0.0,0.0,0.0,0.0,0.0,-2.7171,-2.779,-2.7769,-2.7934,-2.8622,-2.8173,-2.782,-2.7925,-2.9759,-3.0465,-2.8917,-3.0956,-3.1971,-3.0582,-3.2227,-3.3136,-3.2476,-3.3119,-3.3741,-3.4164,-3.4703,-3.5208,-3.5627,-3.5702,-3.5723,-3.5723,-3.5261,-3.5347,-3.598,-3.5593,-3.516,-3.4641,-3.4655,-3.4697,-3.4726,-3.4611,-3.4628,-3.4677,-3.4127,-3.4823,-3.6171,-3.5114,-3.5377,-3.625,-3.576,-3.5561,-3.5451,0.0,0.0,0.0,0.0,0.0,0.0,0.0,0.0,0.0,0.0,0.0,0.0,0.0,0.0,0.0,-1.5827,-1.5128,-1.4525,-1.4033,-1.3377,-1.2946,-1.2788,-1.3388,-1.3498,-1.3081,-1.4101,-1.4822,-1.5248,0.0,0.0,0.0,-1.9411,-2.0092,0.0,0.0,0.0,-2.0241,-1.998,-1.9655,-1.9316,-1.9154,-1.8643,-1.8015,-1.7759,-1.7419,-1.7079,-1.6808,-1.6462,-1.6099,-1.5616,-1.5248,-1.4959,-1.45,0.0,0.0,0.0,0.0,0.0,0.0,0.0,0.0,0.0,0.0,0.0,0.0,0.0,0.0,0.0,-2.3729,-2.4822,-2.6213,-2.6782,-2.7126,-2.7425,-2.753,-2.7615,-2.7614,-2.7854,-2.8544,-2.9865,-3.0467,-3.08,-3.0797,-3.1645,-3.2036,-3.1698,-3.2357,-3.2804,-3.2827,-3.4092,-3.4848,-3.4929,-3.5569,-3.5727,-3.5223,-3.5457,-3.5495,-3.5278,-3.4847,-3.4386,-3.388,-3.388,-3.4374,-3.5161,-3.5161,-3.5311,-3.5593,-3.529,-3.5805,-3.6781,-3.626,-3.6362,-3.6772,-3.6253,-3.5806,-3.5449,0.0,0.0,0.0,0.0,0.0,0.0,0.0,0.0,0.0,0.0,0.0,0.0,0.0,0.0,0.0,0.0,-1.5349,-1.4703,-1.4038,-1.421,-1.4021,-1.3263,-1.3883,-1.3964,-1.3432,-1.4245,-1.4997,0.0,0.0,0.0,-1.849,-2.0074,-2.0527,0.0,-2.0436,-2.0622,0.0,0.0,0.0,-1.9891,-1.9691,-1.9017,-1.8131,-1.8112,-1.7853,-1.7424,-1.6735,-1.6519,-1.6537,-1.5929,-1.5669,-1.5529,-1.4907,-1.5384,0.0,0.0,0.0,0.0,0.0,0.0,0.0,0.0,0.0,0.0,0.0,0.0,0.0,0.0,-2.1864,-2.2877,-2.4343,-2.542,-2.6153,-2.6318,-2.6861,-2.7229,-2.7104,-2.6335,-2.6943,-3.0092,-2.9617,-2.9603,-3.1067,-3.1021,-3.1004,-3.119,-3.1698,-3.189,-3.1657,-3.309,-3.3837,-3.3625,-3.4572,-3.4743,-3.4073,-3.4926,-3.4927,-3.4104,-3.3952,-3.3737,-3.3436,-3.3332,-3.3981,-3.5222,-3.5091,-3.547,-3.6165,-3.6,-3.6348,-3.6999,-3.6999,-3.7076,-3.7135,-3.6764,-3.6222,-3.5613,0.0,0.0,0.0,0.0,0.0,0.0,0.0,0.0,0.0,0.0,0.0,0.0,-1.5681,-1.5812,-1.5913,-1.5968,-1.5911,-1.5752,-1.5591,-1.5081,-1.4847,-1.4963,-1.4183,0.0,-1.3763,-1.4214,-1.4592,0.0,0.0,0.0,-1.8887,-1.9508,-2.0475,-2.1728,-2.1266,-2.0654,-1.9947,0.0,0.0,0.0,-1.9293,-1.8616,-1.8219,-1.7745,-1.7904,-1.8305,-1.731,-1.7325,-1.7627,-1.6593,-1.6151,-1.6022,-1.5579,-1.5449,-1.5606,0.0,0.0,0.0,0.0,0.0,0.0,0.0,0.0,0.0,0.0,0.0,0.0,0.0,-2.0842,-2.1784,-2.1874,-2.3445,-2.4881,-2.5555,-2.6056,-2.6193,-2.5781,-2.5986,-2.6779,-2.8345,-2.8372,-2.9037,-3.1016,-3.0581,-3.0446,-3.114,-3.1241,-3.1224,-3.123,-3.1394,-3.1476,-3.1455,-3.1601,-3.1623,-3.1586,-3.2394,-3.2566,-3.2133,-3.2889,-3.3359,-3.3582,-3.3186,-3.3429,-3.4167,-3.3717,-3.432,-3.5599,-3.4888,-3.5335,-3.6457,-3.6457,-3.6764,-3.719,-3.719,-3.6825,-3.6316,0.0,0.0,0.0,0.0,0.0,0.0,0.0,0.0,0.0,0.0,0.0,0.0,0.0,-1.6291,-1.6381,-1.5785,-1.604,-1.6332,-1.6635,-1.6507,-1.6164,-1.5638,-1.5321,-1.4947,-1.4438,-1.4797,-1.5281,0.0,0.0,-1.8827,-1.9115,-2.0967,-2.1485,-2.0799,-1.9154,-1.9037,-2.0133,-1.9713,0.0,0.0,0.0,0.0,0.0,0.0,0.0,0.0,0.0,0.0,-1.7192,-1.6498,-1.6443,-1.6576,-1.6035,-1.6257,-1.6811,-1.7343,0.0,0.0,0.0,0.0,0.0,0.0,0.0,0.0,0.0,0.0,0.0,-1.9745,-2.0087,-2.0543,-2.0991,-2.2338,-2.3445,-2.3684,-2.4177,-2.4731,-2.5166,-2.4341,-2.4701,-2.7338,-2.7251,-2.7744,-2.9593,-2.9533,-2.9499,-2.9753,-2.977,-2.977,-2.977,-3.0296,-3.0574,-3.0574,-3.113,-3.1384,-3.1384,-3.1164,-3.1389,-3.1982,-3.23,-3.2581,-3.2891,-3.2721,-3.309,-3.3739,-3.3122,-3.3817,-3.5383,-3.5108,-3.5746,-3.6921,-3.6921,-3.721,-3.7578,-3.6904,-3.6764,-3.6803,0.0,0.0,0.0,0.0,0.0,0.0,0.0,0.0,0.0,-1.6651,0.0,0.0,0.0,0.0,-1.6969,-1.6367,-1.6693,-1.7107,-1.7453,-1.7602,-1.7297,-1.651,-1.6247,-1.5802,-1.5213,-1.508,-1.5412,0.0,0.0,0.0,0.0,-2.1358,-2.1745,-2.048,-1.8522,-1.8731,0.0,0.0,0.0,-1.8407,0.0,0.0,-1.7492,0.0,0.0,0.0,0.0,0.0,0.0,-1.7083,-1.706,-1.7203,-1.6809,-1.7007,0.0,0.0,0.0,0.0,0.0,0.0,0.0,0.0,0.0,0.0,0.0,0.0,0.0,-1.9782,-1.9711,-1.9824,-2.0288,-2.1081,-2.1829,-2.2278,-2.2697,-2.317,-2.38,-2.285,-2.3201,-2.623,-2.5995,-2.6433,-2.8508,-2.867,-2.8636,-2.8735,-2.8907,-2.9011,-2.9011,-2.9512,-2.9793,-2.9804,-3.0308,-3.0643,-3.072,-3.0185,-3.0483,-3.1627,-3.1561,-3.1919,-3.2655,-3.2429,-3.2749,-3.3443,-3.2763,-3.3564,-3.5255,-3.4995,-3.56,-3.6666,-3.6865,-3.7135,-3.7342,-3.6825,-3.6764,-3.6843,0.0,0.0,0.0,0.0,0.0,0.0,0.0,0.0,-1.7552,-1.7682,0.0,0.0,0.0,0.0,0.0,-1.7742,-1.7985,-1.808,-1.8063,-1.8284,-1.8206,-1.768,-1.6834,-1.6259,-1.6017,-1.5003,-1.4856,-1.5681,0.0,0.0,0.0,0.0,-2.1249,-2.1051,-1.9796,-1.9926,-2.1091,0.0,-2.0066,-1.8993,0.0,-1.878,-1.7347,0.0,0.0,0.0,-1.848,-1.8452,0.0,-1.842,0.0,0.0,0.0,0.0,0.0,0.0,0.0,0.0,0.0,0.0,0.0,0.0,0.0,0.0,0.0,0.0,-2.008,-1.9914,-1.9792,-1.9726,-1.9726,-1.9726,-2.0109,-2.1464,-2.1635,-2.165,-2.1665,-2.1665,-2.2576,-2.4936,-2.4601,-2.5192,-2.7827,-2.7889,-2.7838,-2.8084,-2.8651,-2.8943,-2.8943,-2.8955,-2.8971,-2.9012,-2.9017,-2.9134,-2.9392,-2.9412,-2.9905,-3.0903,-3.071,-3.144,-3.2939,-3.2311,-3.2455,-3.3178,-3.2745,-3.3547,-3.5111,-3.4419,-3.4699,-3.5633,-3.6165,-3.6392,-3.6457,-3.696,-3.6843,-3.6374,0.0,0.0,0.0,0.0,0.0,0.0,-1.7225,-1.7272,-1.7324,0.0,0.0,0.0,-1.7745,-1.7533,-1.7851,-1.8906,-1.8736,-1.8778,-1.9413,-1.9512,-1.9284,-1.8634,-1.8205,-1.7423,-1.6242,-1.5912,-1.5688,-1.5463,-1.7288,-1.8376,-1.8829,-2.1118,-2.1949,0.0,-2.1678,-2.1622,-2.1398,-2.026,0.0,0.0,-1.9695,-1.9273,0.0,0.0,0.0,0.0,0.0,-1.8791,-1.8553,0.0,-1.7894,-1.7598,0.0,0.0,0.0,0.0,0.0,0.0,-1.8829,0.0,0.0,0.0,0.0,0.0,0.0,0.0,0.0,-1.9134,-1.9522,-2.0005,-2.0104,-1.9909,-1.9903,-2.0559,-2.0434,-2.0408,-2.0917,-2.1235,-2.1846,-2.3052,-2.3578,-2.4162,-2.5012,-2.5765,-2.6235,-2.6303,-2.6928,-2.7334,-2.7334,-2.7875,-2.8461,-2.8994,-2.92,-2.933,-2.9412,-2.9533,-3.0039,-3.0903,-3.0847,-3.1354,-3.2366,-3.2609,-3.2847,-3.3061,-3.3332,-3.3869,-3.4531,-3.4219,-3.4576,-3.5324,-3.5693,-3.6054,-3.6374,-3.6139,-3.6165,-3.6264,0.0,0.0,0.0,0.0,0.0,-1.7395,-1.745,-1.7505,-1.7583,0.0,0.0,0.0,-1.8371,-1.8489,-1.8976,-2.0156,-2.0076,-2.015,-2.0635,-2.0791,-2.0466,-1.9651,-1.9042,-1.8127,-1.6846,-1.6343,-1.599,-1.5676,-1.727,-1.8424,-1.9181,-2.1101,-2.1843,-2.163,0.0,0.0,0.0,0.0,0.0,0.0,-2.0599,0.0,0.0,-1.9864,-1.9969,0.0,0.0,0.0,-1.8959,-1.8817,-1.8511,0.0,0.0,0.0,0.0,0.0,0.0,0.0,0.0,0.0,0.0,0.0,0.0,0.0,-2.0083,-2.0401,-2.0572,0.0,-1.9993,-2.0512,-2.0398,-2.0348,-2.0382,-2.0601,-2.0431,-2.0277,-2.0302,-2.05,-2.0926,-2.1713,-2.2529,-2.3244,-2.38,-2.4639,-2.527,-2.5592,-2.6143,-2.6756,-2.7374,-2.7862,-2.842,-2.9138,-2.931,-2.9474,-2.9643,-2.9782,-3.0108,-3.0681,-3.0582,-3.0951,-3.1785,-3.2386,-3.2863,-3.3194,-3.3716,-3.4071,-3.4254,-3.4193,-3.4493,-3.5,-3.4981,-3.5341,-3.5825,-3.5351,-3.5555,-3.5959,0.0,0.0,-1.6115,-1.652,-1.7194,-1.7692,-1.7729,-1.7866,-1.8042,0.0,-1.8202,-1.8506,-1.9317,-1.9974,-2.065,-2.1322,-2.1599,-2.1725,-2.1663,-2.1821,-2.1505,-2.0559,-1.9587,-1.8612,-1.7677,-1.6721,-1.6254,-1.6311,-1.7411,-1.8529,-1.9594,-2.0797,-2.1371,-2.1371,0.0,0.0,0.0,0.0,0.0,-2.0208,-2.1801,-2.0994,0.0,0.0,-2.0428,-1.9698,-1.9708,-1.969,-1.969,-1.9603,-1.9369,0.0,0.0,0.0,0.0,0.0,-1.886,0.0,0.0,0.0,0.0,0.0,0.0,0.0,-2.0402,-2.1002,-2.1315,-2.0634,-2.0894,-2.1118,-2.0764,-2.0959,-2.1195,-2.1228,-2.1149,-2.0797,-1.9945,-1.9874,-2.0166,-2.0901,-2.1664,-2.2508,-2.3472,-2.4059,-2.4675,-2.5368,-2.5958,-2.6845,-2.8188,-2.8373,-2.8724,-2.9392,-2.9434,-2.9625,-2.9999,-3.0028,-3.0163,-3.0398,-3.015,-3.0448,-3.1234,-3.1933,-3.2619,-3.3355,-3.3967,-3.4223,-3.4208,-3.4243,-3.4422,-3.4641,-3.4306,-3.4545,-3.5094,-3.4677,-3.4907,-3.544,0.0,0.0,-1.7172,-1.7772,-1.7965,-1.8034,-1.7968,-1.7933,-1.7868,-1.7679,-1.8696,-1.9606,-1.9972,-2.0855,-2.1538,-2.185,-2.2033,-2.2061,-2.1922,-2.1628,-2.119,-2.0675,-2.0234,-1.958,-1.8649,-1.8358,-1.8029,-1.762,-1.8559,-1.939,-2.0164,-2.1226,-2.1721,-2.1781,0.0,0.0,0.0,0.0,0.0,-2.1749,-2.1874,0.0,-2.1134,-2.0295,-1.9857,-1.9701,-1.9698,-1.969,-1.9603,-1.8959,-1.8831,-1.8855,0.0,0.0,0.0,-1.9049,0.0,0.0,0.0,0.0,0.0,0.0,0.0,0.0,-1.8876,-1.9894,-2.0858,-2.0429,-2.0974,-2.1582,-2.1744,-2.1519,-2.1411,-2.1832,-2.1488,-2.1086,-2.0797,-2.1023,-2.115,-2.1023,-2.1732,-2.2208,-2.2032,-2.3013,-2.3782,-2.419,-2.5684,-2.6854,-2.7403,-2.8251,-2.892,-2.9392,-2.9713,-2.9924,-2.9999,-3.0209,-3.0355,-3.0398,-3.0355,-3.0407,-3.0618,-3.1878,-3.2526,-3.2756,-3.4035,-3.4445,-3.4195,-3.4222,-3.4265,-3.4372,-3.4535,-3.4673,-3.4777,-3.4686,-3.4561,-3.4329,0.0,-1.6566,-1.7149,-1.7854,-1.7909,-1.7855,-1.7855,-1.7814,-1.7774,-1.7679,-1.9205,-2.043,-2.0848,-2.1812,-2.2583,-2.2947,-2.3086,-2.3132,-2.3112,-2.2368,-2.1739,-2.1227,-2.0559,-1.9813,-1.8961,-1.8909,-1.8743,-1.8444,-1.9089,-1.9878,-2.077,-2.1447,-2.1917,-2.2186,0.0,0.0,0.0,0.0,-2.2133,-2.1961,-2.2159,0.0,-2.0768,-2.0333,-2.0005,-1.9701,-1.9698,-1.9854,-1.9894,-1.9072,-1.9132,0.0,-1.8679,-1.864,-1.893,0.0,-1.9347,-1.936,0.0,0.0,0.0,-1.8214,0.0,0.0,0.0,-1.9816,-2.0933,-2.0592,-2.1416,-2.2181,-2.2181,-2.2119,-2.2175,-2.2473,-2.2192,-2.1948,-2.2005,-2.1595,-2.1402,-2.1627,-2.1834,-2.1957,-2.1957,-2.2621,-2.3421,-2.4325,-2.5618,-2.6561,-2.7024,-2.7564,-2.8237,-2.9074,-2.9285,-2.9655,-3.0196,-3.0323,-3.0398,-3.0398,-3.0398,-3.0398,-3.0456,-3.1999,-3.2704,-3.2781,-3.4257,-3.4567,-3.3994,-3.4128,-3.3981,-3.3671,-3.3872,-3.4169,-3.4474,-3.4234,-3.4269,-3.4347,-1.6139,0.0,-1.7023,-1.7598,-1.7625,-1.7611,-1.776,-1.7774,-1.7787,-1.7948,-1.9643,-2.0932,-2.1193,0.0,0.0,0.0,-2.3919,-2.4081,-2.4127,-2.3161,-2.2304,-2.1639,-2.0941,-2.017,-1.9293,-1.9498,-1.9531,-1.9425,-1.9735,-2.0399,-2.1428,-2.1672,-2.2032,-2.247,0.0,0.0,0.0,0.0,0.0,-2.1804,0.0,-2.1252,-1.9744,-2.0294,-2.0175,-1.9721,-1.9779,-2.0019,-2.0212,-1.9558,-1.9823,-2.0158,-1.9155,-1.9244,0.0,0.0,0.0,0.0,0.0,0.0,0.0,0.0,0.0,-1.8698,0.0,0.0,0.0,-2.111,0.0,0.0,0.0,0.0,0.0,-2.2944,0.0,0.0,0.0,-2.2074,0.0,-2.2375,-2.2103,-2.201,-2.2426,-2.273,-2.3382,-2.459,-2.5434,-2.6111,-2.6599,-2.6842,-2.7503,-2.8698,-2.8826,-2.9353,-3.0379,-3.0398,-3.0398,-3.0398,-3.0398,-3.0398,-3.0456,-3.2141,-3.2891,-3.2974,-3.4336,-3.4489,-3.3794,-3.3859,-3.3523,-3.3022,-3.3232,-3.3671,-3.4171,-3.377,-3.3964,-3.441,-1.6428,-1.717,0.0,-1.7679,-1.7679,-1.7801,-1.8083,-1.8055,-1.8147,-1.863,-1.9984,0.0,0.0,0.0,0.0,0.0,0.0,0.0,-2.3916,0.0,-2.2243,-2.1368,-2.1962,-2.1693,-2.0366,-2.1201,-2.1584,-2.1395,-2.1256,-2.1532,-2.2158,-2.2152,-2.2231,0.0,-2.2462,0.0,0.0,0.0,-2.2095,0.0,-2.1218,-2.0442,0.0,-1.9775,-1.976,-1.9759,-2.0091,-2.0246,-2.0299,0.0,-2.0585,-2.0764,0.0,-1.9829,-2.0085,-1.9747,0.0,0.0,0.0,0.0,0.0,0.0,-1.9042,0.0,0.0,0.0,-2.1524,-2.2314,0.0,0.0,0.0,0.0,0.0,0.0,0.0,0.0,-2.3095,-2.2958,-2.2898,-2.3,-2.2859,-2.2841,-2.3087,-2.3392,-2.3664,-2.3819,-2.4853,-2.5491,-2.5571,-2.6577,-2.7584,-2.8515,-2.8874,-2.9514,-3.0379,-3.0398,-3.0398,-3.0398,-3.0398,-3.0398,-3.0456,-3.2141,-3.2891,-3.2949,-3.3897,-3.4112,-3.3751,-3.2999,-3.2807,-3.3045,-3.3537,-3.3789,-3.3835,-3.3808,-3.36,-3.3376,-1.6404,-1.6959,0.0,0.0,-1.7814,-1.8042,-1.8539,-1.8769,-1.9165,0.0,0.0,0.0,0.0,0.0,0.0,0.0,0.0,-2.2629,0.0,0.0,0.0,-2.0172,-2.1375,-2.1424,-2.0,-2.1047,-2.1536,-2.1419,-2.1631,-2.1882,-2.213,-2.2332,-2.2553,0.0,-2.2365,0.0,-2.2276,0.0,-2.1347,0.0,0.0,0.0,0.0,-1.9686,-1.9843,-2.0046,-2.0224,-2.0634,-2.1023,-2.0862,-2.0991,0.0,0.0,0.0,0.0,-2.0208,0.0,0.0,0.0,0.0,0.0,0.0,0.0,0.0,-1.9948,0.0,-2.1334,-2.1893,0.0,0.0,0.0,0.0,0.0,0.0,-2.2136,-2.1877,0.0,0.0,-2.2238,-2.3059,-2.3153,-2.3224,-2.3522,-2.3628,-2.3735,-2.3976,-2.4424,-2.4763,-2.4857,-2.5366,-2.6105,-2.7196,-2.7873,-2.8694,-2.964,-3.016,-3.0398,-3.0398,-3.0398,-3.0398,-3.0436,-3.166,-3.2468,-3.291,-3.3295,-3.339,-3.325,-3.2714,-3.259,-3.2732,-3.2786,-3.321,-3.3733,-3.3293,-3.3277,-3.355,0.0,0.0,0.0,0.0,-1.7882,-1.8212,-1.8893,-1.9332,0.0,0.0,0.0,0.0,-2.1226,-2.261,0.0,0.0,-2.1269,-2.124,0.0,0.0,-2.0773,0.0,0.0,0.0,0.0,-2.1108,-2.1746,-2.1356,-2.1748,-2.1994,-2.213,-2.2415,-2.2643,-2.2824,0.0,-2.2361,-2.2028,0.0,-2.0935,-2.0911,-2.0055,-1.9704,-1.9686,-1.9701,-1.9935,-2.0314,-2.0449,-2.0975,-2.1598,-2.1415,-2.1507,-2.1658,-2.1275,-2.1039,-2.0878,0.0,0.0,0.0,-1.9853,0.0,0.0,0.0,-1.9664,-2.0119,-2.0091,-2.0826,-2.1545,-2.1807,-2.2418,0.0,0.0,0.0,-2.196,-2.1821,0.0,-2.1078,-2.1267,-2.1285,0.0,-2.2646,-2.3016,-2.3379,-2.384,-2.3798,-2.3878,-2.417,-2.417,-2.4228,-2.4374,-2.4444,-2.5073,-2.6432,-2.7203,-2.8167,-2.9339,-3.0059,-3.0398,-3.0398,-3.0398,-3.0398,-3.0417,-3.1295,-3.2025,-3.2564,-3.2564,-3.2564,-3.2532,-3.211,-3.2027,-3.214,-3.1953,-3.2606,-3.3623,-3.2951,-3.3188,-3.3807,-1.6034,-1.6735,0.0,0.0,0.0,0.0,-1.9058,0.0,0.0,0.0,0.0,0.0,0.0,0.0,0.0,0.0,0.0,-1.9956,-2.0373,0.0,-2.0711,0.0,0.0,-2.2591,0.0,0.0,-2.2899,-2.1781,-2.1799,-2.2017,-2.2377,-2.2405,-2.2422,-2.2479,-2.3333,-2.2753,-2.1118,-2.1972,-2.1351,-1.975,-1.972,-1.9705,-1.9713,0.0,-1.9936,-2.0348,-2.0829,-2.1244,-2.1658,-2.2106,-2.2282,-2.218,-2.1642,-2.1475,-2.1413,-2.1086,0.0,0.0,-2.1181,-2.1337,-2.1383,-2.1007,-2.1425,-2.1857,-2.1678,-2.2062,-2.2517,-2.273,-2.2825,-2.2693,-2.2059,-2.1961,-2.1794,-2.1131,-2.1179,0.0,0.0,-2.1534,-2.1661,-2.1644,-2.2447,-2.329,-2.402,-2.4153,-2.4191,-2.419,-2.4151,-2.4113,-2.4113,-2.4284,-2.5149,-2.6823,-2.7346,-2.8349,-2.9956,-3.0267,-3.0398,-3.0398,-3.0398,-3.0398,-3.0417,-3.1295,-3.1718,-3.1737,-3.1737,-3.1737,-3.1679,-3.0821,-3.0803,-3.1337,-3.1333,-3.2176,-3.3368,-3.309,-3.3346,-3.3807,0.0,0.0,0.0,0.0,0.0,0.0,0.0,-2.0518,0.0,0.0,0.0,0.0,0.0,-2.083,-2.0868,0.0,0.0,-1.8826,-1.786,-1.8884,0.0,0.0,0.0,-2.0695,0.0,0.0,0.0,-2.1924,-2.2026,-2.213,-2.2215,-2.2453,-2.2853,-2.3266,0.0,-2.2859,0.0,0.0,0.0,0.0,0.0,-2.0971,-2.1302,0.0,-2.0373,-2.0829,-2.1244,-2.1675,-2.2106,-2.2254,-2.231,-2.2282,-2.2106,-2.194,-2.1807,-2.1584,-2.1493,-2.1401,-2.1213,-2.1477,-2.1675,-2.1339,-2.1691,-2.2106,-2.1982,-2.2215,-2.2487,-2.2632,-2.279,-2.2832,-2.2596,-2.1826,-2.115,-2.1011,-2.0287,-1.974,0.0,-2.0005,-2.029,-2.0752,-2.164,0.0,-2.2538,-2.3088,-2.3382,-2.3326,-2.3859,-2.4153,-2.4094,-2.4209,-2.4579,-2.5277,-2.6495,-2.7551,-2.8406,-2.9555,-3.0222,-3.0398,-3.0398,-3.0398,-3.0398,-3.0717,-3.116,-3.1679,-3.1102,-3.1179,-3.1641,-3.0756,-3.0873,-3.15,-3.0938,-3.1923,-3.3617,-3.3144,-3.3459,-3.4043,-1.5623,0.0,0.0,0.0,0.0,0.0,0.0,0.0,0.0,0.0,-2.1098,0.0,-1.983,0.0,-1.9741,0.0,-1.8022,-1.7663,-1.6559,-1.7682,0.0,-1.6547,-1.8287,0.0,0.0,0.0,0.0,0.0,-2.2393,-2.2872,-2.2744,-2.2915,-2.3255,-2.3789,0.0,-2.3692,-2.3175,0.0,-2.1553,0.0,0.0,-2.1741,0.0,-2.1221,-2.127,-2.1695,-2.1626,-2.1899,-2.231,-2.231,-2.231,-2.231,-2.231,-2.2192,-2.2089,-2.2003,-2.1961,-2.1873,-2.1615,-2.1764,-2.1915,-2.1554,-2.1827,-2.2168,-2.1982,-2.2186,-2.2432,-2.2542,-2.2738,-2.2807,-2.2461,-2.1598,-2.0827,-2.0583,-1.9646,-1.9018,0.0,-1.9248,-1.9483,-1.9948,-2.0833,0.0,0.0,-2.2409,-2.274,-2.3251,-2.3802,-2.4077,-2.4074,-2.4368,-2.4671,-2.4925,-2.6296,-2.7374,-2.8025,-2.9434,-3.0241,-3.0398,-3.0398,-3.0398,-3.0398,-3.0398,-3.0717,-3.1218,-3.0629,-3.0717,-3.1198,-3.0629,-3.0737,-3.1218,-3.0968,-3.193,-3.3414,-3.288,-3.325,-3.4018,0.0,0.0,0.0,0.0,-1.8068,0.0,0.0,0.0,-2.0004,0.0,-2.013,-1.9592,-1.9564,-1.8564,-1.7741,-1.7433,-1.6886,-1.6547,-1.6522,-1.7393,0.0,0.0,-1.7739,-1.8195,-1.7841,0.0,0.0,0.0,0.0,0.0,-2.3879,-2.3606,-2.365,-2.3967,-2.4808,0.0,-2.5092,-2.3823,-2.2245,-2.0712,-2.1686,-2.1925,-2.1749,-2.2015,-2.2481,-2.2908,-2.1952,-2.1928,-2.231,-2.231,-2.231,-2.231,-2.231,-2.231,-2.231,-2.231,-2.231,-2.231,-2.231,-2.2254,-2.2094,-2.1735,-2.1915,-2.2123,-2.1807,-2.2073,-2.2405,-2.2487,-2.2712,-2.2625,-2.1754,-2.1346,-2.0844,-1.9976,-1.947,-1.92,-1.9292,-1.9289,-1.9308,-1.9301,-2.0026,0.0,0.0,-2.208,-2.2246,-2.3759,-2.3864,-2.3901,-2.3996,-2.4725,-2.5291,-2.5633,-2.6712,-2.7744,-2.8736,-2.9832,-3.0398,-3.0398,-3.0398,-3.0417,-3.0456,-3.0417,-3.0417,-3.0456,-3.0417,-3.0398,-3.0398,-3.0398,-3.0398,-3.0475,-3.1314,-3.2148,-3.2807,-3.237,-3.29,-3.3807,-1.7015,-1.808,-1.8922,0.0,-1.8938,-1.9358,0.0,0.0,0.0,0.0,-2.1003,-2.0289,-1.9425,-1.8951,-1.8361,-1.7496,-1.725,0.0,0.0,0.0,0.0,-1.7118,-1.7773,-1.852,-1.9322,-2.0194,-2.0971,-2.1591,0.0,0.0,-2.3453,-2.3605,-2.3918,-2.4446,0.0,0.0,-2.5966,-2.4691,-2.2945,-2.108,-2.1552,-2.1917,-2.2165,-2.2212,-2.2747,-2.3323,-2.2432,-2.2209,-2.231,-2.231,-2.231,-2.231,-2.231,-2.231,-2.231,-2.231,-2.231,-2.231,-2.231,-2.2282,-2.2254,-2.2152,-2.2209,-2.2254,-2.2248,-2.2304,-2.2405,-2.2487,-2.2579,-2.2669,-2.2691,-2.213,-2.1737,-2.1842,-2.0898,-1.9941,0.0,0.0,0.0,-1.9235,-1.9465,-1.9774,-2.0195,-2.0576,-2.1201,-2.2136,-2.285,-2.3455,-2.3959,-2.4278,-2.4561,-2.4794,-2.6241,-2.7285,-2.7891,-2.9369,-3.0209,-3.0398,-3.0398,-3.0737,-3.1352,-3.0698,-3.0756,-3.1333,-3.0679,-3.0398,-3.0398,-3.0398,-3.0398,-3.0417,-3.066,-3.1379,-3.2463,-3.36,-3.3911,-3.3807,-1.7412,0.0,0.0,-1.9991,0.0,0.0,-2.0827,-2.0767,0.0,-2.1102,-2.0535,0.0,-1.8948,-1.8538,-1.7953,-1.7074,-1.6999,0.0,-1.6534,0.0,0.0,-1.7312,-1.7827,-1.8349,-1.888,-1.9522,0.0,-2.1728,0.0,0.0,-2.4509,-2.447,-2.4738,0.0,0.0,-2.5793,0.0,-2.4609,-2.3351,-2.2279,-2.1954,-2.2019,0.0,-2.2467,-2.2728,-2.2953,-2.2483,-2.231,-2.231,-2.231,-2.231,-2.231,-2.231,-2.231,-2.231,-2.231,-2.231,-2.231,-2.231,-2.231,-2.231,-2.231,-2.231,-2.231,-2.2366,-2.2366,-2.2366,-2.2405,-2.2515,-2.2685,-2.2977,-2.2154,-2.1497,-2.166,-2.1022,0.0,0.0,0.0,0.0,0.0,-1.9329,-1.9491,-1.989,-2.0213,-2.0894,-2.2081,-2.296,-2.362,-2.4057,-2.4483,-2.482,-2.5018,-2.6386,-2.7396,-2.7941,-2.9426,-3.0196,-3.0241,-3.0336,-3.0871,-3.1679,-3.0814,-3.0891,-3.166,-3.0794,-3.0398,-3.0398,-3.0398,-3.0398,-3.0436,-3.0833,-3.1435,-3.2279,-3.3637,-3.3985,-3.3807,-1.7654,0.0,0.0,0.0,0.0,0.0,0.0,-2.0254,0.0,-2.0257,0.0,-1.8969,-1.8545,-1.797,-1.7338,-1.6685,0.0,-1.6597,-1.6522,-1.6993,-1.7299,-1.7313,-1.788,-1.8048,-1.7885,-1.9474,-2.0605,0.0,0.0,0.0,-2.5922,-2.5562,0.0,0.0,0.0,0.0,0.0,-2.4016,-2.3387,-2.3309,-2.2396,-2.2069,-2.215,-2.2569,-2.2542,-2.231,-2.231,-2.231,-2.231,-2.231,-2.231,-2.231,-2.231,-2.231,-2.231,-2.231,-2.231,-2.231,-2.231,-2.231,-2.231,-2.231,-2.231,-2.231,-2.231,-2.231,-2.231,-2.231,-2.2487,-2.2694,-2.2892,-2.2059,-2.1207,-2.0893,-2.0833,-2.0825,0.0,0.0,0.0,0.0,0.0,0.0,-2.0807,-2.0545,-2.1043,-2.2777,-2.3508,-2.3966,-2.417,-2.4871,-2.5337,-2.5539,-2.6758,-2.768,-2.8294,-2.9691,-3.0279,-3.0061,-3.0299,-3.0871,-3.1679,-3.0814,-3.0891,-3.166,-3.0794,-3.0398,-3.0398,-3.0398,-3.0398,-3.0475,-3.1371,-3.1798,-3.2053,-3.292,-3.3351,-3.3513,0.0,0.0,0.0,0.0,0.0,-2.0761,-2.0453,-2.0206,-2.0197,-2.0631,-2.0194,-1.9636,-1.9128,-1.8843,-1.8329,-1.7313,-1.7225,0.0,0.0,0.0,0.0,-1.7544,-1.8187,-1.8792,-1.9325,-1.9664,-2.0415,0.0,0.0,-2.4121,-2.5091,-2.5253,0.0,0.0,0.0,0.0,-2.4356,-2.37,0.0,-2.1641,-2.1666,-2.1485,-2.1311,-2.2069,-2.2355,-2.231,-2.231,-2.231,-2.231,-2.231,-2.231,-2.231,-2.231,-2.231,-2.231,-2.231,-2.231,-2.231,-2.231,-2.231,-2.231,-2.231,-2.231,-2.231,-2.231,-2.231,-2.231,-2.231,-2.25,-2.2789,-2.3087,-2.3419,-2.34,-2.2683,-2.2642,-2.2247,0.0,0.0,0.0,0.0,0.0,-2.1755,-2.185,-2.1018,-2.1163,-2.285,-2.3143,-2.3511,-2.4095,-2.4413,-2.4633,-2.4713,-2.6453,-2.7504,-2.7744,-2.95,-3.0386,-3.0323,-3.0367,-3.0871,-3.1679,-3.0814,-3.0891,-3.166,-3.0794,-3.0398,-3.0398,-3.0398,-3.0398,-3.0475,-3.1371,-3.1469,-3.1205,-3.2091,-3.216,-3.2008,0.0,0.0,0.0,0.0,0.0,0.0,0.0,-2.0283,-2.0347,-2.0308,-2.0067,-1.9712,-1.9169,-1.8769,-1.8279,-1.7451,-1.7099,-1.7099,-1.7433,-1.7916,-1.8563,-1.9262,-1.9657,-1.9811,-1.9694,-1.9678,-2.0028,-2.065,-2.2933,-2.4493,-2.5393,-2.5791,0.0,0.0,0.0,-2.4659,0.0,0.0,-2.2608,-2.2322,-2.1933,-2.1698,-2.1568,-2.2095,-2.231,-2.231,-2.231,-2.231,-2.231,-2.231,-2.231,-2.231,-2.231,-2.231,-2.231,-2.231,-2.231,-2.231,-2.231,-2.231,-2.231,-2.231,-2.231,-2.231,-2.231,-2.2398,-2.25,-2.25,-2.2738,-2.2922,-2.2825,-2.3565,-2.3971,-2.328,-2.3188,-2.2943,-2.2245,0.0,-2.2014,0.0,0.0,0.0,0.0,-2.2272,-2.2317,-2.3064,-2.349,-2.386,-2.4135,-2.4339,-2.4649,-2.5108,-2.6604,-2.7578,-2.7963,-2.957,-3.0318,-3.0147,-3.0318,-3.0871,-3.1679,-3.0814,-3.0891,-3.166,-3.0794,-3.0398,-3.0398,-3.0398,-3.0398,-3.0436,-3.0714,-3.0864,-3.0941,-3.126,-3.1377,-3.1568,0.0,-2.0412,0.0,0.0,-2.0809,-2.0781,-2.0244,-2.0469,-2.0451,-1.9874,-1.9798,-1.9648,-1.9233,-1.8807,-1.8279,-1.7614,-1.725,-1.7346,-1.8039,-1.8634,-1.9544,-2.0937,-2.087,-2.0445,-1.9704,-1.9716,-1.9708,-1.9691,-2.2871,-2.4974,-2.6014,-2.6439,-2.611,0.0,0.0,-2.4404,-2.465,-2.3049,-2.2624,-2.2925,-2.2251,-2.1951,-2.1956,-2.2208,-2.231,-2.231,-2.231,-2.231,-2.231,-2.231,-2.231,-2.231,-2.231,-2.231,-2.231,-2.231,-2.231,-2.231,-2.231,-2.231,-2.231,-2.231,-2.231,-2.2293,-2.236,-2.2537,-2.2721,-2.2797,-2.3069,-2.3191,-2.2854,-2.3578,-2.41,-2.3605,-2.3531,-2.3433,-2.3243,-2.3008,-2.2651,0.0,0.0,0.0,-2.3403,-2.3396,-2.3375,-2.3459,-2.4004,-2.4303,-2.421,-2.4393,-2.4871,-2.567,-2.6626,-2.7535,-2.8405,-2.9541,-3.0075,-3.0011,-3.0273,-3.0756,-3.141,-3.0717,-3.0775,-3.1391,-3.0698,-3.0398,-3.0398,-3.0398,-3.0398,-3.0367,-3.0103,-3.0276,-3.0621,-3.0426,-3.0687,-3.1256,0.0,0.0,0.0,0.0,0.0,-2.0693,-2.0643,-2.068,-2.0451,-1.9874,-1.9798,-1.9786,-1.9736,-1.9685,-1.9246,-1.8216,-1.853,-1.8392,-1.7529,-1.7979,-1.9186,-2.1197,-2.0585,-2.0046,-1.9704,-1.9698,-1.9708,-1.9693,-2.2439,-2.4786,-2.6688,-2.6633,-2.6069,-2.5107,-2.4831,-2.4209,-2.3268,-2.3121,-2.2448,-2.1523,-2.184,-2.1843,-2.168,-2.214,-2.231,-2.231,-2.231,-2.231,-2.231,-2.231,-2.231,-2.231,-2.231,-2.231,-2.231,-2.231,-2.231,-2.231,-2.231,-2.231,-2.231,-2.231,-2.231,-2.236,-2.2599,-2.2669,-2.2797,-2.3093,-2.3414,-2.3717,-2.3983,-2.4283,-2.4439,-2.4318,-2.4449,-2.4016,-2.2451,-2.3695,-2.4063,-2.221,0.0,0.0,-2.4243,-2.363,-2.3514,-2.4239,-2.4408,-2.4393,-2.421,-2.4393,-2.4871,-2.5671,-2.6054,-2.7047,-2.8741,-2.8995,-2.9538,-3.0355,-3.0398,-3.0436,-3.0513,-3.0436,-3.0436,-3.0513,-3.0436,-3.0398,-3.0398,-3.0398,-3.0398,-3.0367,-3.0103,-2.9915,-2.9792,-2.9586,-2.9854,-3.043,0.0,0.0,0.0,-2.1163,-2.1412,-2.1275,-2.0494,-2.0832,-2.084,-1.9924,-1.9798,-1.9798,-1.9798,-1.9233,-1.8668,-1.8242,-1.779,-1.7784,-1.8397,-1.8617,-1.9561,-2.1457,-2.1972,-2.1917,-2.1312,-2.1296,-2.1129,-2.0874,-2.2979,-2.4168,-2.459,-2.6968,-2.6876,-2.4583,-2.3575,-2.3084,-2.3006,-2.2899,-2.2581,-2.2154,-2.218,-2.2267,-2.2392,-2.2005,-2.2032,-2.231,-2.231,-2.231,-2.231,-2.231,-2.231,-2.231,-2.231,-2.231,-2.231,-2.231,-2.231,-2.231,-2.231,-2.231,-2.2349,-2.25,-2.2537,-2.2599,-2.2923,-2.3165,-2.3346,-2.3459,-2.3844,-2.4265,-2.451,-2.4639,-2.4666,-2.4636,-2.4741,-2.4544,-2.3772,-2.4498,0.0,-2.357,0.0,-2.4402,-2.4356,-2.4148,-2.416,-2.4444,-2.4479,-2.4444,-2.4392,-2.4526,-2.4789,-2.5205,-2.634,-2.7324,-2.8128,-2.9193,-2.9902,-3.0286,-3.0355,-3.0398,-3.0398,-3.0398,-3.0398,-3.0398,-3.0398,-3.0398,-3.0398,-3.0398,-3.0398,-3.0367,-3.0103,-2.9877,-2.9735,-3.0015,-2.9854,-2.9659,-2.128,-2.1317,-2.1383,-2.1543,-2.1745,-2.1649,-2.0699,-2.0994,-2.0903,-1.9924,-1.9813,-1.9762,-1.9572,-1.8894,-1.8317,-1.799,-1.7375,-1.7505,-1.8774,-1.8982,-1.9787,-2.1383,-2.209,-2.2443,-2.2412,-2.1844,-2.1625,-2.1698,-2.3142,-2.3583,-2.3069,-2.624,-2.6482,-2.4173,-2.3077,-2.2788,-2.3186,-2.302,-2.2915,-2.2854,-2.267,-2.2639,-2.2633,-2.1973,-2.1886,-2.2106,-2.2106,-2.218,-2.231,-2.231,-2.231,-2.231,-2.231,-2.231,-2.231,-2.231,-2.231,-2.231,-2.231,-2.2377,-2.2463,-2.266,-2.2772,-2.2947,-2.3259,-2.3522,-2.3735,-2.3883,-2.4265,-2.4623,-2.4775,-2.4828,-2.4855,-2.4823,-2.4896,-2.4807,-2.4343,-2.4797,-2.4873,-2.4076,-2.4294,-2.4478,-2.4373,-2.429,-2.4335,-2.4528,-2.4613,-2.4578,-2.4513,-2.4834,-2.517,-2.5536,-2.6786,-2.7742,-2.8402,-2.9333,-2.9972,-3.0254,-3.0355,-3.0398,-3.0398,-3.0398,-3.0398,-3.0398,-3.0398,-3.0398,-3.0398,-3.0398,-3.0398,-3.0367,-3.0103,-2.9877,-2.9754,-3.0109,-3.0021,-2.9879,-2.3005,-2.2673,-2.2472,-2.2965,-2.2221,-2.1493,-2.1481,-2.1016,-2.0464,-1.9874,-1.9819,-1.9581,-1.9082,-1.8983,-1.8581,-1.7488,-1.7877,-1.8191,-1.8204,-1.8719,-1.9544,-2.0782,-2.0211,-2.0633,-2.2352,-2.0708,-2.0447,-2.1714,-2.2659,-2.3068,-2.3011,-2.4066,-2.4374,-2.412,-2.3994,-2.3809,-2.3595,-2.3595,-2.3459,-2.3295,-2.328,-2.2764,-2.2029,-2.2013,-2.1827,-2.1628,-2.1628,-2.1899,-2.231,-2.231,-2.231,-2.231,-2.231,-2.231,-2.231,-2.231,-2.231,-2.231,-2.231,-2.25,-2.2695,-2.2695,-2.2947,-2.3277,-2.3628,-2.3692,-2.386,-2.4373,-2.4654,-2.4804,-2.4804,-2.4917,-2.4943,-2.4818,-2.4968,-2.467,-2.3465,-2.4352,-2.4587,-2.3176,-2.3371,-2.3851,-2.4435,-2.383,-2.3757,-2.464,-2.4823,-2.4768,-2.4517,-2.5316,-2.6169,-2.7059,-2.7219,-2.819,-3.0052,-2.9303,-2.9417,-3.0398,-3.0398,-3.0398,-3.0398,-3.0398,-3.0398,-3.0398,-3.0398,-3.0398,-3.0398,-3.0398,-3.0398,-3.0367,-3.0103,-2.9877,-2.9678,-2.9474,-3.0243,-3.1366,-2.253,-2.2435,-2.2246,-2.2046,-2.1719,-2.1368,-2.0991,-2.0832,-2.0326,-1.9397,-1.9269,-1.9057,-1.8507,-1.8462,-1.8319,-1.7956,-1.7753,-1.7802,-1.8179,-1.8719,-1.9358,-2.008,-2.0356,-2.0529,-2.0644,-2.1387,-2.1766,-2.1681,-2.2318,-2.2864,-2.3405,-2.286,-2.299,-2.3752,-2.3288,-2.329,-2.3595,-2.3595,-2.3561,-2.3462,-2.3065,-2.2891,-2.2805,-2.1873,-2.1684,-2.1843,-2.1671,-2.1688,-2.1869,-2.218,-2.231,-2.231,-2.231,-2.231,-2.231,-2.231,-2.2426,-2.2573,-2.2573,-2.2789,-2.3093,-2.3305,-2.3459,-2.3628,-2.3958,-2.4154,-2.4353,-2.4762,-2.4885,-2.4981,-2.5126,-2.5182,-2.5152,-2.5037,-2.5118,-2.5042,-2.4528,-2.5272,-2.5462,-2.4411,-2.4855,-2.5096,-2.4753,-2.453,-2.4507,-2.4693,-2.4749,-2.4783,-2.476,-2.513,-2.5725,-2.6605,-2.7246,-2.8166,-2.9416,-2.966,-2.9992,-3.0398,-3.0398,-3.0398,-3.0398,-3.0398,-3.0398,-3.0398,-3.0398,-3.0398,-3.0398,-3.0398,-3.0398,-3.0398,-3.0311,-3.0122,-2.9953,-3.0282,-3.0258,-3.0172,-2.2218,-2.2146,-2.1895,-2.1543,-2.1317,-2.11,-2.0743,-2.0475,-2.0117,-1.9374,-1.9284,-1.9136,-1.8777,-1.8576,-1.8287,-1.7922,-1.7549,-1.7587,-1.8154,-1.853,-1.9045,-1.9773,-2.0207,-2.0245,-1.9798,-2.1015,-2.139,-2.0988,-2.1764,-2.2521,-2.326,-2.2688,-2.2848,-2.358,-2.3191,-2.3236,-2.3595,-2.3595,-2.3595,-2.3565,-2.3176,-2.3069,-2.298,-2.2164,-2.1972,-2.2074,-2.1827,-2.1869,-2.2021,-2.2236,-2.231,-2.2338,-2.2426,-2.2436,-2.2436,-2.2436,-2.2652,-2.2898,-2.2898,-2.3117,-2.3437,-2.3649,-2.3795,-2.3958,-2.4247,-2.4461,-2.4682,-2.4949,-2.5046,-2.5152,-2.5274,-2.5303,-2.5264,-2.5182,-2.5243,-2.5222,-2.5025,-2.5494,-2.559,-2.4907,-2.5324,-2.5451,-2.4966,-2.4949,-2.4936,-2.4883,-2.513,-2.5215,-2.5013,-2.5568,-2.6179,-2.6791,-2.7988,-2.89,-2.9517,-2.9986,-3.0286,-3.0398,-3.0398,-3.0398,-3.0398,-3.0398,-3.0398,-3.0398,-3.0398,-3.0398,-3.0398,-3.0398,-3.0398,-3.0398,-3.0398,-3.0241,-3.0079,-3.0672,-3.0639,-3.0448,-2.2108,-2.1782,-2.1405,-2.1385,-2.0945,-2.0614,-2.0534,-2.0132,-1.9767,-1.9738,-1.9698,-1.9712,-1.9709,-1.9315,-1.8623,-1.7637,-1.7446,-1.7609,-1.8223,-1.8242,-1.8731,-1.9761,-1.9798,-1.9798,-1.985,-1.985,-1.9901,-1.9965,-2.1183,-2.21,-2.2783,-2.3334,-2.3595,-2.3595,-2.3595,-2.3595,-2.3595,-2.3595,-2.3595,-2.3595,-2.3595,-2.3251,-2.2783,-2.2739,-2.2546,-2.23,-2.2141,-2.2311,-2.2603,-2.2425,-2.2412,-2.2541,-2.266,-2.2781,-2.2841,-2.2764,-2.2972,-2.3236,-2.3236,-2.3477,-2.3735,-2.3735,-2.4014,-2.434,-2.4497,-2.4707,-2.4931,-2.5005,-2.5163,-2.5303,-2.5303,-2.5303,-2.5303,-2.5303,-2.5303,-2.5252,-2.5107,-2.5256,-2.5236,-2.4861,-2.5032,-2.516,-2.5126,-2.5107,-2.5138,-2.5198,-2.5836,-2.5939,-2.5321,-2.6517,-2.7311,-2.7518,-2.9098,-3.0032,-3.0215,-3.0279,-3.0349,-3.0398,-3.0398,-3.0398,-3.0398,-3.0398,-3.0398,-3.0398,-3.0456,-3.0456,-3.0398,-3.0456,-3.0494,-3.0494,-3.0494,-3.0369,-3.0266,-3.082,-3.1372,-3.1905,-2.1104,-2.0953,-2.0749,-2.0281,-2.0109,-2.0018,-1.997,-1.9904,-1.9636,-1.9181,-1.9529,-1.9866,-1.9835,-2.0215,-2.0321,-2.006,-1.8793,-1.8227,-1.8767,-1.8821,-1.912,-1.9773,-1.9798,-2.0055,-2.0547,-2.0547,-2.0947,-2.1766,-2.2067,-2.2646,-2.3389,-2.354,-2.3595,-2.3595,-2.3595,-2.3595,-2.3595,-2.3595,-2.3595,-2.3595,-2.3595,-2.3505,-2.3325,-2.2862,-2.2645,-2.2606,-2.2796,-2.2897,-2.2991,-2.312,-2.3727,-2.4233,-2.3076,-2.3474,-2.42,-2.3342,-2.3323,-2.3566,-2.3566,-2.3816,-2.4074,-2.4074,-2.4727,-2.5239,-2.4817,-2.5362,-2.5818,-2.5327,-2.5264,-2.5303,-2.5303,-2.5303,-2.5303,-2.5303,-2.5303,-2.5484,-2.5994,-2.6065,-2.6053,-2.599,-2.5958,-2.576,-2.5301,-2.5253,-2.5243,-2.5201,-2.5256,-2.5545,-2.6097,-2.6993,-2.7605,-2.7804,-2.8219,-2.9037,-3.0336,-3.0374,-3.0386,-3.0398,-3.0398,-3.0398,-3.0398,-3.0398,-3.0398,-3.0436,-3.1102,-3.1006,-3.0436,-3.1121,-3.1391,-3.1391,-3.1391,-3.1731,-3.2217,-3.2203,-3.2161,-3.2181,-2.0718,-2.0504,-2.0103,-1.9541,-1.9616,-1.9694,-1.9437,-1.9599,-1.9627,-1.9327,-1.9581,-1.9825,-1.9792,-2.0426,-2.0822,-2.0822,-1.9963,-1.9462,-1.9483,-1.946,-1.9571,-1.9775,-2.0178,-2.0588,-2.093,-2.1108,-2.1492,-2.208,-2.2406,-2.2783,-2.3196,-2.3451,-2.3595,-2.3595,-2.3595,-2.3595,-2.3595,-2.3595,-2.3595,-2.3595,-2.3595,-2.3595,-2.3565,-2.3236,-2.3254,-2.3478,-2.3544,-2.369,-2.3844,-2.3519,-2.4144,-2.491,-2.3807,-2.439,-2.5285,-2.445,-2.4067,-2.3917,-2.3917,-2.4074,-2.419,-2.419,-2.4968,-2.5626,-2.5401,-2.553,-2.5734,-2.5878,-2.5572,-2.5303,-2.5303,-2.5303,-2.5303,-2.5303,-2.5915,-2.6531,-2.6899,-2.6931,-2.695,-2.6944,-2.6262,-2.565,-2.5331,-2.5303,-2.5274,-2.5253,-2.5493,-2.5726,-2.5899,-2.7,-2.7886,-2.8384,-2.8821,-2.9486,-3.0379,-3.0398,-3.0398,-3.0398,-3.0398,-3.0398,-3.0398,-3.0814,-3.0987,-3.1025,-3.1487,-3.1429,-3.1006,-3.1083,-3.1121,-3.116,-3.1545,-3.1718,-3.1853,-3.267,-3.2617,-3.2259,-2.0439,-2.0137,-1.961,-1.9106,-1.9439,-1.9594,-1.8975,-1.9353,-1.9706,-1.9713,-1.9779,-1.9884,-1.9974,-2.0602,-2.1051,-2.1141,-2.1234,-2.0954,-2.0234,-2.0151,-2.0147,-2.0182,-2.0804,-2.126,-2.1368,-2.1661,-2.1819,-2.1799,-2.236,-2.2709,-2.2872,-2.3348,-2.3595,-2.3595,-2.3595,-2.3595,-2.3595,-2.3595,-2.3595,-2.3595,-2.3595,-2.3638,-2.3709,-2.3709,-2.4032,-2.4514,-2.4414,-2.4688,-2.4928,-2.4093,-2.4615,-2.5487,-2.486,-2.5446,-2.6254,-2.5724,-2.5089,-2.4538,-2.441,-2.4465,-2.4576,-2.4596,-2.5375,-2.6146,-2.622,-2.5817,-2.5692,-2.6619,-2.6101,-2.5495,-2.5495,-2.5495,-2.5534,-2.5639,-2.6811,-2.772,-2.7763,-2.7727,-2.7625,-2.7433,-2.6159,-2.5303,-2.5303,-2.5303,-2.5303,-2.5303,-2.5998,-2.6217,-2.5696,-2.7091,-2.8312,-2.9168,-2.9855,-3.0275,-3.0398,-3.0398,-3.0398,-3.0398,-3.0398,-3.0456,-3.0609,-3.1371,-3.1775,-3.1891,-3.2025,-3.2006,-3.1814,-3.1083,-3.0794,-3.0852,-3.1468,-3.141,-3.1168,-3.284,-3.3053,-3.2614,-1.9911,-1.9861,-1.9636,-1.9084,-1.9426,-1.9594,-1.8992,-1.9353,-1.9722,-1.969,-2.0183,-2.0767,-2.1321,-2.1979,-2.2577,-2.3116,-2.315,-2.2527,-2.1034,-2.0806,-2.113,-2.1938,-2.1752,-2.1857,-2.2455,-2.2529,-2.2445,-2.2286,-2.242,-2.2797,-2.3478,-2.3555,-2.3595,-2.3595,-2.3595,-2.3595,-2.3595,-2.3595,-2.3595,-2.3595,-2.3595,-2.3879,-2.4266,-2.4266,-2.4632,-2.5128,-2.5558,-2.5942,-2.6201,-2.588,-2.6704,-2.7661,-2.6279,-2.6617,-2.7394,-2.6628,-2.6337,-2.608,-2.5383,-2.5713,-2.627,-2.6432,-2.7284,-2.7935,-2.7461,-2.7388,-2.7503,-2.7659,-2.7005,-2.6409,-2.6409,-2.6409,-2.66,-2.7225,-2.7541,-2.7912,-2.8531,-2.8076,-2.7408,-2.6682,-2.5817,-2.5303,-2.5303,-2.5303,-2.5303,-2.5303,-2.6081,-2.6809,-2.737,-2.8357,-2.9248,-3.0062,-2.9586,-2.966,-3.0379,-3.0398,-3.0398,-3.0398,-3.0398,-3.0794,-3.1506,-3.1641,-3.2064,-3.2756,-3.3487,-3.3391,-3.2699,-3.2564,-3.2506,-3.2468,-3.191,-3.2487,-3.3615,-3.3707,-3.396,-3.4275,-1.9798,-1.9798,-1.9649,-1.9095,-1.9449,-1.9602,-1.9027,-1.9715,-2.0231,-2.0231,-2.0813,-2.1365,-2.1665,-2.2278,-2.2787,-2.3071,-2.3391,-2.3098,-2.1898,-2.2161,-2.2245,-2.2034,-2.2472,-2.2846,-2.3201,-2.3187,-2.3142,-2.3065,-2.3054,-2.3231,-2.36,-2.3583,-2.3595,-2.3595,-2.3595,-2.3595,-2.3595,-2.3595,-2.3595,-2.3638,-2.3921,-2.4184,-2.443,-2.4712,-2.5182,-2.5689,-2.6108,-2.6556,-2.6894,-2.6627,-2.7352,-2.8222,-2.7097,-2.7547,-2.8301,-2.7475,-2.6943,-2.6521,-2.6153,-2.6631,-2.719,-2.6972,-2.7339,-2.7875,-2.8188,-2.7347,-2.689,-2.8255,-2.714,-2.6043,-2.6505,-2.6217,-2.6301,-2.7496,-2.7689,-2.8095,-2.9224,-2.8431,-2.7542,-2.7097,-2.5998,-2.5303,-2.5303,-2.5303,-2.5495,-2.5967,-2.637,-2.6976,-2.7819,-2.8648,-2.9264,-2.9632,-2.9744,-2.9987,-3.0398,-3.0398,-3.0398,-3.0398,-3.0398,-3.0871,-3.1718,-3.216,-3.2814,-3.3622,-3.4026,-3.3968,-3.3526,-3.2622,-3.2506,-3.2852,-3.2487,-3.273,-3.3364,-3.4049,-3.4071,-3.3795,-1.9798,-1.9798,-1.9635,-1.9046,-1.9423,-1.9598,-1.9009,-1.9828,-2.0514,-2.0681,-2.1137,-2.1565,-2.1904,-2.2368,-2.2783,-2.2877,-2.3333,-2.3214,-2.2298,-2.2805,-2.279,-2.1889,-2.2981,-2.3595,-2.3595,-2.3595,-2.3595,-2.3595,-2.3595,-2.3595,-2.3595,-2.3595,-2.3595,-2.3595,-2.3595,-2.3681,-2.3794,-2.3794,-2.3879,-2.3991,-2.443,-2.4657,-2.4831,-2.5221,-2.5726,-2.621,-2.6556,-2.6997,-2.7412,-2.7234,-2.7779,-2.8431,-2.7864,-2.8304,-2.8865,-2.8264,-2.764,-2.7126,-2.6943,-2.75,-2.807,-2.7643,-2.7558,-2.7805,-2.8662,-2.7332,-2.6505,-2.8659,-2.7409,-2.6178,-2.7024,-2.6486,-2.6348,-2.7771,-2.7995,-2.8305,-2.9243,-2.8412,-2.7542,-2.7109,-2.6028,-2.5303,-2.5303,-2.5476,-2.589,-2.6544,-2.6967,-2.7467,-2.814,-2.8948,-2.939,-2.939,-3.0044,-3.0398,-3.0398,-3.0398,-3.0398,-3.0398,-3.0398,-3.0948,-3.2006,-3.2622,-3.3487,-3.4507,-3.4507,-3.4507,-3.4372,-3.2679,-3.2333,-3.2872,-3.2699,-3.2607,-3.2752,-3.3942,-3.3984,-3.344,-1.9798,-1.9798,-1.9559,-1.8871,-1.9336,-1.9585,-1.8826,-1.936,-2.0059,-2.064,-2.0723,-2.1233,-2.2491,-2.2694,-2.2906,-2.3475,-2.3595,-2.3069,-2.1846,-2.1814,-2.2004,-2.2343,-2.3172,-2.3595,-2.3595,-2.3595,-2.3595,-2.3595,-2.3595,-2.3595,-2.3595,-2.3595,-2.3595,-2.3595,-2.3595,-2.3879,-2.4348,-2.4348,-2.4632,-2.5105,-2.5144,-2.5449,-2.5888,-2.5924,-2.6227,-2.6691,-2.7098,-2.75,-2.7908,-2.8192,-2.8578,-2.8952,-2.8879,-2.8938,-2.8975,-2.892,-2.8865,-2.8645,-2.7915,-2.8479,-2.9321,-2.9456,-2.9071,-2.8744,-2.9017,-2.8371,-2.7967,-2.8909,-2.8352,-2.7948,-2.8775,-2.8255,-2.7964,-2.8772,-2.8849,-2.8587,-2.7943,-2.7778,-2.7139,-2.5648,-2.538,-2.5303,-2.5303,-2.6024,-2.6524,-2.6601,-2.8044,-2.8929,-2.9006,-2.9833,-3.0302,-3.0302,-3.0359,-3.0398,-3.0398,-3.0398,-3.0398,-3.0398,-3.0398,-3.1256,-3.2814,-3.2872,-3.3814,-3.5411,-3.5411,-3.5411,-3.5276,-3.3526,-3.2852,-3.2833,-3.2083,-3.2225,-3.2922,-3.3335,-3.3937,-3.4515,-1.9798,-1.9798,-1.9736,-1.9446,-1.9623,-1.971,-1.9406,-1.9965,-2.0503,-2.0724,-2.1079,-2.1662,-2.26,-2.2717,-2.2805,-2.3039,-2.2946,-2.2523,-2.1732,-2.1963,-2.2431,-2.3128,-2.345,-2.3595,-2.3595,-2.3595,-2.3595,-2.3595,-2.3595,-2.3595,-2.3595,-2.3595,-2.3752,-2.4116,-2.4116,-2.4389,-2.491,-2.491,-2.5012,-2.5221,-2.5577,-2.5815,-2.6049,-2.6332,-2.6691,-2.7115,-2.753,-2.7908,-2.8264,-2.8633,-2.8863,-2.8994,-2.8994,-2.8994,-2.9021,-2.9181,-2.9246,-2.9214,-2.9043,-2.9173,-2.9362,-2.919,-2.8551,-2.807,-2.8299,-2.7274,-2.6813,-2.8698,-2.8025,-2.7505,-2.8852,-2.8429,-2.8126,-2.8823,-2.8102,-2.7532,-2.7675,-2.7309,-2.6587,-2.5437,-2.5793,-2.589,-2.5341,-2.6101,-2.6813,-2.7371,-2.8448,-2.9333,-2.989,-3.0217,-3.0398,-3.0398,-3.0398,-3.066,-3.1198,-3.1218,-3.1218,-3.1218,-3.1218,-3.1795,-3.291,-3.3449,-3.4353,-3.5493,-3.5493,-3.5493,-3.5411,-3.4199,-3.4026,-3.443,-3.3583,-3.367,-3.427,-3.4226,-3.4269,-3.4334,-2.0037,-1.9924,-1.9798,-1.9798,-1.9798,-1.9798,-1.9798,-2.0207,-2.0612,-2.0996,-2.143,-2.2083,-2.3177,-2.3252,-2.3259,-2.33,-2.2758,-2.2259,-2.1918,-2.2236,-2.2758,-2.3566,-2.3595,-2.3595,-2.3595,-2.3595,-2.3595,-2.3595,-2.3595,-2.3595,-2.3595,-2.3595,-2.3879,-2.4389,-2.4389,-2.4776,-2.5449,-2.5449,-2.5524,-2.5709,-2.6068,-2.628,-2.6437,-2.6774,-2.7147,-2.753,-2.7908,-2.821,-2.8446,-2.8863,-2.8994,-2.8994,-2.8994,-2.9044,-2.916,-2.9415,-2.9494,-2.9551,-2.9748,-2.9696,-2.9455,-2.8931,-2.821,-2.7599,-2.7503,-2.6563,-2.6274,-2.8313,-2.7813,-2.7525,-2.9198,-2.8832,-2.8426,-2.89,-2.8084,-2.7465,-2.7731,-2.7328,-2.6794,-2.6197,-2.664,-2.6774,-2.6178,-2.689,-2.7621,-2.8217,-2.9044,-2.9775,-3.0359,-3.0398,-3.0398,-3.0398,-3.0679,-3.1218,-3.2064,-3.1545,-3.1295,-3.1295,-3.1564,-3.2122,-3.2929,-3.3795,-3.468,-3.5493,-3.5493,-3.5493,-3.543,-3.4564,-3.4545,-3.5026,-3.443,-3.4395,-3.4689,-3.4699,-3.4486,-3.4152,-2.0605,-2.0213,-1.9811,-1.9811,-1.9811,-1.9811,-1.9798,-1.9798,-2.0258,-2.1433,-2.1615,-2.2329,-2.4248,-2.4468,-2.453,-2.4596,-2.3227,-2.2417,-2.24,-2.2409,-2.2758,-2.3566,-2.3595,-2.361,-2.3595,-2.3595,-2.3595,-2.3595,-2.3595,-2.3595,-2.3595,-2.3595,-2.3879,-2.4389,-2.4389,-2.5028,-2.6013,-2.6013,-2.6262,-2.6691,-2.6691,-2.6939,-2.7286,-2.7286,-2.756,-2.7954,-2.829,-2.8394,-2.8471,-2.8863,-2.8994,-2.8994,-2.9017,-2.92,-2.9434,-2.9643,-2.9713,-2.9748,-2.9954,-2.9999,-2.9823,-2.9003,-2.8351,-2.7678,-2.6794,-2.6601,-2.6851,-2.7717,-2.7909,-2.8409,-3.0102,-2.9698,-2.9102,-2.9102,-2.9102,-2.8813,-2.8005,-2.7909,-2.7909,-2.789,-2.7909,-2.7909,-2.789,-2.8621,-2.9102,-2.9102,-2.991,-3.0398,-3.0417,-3.0398,-3.0398,-3.0398,-3.1256,-3.2083,-3.2872,-3.1237,-3.0417,-3.0436,-3.1295,-3.2122,-3.2949,-3.3814,-3.468,-3.5493,-3.5493,-3.5493,-3.543,-3.4564,-3.4199,-3.4199,-3.4199,-3.4031,-3.387,-3.4472,-3.4467,-3.4152,-2.068,-2.084,-2.0865,-2.0476,-2.0401,-2.0275,-1.9861,-1.979,-1.9936,-2.031,-2.1028,-2.1843,-2.2683,-2.2926,-2.305,-2.318,-2.2423,-2.189,-2.1904,-2.2342,-2.2509,-2.2271,-2.2725,-2.3157,-2.3595,-2.3595,-2.3595,-2.3595,-2.3595,-2.3595,-2.3595,-2.3991,-2.4471,-2.4989,-2.5335,-2.5872,-2.647,-2.647,-2.6724,-2.7115,-2.7115,-2.7348,-2.7725,-2.7725,-2.7936,-2.8264,-2.835,-2.8565,-2.8839,-2.8952,-2.8994,-2.9021,-2.9225,-2.933,-2.9474,-2.9813,-2.9908,-2.9954,-3.0209,-3.0267,-2.9953,-2.8514,-2.8453,-2.8198,-2.6159,-2.664,-2.7582,-2.7852,-2.8352,-2.9083,-3.0198,-3.0198,-2.9813,-2.9198,-2.9102,-2.8813,-2.8005,-2.839,-2.8525,-2.7967,-2.839,-2.8525,-2.7948,-2.8621,-2.9102,-2.9102,-3.0467,-3.1564,-3.2122,-3.1621,-3.1314,-3.1314,-3.1564,-3.1814,-3.2064,-3.1564,-3.191,-3.3064,-3.2718,-3.2987,-3.3833,-3.4718,-3.5257,-3.5493,-3.5493,-3.5493,-3.5488,-3.5218,-3.4757,-3.4199,-3.4199,-3.4031,-3.3794,-3.3791,-3.3961,-3.4152,-2.1162,-2.138,-2.1317,-2.0844,-2.0548,-2.032,-2.0188,-1.9955,-2.0007,-2.0582,-2.1138,-2.1736,-2.2386,-2.2335,-2.2326,-2.2528,-2.2028,-2.1697,-2.1697,-2.188,-2.1974,-2.21,-2.2239,-2.2575,-2.3231,-2.3465,-2.3595,-2.3595,-2.3595,-2.3724,-2.3921,-2.4225,-2.4776,-2.554,-2.5852,-2.635,-2.6939,-2.6939,-2.7178,-2.7547,-2.7547,-2.7765,-2.8102,-2.8102,-2.8316,-2.8633,-2.8633,-2.8797,-2.8994,-2.8994,-2.8994,-2.9062,-2.931,-2.9412,-2.9493,-2.9877,-2.9999,-3.0061,-3.0323,-3.0398,-3.0083,-2.8717,-2.8736,-2.8602,-2.6755,-2.714,-2.7986,-2.8313,-2.8756,-2.9371,-3.0237,-3.0398,-3.0237,-2.9698,-2.9602,-2.9448,-2.8967,-2.9313,-2.9429,-2.8948,-2.9313,-2.9429,-2.8948,-2.9333,-2.9756,-3.0102,-3.1391,-3.2391,-3.2872,-3.2449,-3.2179,-3.2179,-3.2179,-3.2333,-3.2679,-3.2352,-3.2679,-3.368,-3.3506,-3.368,-3.4218,-3.5103,-3.5493,-3.5493,-3.5493,-3.5493,-3.5468,-3.5141,-3.468,-3.4199,-3.4199,-3.3972,-3.3655,-3.3847,-3.3967,-3.3981,-2.184,-2.1838,-2.1536,-2.1167,-2.0503,-2.0151,-2.0636,-2.0198,-2.0254,-2.1642,-2.1725,-2.2002,-2.2879,-2.2431,-2.2143,-2.227,-2.1901,-2.1663,-2.1615,-2.1113,-2.1321,-2.2466,-2.2007,-2.1993,-2.2694,-2.3275,-2.3638,-2.3681,-2.3681,-2.3948,-2.4471,-2.4511,-2.5067,-2.6013,-2.6033,-2.6505,-2.7241,-2.7286,-2.753,-2.7897,-2.7926,-2.8156,-2.8446,-2.8446,-2.8682,-2.8994,-2.8994,-2.8994,-2.8994,-2.8994,-2.8994,-2.9062,-2.931,-2.9412,-2.9493,-2.9877,-2.9999,-3.0061,-3.0323,-3.0398,-3.0217,-2.941,-2.9217,-2.8986,-2.8102,-2.8025,-2.8313,-2.8967,-2.9159,-2.9467,-3.0256,-3.0398,-3.0398,-3.0398,-3.0398,-3.0398,-3.0398,-3.0398,-3.0398,-3.0398,-3.0398,-3.0398,-3.0398,-3.0456,-3.091,-3.1852,-3.2602,-3.3045,-3.3122,-3.3064,-3.3026,-3.3026,-3.3026,-3.3391,-3.418,-3.3487,-3.3122,-3.3141,-3.3853,-3.4237,-3.4334,-3.5141,-3.5468,-3.5391,-3.5468,-3.5411,-3.5218,-3.4507,-3.4103,-3.3968,-3.3955,-3.3669,-3.3372,-3.4144,-3.4172,-3.3697,-2.1985,-2.2393,-2.272,-2.2643,-2.204,-2.1349,-2.0903,-2.0269,-1.9884,-2.0222,-2.1731,-2.2495,-2.1902,-2.247,-2.2444,-2.1322,-2.1515,-2.152,-2.1028,-2.0894,-2.0944,-2.1175,-2.1534,-2.1993,-2.2694,-2.3275,-2.3794,-2.4241,-2.4241,-2.4511,-2.5028,-2.5465,-2.5779,-2.6013,-2.6367,-2.6641,-2.6841,-2.7178,-2.753,-2.7926,-2.8183,-2.8515,-2.8863,-2.8863,-2.8929,-2.8994,-2.8994,-2.8994,-2.8994,-2.8994,-2.8994,-2.9062,-2.931,-2.9412,-2.9493,-2.9877,-2.9999,-3.0061,-3.0323,-3.0398,-3.034,-3.0179,-3.0121,-2.9737,-2.8236,-2.8929,-2.9717,-2.9198,-2.964,-3.0179,-3.0359,-3.0398,-3.0398,-3.0398,-3.0398,-3.0398,-3.0398,-3.0398,-3.0398,-3.0398,-3.0398,-3.0398,-3.0398,-3.1025,-3.2045,-3.3545,-3.3814,-3.4218,-3.4911,-3.4295,-3.391,-3.391,-3.391,-3.4007,-3.4199,-3.4699,-3.4949,-3.493,-3.443,-3.4564,-3.5218,-3.5411,-3.5141,-3.4526,-3.5199,-3.4737,-3.3506,-3.3987,-3.343,-3.2225,-3.2015,-3.211,-3.2391,-3.2414,-3.2993,-3.377,-2.2518,-2.2852,-2.2887,-2.2166,-2.1907,-2.1549,-2.0971,-2.0281,-2.0159,-2.1256,-2.1455,-2.1719,-2.2176,-2.1794,-2.1234,-2.0429,-2.0628,-2.0832,-2.0961,-2.0871,-2.1091,-2.1704,-2.2021,-2.2483,-2.3113,-2.3694,-2.4116,-2.4389,-2.4389,-2.4831,-2.5577,-2.5888,-2.612,-2.6367,-2.6791,-2.7083,-2.7303,-2.766,-2.8075,-2.843,-2.8608,-2.8815,-2.8994,-2.8994,-2.8994,-2.8994,-2.8994,-2.8994,-2.8994,-2.8994,-2.8994,-2.9021,-2.916,-2.9203,-2.9291,-2.9729,-2.9861,-2.9943,-3.0299,-3.0398,-3.0398,-3.0398,-3.0398,-3.0167,-2.9294,-2.9775,-3.0275,-2.9813,-3.0083,-3.0398,-3.0398,-3.0398,-3.0398,-3.0398,-3.0398,-3.0552,-3.0968,-3.1025,-3.116,-3.1545,-3.1602,-3.1602,-3.1602,-3.2372,-3.3256,-3.4122,-3.4584,-3.5026,-3.5488,-3.5064,-3.4814,-3.4814,-3.4814,-3.4814,-3.4814,-3.5276,-3.5493,-3.5474,-3.5045,-3.5064,-3.5493,-3.5493,-3.5026,-3.4218,-3.4539,-3.4246,-3.3526,-3.3465,-3.2979,-3.2301,-3.2416,-3.2098,-3.16,-3.2163,-3.2242,-3.2192,-2.3078,-2.3078,-2.268,-2.1473,-2.1462,-2.1462,-2.1175,-2.0557,-2.0727,-2.2485,-2.1331,-2.0924,-2.2375,-2.0921,-1.9801,-1.9784,-1.9952,-2.0334,-2.105,-2.1033,-2.1465,-2.2649,-2.2694,-2.3009,-2.3709,-2.4184,-2.443,-2.4552,-2.4632,-2.5166,-2.612,-2.612,-2.635,-2.6825,-2.7147,-2.753,-2.7926,-2.8264,-2.859,-2.8887,-2.8952,-2.8994,-2.8994,-2.8994,-2.8994,-2.8994,-2.8994,-2.8994,-2.8994,-2.8994,-2.8994,-2.8994,-2.8994,-2.904,-2.916,-2.957,-2.9712,-2.9848,-3.0286,-3.0398,-3.0398,-3.0398,-3.0513,-3.0571,-3.0417,-3.0398,-3.0398,-3.0398,-3.0398,-3.0398,-3.0398,-3.0398,-3.0398,-3.0398,-3.0398,-3.0648,-3.1391,-3.1621,-3.1948,-3.2622,-3.2814,-3.2968,-3.3103,-3.3776,-3.4257,-3.441,-3.5084,-3.5493,-3.5493,-3.5493,-3.5493,-3.5493,-3.5493,-3.5493,-3.5493,-3.5493,-3.5493,-3.5493,-3.5493,-3.5493,-3.5493,-3.5493,-3.4949,-3.3987,-3.4059,-3.3944,-3.3646,-3.2909,-3.266,-3.2771,-3.2972,-3.2219,-3.1185,-3.2303,-3.1737,-3.0613,-2.3078,-2.3078,-2.3015,-2.2852,-2.233,-2.1965,-2.2081,-2.1656,-2.1192,-2.1071,-2.2003,-2.2016,-2.0391,-1.9987,-1.9776,-1.9809,-2.0497,-2.0993,-2.1104,-2.1403,-2.1913,-2.2649,-2.2694,-2.3216,-2.4266,-2.4348,-2.4632,-2.5105,-2.5577,-2.6068,-2.6624,-2.6624,-2.6824,-2.721,-2.7272,-2.753,-2.7926,-2.8264,-2.842,-2.8515,-2.8863,-2.8994,-2.8994,-2.8994,-2.8994,-2.8994,-2.8994,-2.8994,-2.8994,-2.8994,-2.8994,-2.8994,-2.8994,-2.9156,-2.9394,-2.9625,-2.9829,-3.0013,-3.0311,-3.0398,-3.0398,-3.0398,-3.0968,-3.1333,-3.0571,-3.0398,-3.0398,-3.0398,-3.0398,-3.0398,-3.0398,-3.0398,-3.0398,-3.0398,-3.0398,-3.0436,-3.0552,-3.1218,-3.1737,-3.1852,-3.2487,-3.3199,-3.3949,-3.4122,-3.4507,-3.5276,-3.543,-3.5493,-3.5493,-3.5493,-3.5493,-3.5493,-3.5493,-3.5493,-3.5493,-3.5493,-3.5493,-3.5493,-3.5493,-3.5493,-3.5493,-3.5493,-3.4622,-3.316,-3.4634,-3.3901,-3.1745,-3.2352,-3.2452,-3.2052,-3.0564,-3.0688,-3.1666,-3.1634,-3.147,-3.1366,-2.3078,-2.3078,-2.3037,-2.2736,-2.2314,-2.1861,-2.1587,-2.0999,-2.069,-2.1079,-2.1217,-2.1144,-2.0819,-2.0184,-1.9809,-1.9772,-2.0775,-2.1732,-2.2465,-2.2334,-2.2529,-2.3201,-2.3478,-2.3891,-2.4389,-2.4989,-2.5411,-2.5652,-2.5888,-2.6227,-2.6691,-2.6691,-2.6774,-2.6954,-2.721,-2.753,-2.7926,-2.8264,-2.854,-2.8749,-2.8929,-2.8994,-2.8994,-2.8994,-2.8994,-2.8994,-2.8994,-2.8994,-2.8994,-2.8994,-2.8994,-2.904,-2.9178,-2.931,-2.9567,-3.0347,-3.0658,-3.0877,-3.1591,-3.1468,-3.1141,-3.1141,-3.1429,-3.1602,-3.1218,-3.1468,-3.1525,-3.059,-3.1141,-3.1506,-3.0571,-3.0814,-3.1141,-3.1141,-3.1141,-3.1448,-3.2391,-3.2852,-3.3276,-3.3757,-3.4141,-3.4507,-3.4891,-3.493,-3.5084,-3.5468,-3.5493,-3.5493,-3.5493,-3.5493,-3.5493,-3.5493,-3.5493,-3.5493,-3.5493,-3.5493,-3.5493,-3.5493,-3.5493,-3.5493,-3.5493,-3.5493,-3.4814,-3.366,-3.4275,-3.3846,-3.2724,-3.2949,-3.2958,-3.273,-3.1792,-3.1481,-3.1449,-3.0423,-3.0338,-3.0834]}]]